<?xml version="1.0" encoding="UTF-8" standalone="no" ?>
<gpx xmlns="http://www.topografix.com/GPX/1/1" xmlns:xsi="http://www.w3.org/2001/XMLSchema-instance" xsi:schemaLocation="http://www.topografix.com/GPX/1/1 http://www.topografix.com/GPX/1/1/gpx.xsd" version="1.1" creator="VisuGPX - https://www.visugpx.com">
  <metadata>
    <name>Vire sur lot</name>
    <desc><![CDATA[club vtt des rochers samedi 13 juin 2015]]></desc>
  </metadata>
  <trk>
    <name><![CDATA[13-JUIN-15 17:59:22]]></name>
    <trkseg>
      <trkpt lat="44.47203" lon="0.93378">
        <ele>68.39</ele>
        <time>2015-06-13T12:01:47Z</time>
      </trkpt>
      <trkpt lat="44.472" lon="0.93379">
        <ele>76.56</ele>
        <time>2015-06-13T12:02:16Z</time>
      </trkpt>
      <trkpt lat="44.472" lon="0.93384">
        <ele>72.24</ele>
        <time>2015-06-13T12:02:46Z</time>
      </trkpt>
      <trkpt lat="44.47201" lon="0.93388">
        <ele>72.72</ele>
        <time>2015-06-13T12:02:50Z</time>
      </trkpt>
      <trkpt lat="44.47204" lon="0.93399">
        <ele>74.16</ele>
        <time>2015-06-13T12:03:02Z</time>
      </trkpt>
      <trkpt lat="44.47207" lon="0.93404">
        <ele>74.16</ele>
        <time>2015-06-13T12:03:14Z</time>
      </trkpt>
      <trkpt lat="44.47208" lon="0.93412">
        <ele>75.12</ele>
        <time>2015-06-13T12:03:26Z</time>
      </trkpt>
      <trkpt lat="44.47209" lon="0.93421">
        <ele>77.04</ele>
        <time>2015-06-13T12:03:40Z</time>
      </trkpt>
      <trkpt lat="44.4721" lon="0.93423">
        <ele>78.48</ele>
        <time>2015-06-13T12:03:57Z</time>
      </trkpt>
      <trkpt lat="44.4721" lon="0.93424">
        <ele>79.45</ele>
        <time>2015-06-13T12:04:12Z</time>
      </trkpt>
      <trkpt lat="44.47211" lon="0.93425">
        <ele>80.41</ele>
        <time>2015-06-13T12:04:31Z</time>
      </trkpt>
      <trkpt lat="44.47214" lon="0.93422">
        <ele>78.97</ele>
        <time>2015-06-13T12:04:45Z</time>
      </trkpt>
      <trkpt lat="44.47212" lon="0.93426">
        <ele>78</ele>
        <time>2015-06-13T12:05:13Z</time>
      </trkpt>
      <trkpt lat="44.47213" lon="0.93427">
        <ele>77.04</ele>
        <time>2015-06-13T12:05:54Z</time>
      </trkpt>
      <trkpt lat="44.47213" lon="0.93427">
        <ele>77.52</ele>
        <time>2015-06-13T12:06:30Z</time>
      </trkpt>
      <trkpt lat="44.47213" lon="0.93425">
        <ele>76.08</ele>
        <time>2015-06-13T12:07:11Z</time>
      </trkpt>
      <trkpt lat="44.47213" lon="0.93425">
        <ele>76.56</ele>
        <time>2015-06-13T12:07:51Z</time>
      </trkpt>
      <trkpt lat="44.47214" lon="0.93424">
        <ele>76.56</ele>
        <time>2015-06-13T12:08:28Z</time>
      </trkpt>
      <trkpt lat="44.47214" lon="0.93425">
        <ele>77.04</ele>
        <time>2015-06-13T12:09:14Z</time>
      </trkpt>
      <trkpt lat="44.47215" lon="0.93425">
        <ele>77.52</ele>
        <time>2015-06-13T12:09:49Z</time>
      </trkpt>
      <trkpt lat="44.47215" lon="0.93424">
        <ele>77.52</ele>
        <time>2015-06-13T12:10:07Z</time>
      </trkpt>
      <trkpt lat="44.47214" lon="0.93423">
        <ele>77.52</ele>
        <time>2015-06-13T12:10:27Z</time>
      </trkpt>
      <trkpt lat="44.47211" lon="0.9342">
        <ele>77.52</ele>
        <time>2015-06-13T12:10:52Z</time>
      </trkpt>
      <trkpt lat="44.4721" lon="0.93418">
        <ele>77.52</ele>
        <time>2015-06-13T12:10:54Z</time>
      </trkpt>
      <trkpt lat="44.47205" lon="0.93407">
        <ele>77.52</ele>
        <time>2015-06-13T12:11:07Z</time>
      </trkpt>
      <trkpt lat="44.47206" lon="0.93404">
        <ele>78</ele>
        <time>2015-06-13T12:11:19Z</time>
      </trkpt>
      <trkpt lat="44.47205" lon="0.93403">
        <ele>78</ele>
        <time>2015-06-13T12:11:39Z</time>
      </trkpt>
      <trkpt lat="44.47205" lon="0.93403">
        <ele>78.48</ele>
        <time>2015-06-13T12:11:58Z</time>
      </trkpt>
      <trkpt lat="44.47201" lon="0.93393">
        <ele>77.04</ele>
        <time>2015-06-13T12:12:10Z</time>
      </trkpt>
      <trkpt lat="44.472" lon="0.93394">
        <ele>76.56</ele>
        <time>2015-06-13T12:12:28Z</time>
      </trkpt>
      <trkpt lat="44.47201" lon="0.93393">
        <ele>75.6</ele>
        <time>2015-06-13T12:12:49Z</time>
      </trkpt>
      <trkpt lat="44.47201" lon="0.93393">
        <ele>76.56</ele>
        <time>2015-06-13T12:13:11Z</time>
      </trkpt>
      <trkpt lat="44.47202" lon="0.93393">
        <ele>77.04</ele>
        <time>2015-06-13T12:13:34Z</time>
      </trkpt>
      <trkpt lat="44.47202" lon="0.93392">
        <ele>76.56</ele>
        <time>2015-06-13T12:14:03Z</time>
      </trkpt>
      <trkpt lat="44.47201" lon="0.93392">
        <ele>75.12</ele>
        <time>2015-06-13T12:14:31Z</time>
      </trkpt>
      <trkpt lat="44.47198" lon="0.93392">
        <ele>77.04</ele>
        <time>2015-06-13T12:15:04Z</time>
      </trkpt>
      <trkpt lat="44.47199" lon="0.93393">
        <ele>77.04</ele>
        <time>2015-06-13T12:15:37Z</time>
      </trkpt>
      <trkpt lat="44.472" lon="0.93393">
        <ele>77.04</ele>
        <time>2015-06-13T12:16:11Z</time>
      </trkpt>
      <trkpt lat="44.47199" lon="0.93393">
        <ele>77.04</ele>
        <time>2015-06-13T12:16:14Z</time>
      </trkpt>
      <trkpt lat="44.47195" lon="0.93394">
        <ele>76.08</ele>
        <time>2015-06-13T12:16:18Z</time>
      </trkpt>
      <trkpt lat="44.47174" lon="0.93402">
        <ele>74.64</ele>
        <time>2015-06-13T12:16:31Z</time>
      </trkpt>
      <trkpt lat="44.47172" lon="0.93402">
        <ele>74.64</ele>
        <time>2015-06-13T12:16:32Z</time>
      </trkpt>
      <trkpt lat="44.47143" lon="0.93428">
        <ele>73.2</ele>
        <time>2015-06-13T12:16:46Z</time>
      </trkpt>
      <trkpt lat="44.47132" lon="0.93479">
        <ele>72.72</ele>
        <time>2015-06-13T12:17:01Z</time>
      </trkpt>
      <trkpt lat="44.4714" lon="0.93528">
        <ele>73.2</ele>
        <time>2015-06-13T12:17:15Z</time>
      </trkpt>
      <trkpt lat="44.47164" lon="0.93586">
        <ele>72.72</ele>
        <time>2015-06-13T12:17:33Z</time>
      </trkpt>
      <trkpt lat="44.47181" lon="0.93629">
        <ele>74.64</ele>
        <time>2015-06-13T12:17:45Z</time>
      </trkpt>
      <trkpt lat="44.47206" lon="0.93682">
        <ele>76.56</ele>
        <time>2015-06-13T12:17:58Z</time>
      </trkpt>
      <trkpt lat="44.47232" lon="0.93741">
        <ele>75.12</ele>
        <time>2015-06-13T12:18:12Z</time>
      </trkpt>
      <trkpt lat="44.47262" lon="0.93812">
        <ele>76.08</ele>
        <time>2015-06-13T12:18:28Z</time>
      </trkpt>
      <trkpt lat="44.4728" lon="0.9385">
        <ele>76.56</ele>
        <time>2015-06-13T12:18:38Z</time>
      </trkpt>
      <trkpt lat="44.47276" lon="0.93874">
        <ele>76.08</ele>
        <time>2015-06-13T12:18:49Z</time>
      </trkpt>
      <trkpt lat="44.47277" lon="0.93883">
        <ele>75.6</ele>
        <time>2015-06-13T12:18:53Z</time>
      </trkpt>
      <trkpt lat="44.47301" lon="0.93936">
        <ele>77.04</ele>
        <time>2015-06-13T12:19:05Z</time>
      </trkpt>
      <trkpt lat="44.47339" lon="0.9401">
        <ele>75.6</ele>
        <time>2015-06-13T12:19:21Z</time>
      </trkpt>
      <trkpt lat="44.47383" lon="0.94087">
        <ele>72.72</ele>
        <time>2015-06-13T12:19:35Z</time>
      </trkpt>
      <trkpt lat="44.47426" lon="0.94163">
        <ele>71.27</ele>
        <time>2015-06-13T12:19:47Z</time>
      </trkpt>
      <trkpt lat="44.47426" lon="0.94169">
        <ele>71.27</ele>
        <time>2015-06-13T12:19:48Z</time>
      </trkpt>
      <trkpt lat="44.47425" lon="0.94175">
        <ele>71.27</ele>
        <time>2015-06-13T12:19:49Z</time>
      </trkpt>
      <trkpt lat="44.47423" lon="0.9418">
        <ele>71.27</ele>
        <time>2015-06-13T12:19:50Z</time>
      </trkpt>
      <trkpt lat="44.4742" lon="0.94184">
        <ele>71.27</ele>
        <time>2015-06-13T12:19:51Z</time>
      </trkpt>
      <trkpt lat="44.47416" lon="0.94187">
        <ele>71.27</ele>
        <time>2015-06-13T12:19:52Z</time>
      </trkpt>
      <trkpt lat="44.47412" lon="0.94191">
        <ele>71.27</ele>
        <time>2015-06-13T12:19:53Z</time>
      </trkpt>
      <trkpt lat="44.47408" lon="0.94193">
        <ele>71.27</ele>
        <time>2015-06-13T12:19:54Z</time>
      </trkpt>
      <trkpt lat="44.4736" lon="0.94222">
        <ele>73.2</ele>
        <time>2015-06-13T12:20:07Z</time>
      </trkpt>
      <trkpt lat="44.47294" lon="0.94276">
        <ele>75.6</ele>
        <time>2015-06-13T12:20:25Z</time>
      </trkpt>
      <trkpt lat="44.47222" lon="0.94337">
        <ele>75.6</ele>
        <time>2015-06-13T12:20:44Z</time>
      </trkpt>
      <trkpt lat="44.4714" lon="0.94409">
        <ele>76.08</ele>
        <time>2015-06-13T12:21:04Z</time>
      </trkpt>
      <trkpt lat="44.47054" lon="0.94488">
        <ele>77.04</ele>
        <time>2015-06-13T12:21:24Z</time>
      </trkpt>
      <trkpt lat="44.47031" lon="0.94517">
        <ele>77.04</ele>
        <time>2015-06-13T12:21:30Z</time>
      </trkpt>
      <trkpt lat="44.47013" lon="0.94552">
        <ele>77.52</ele>
        <time>2015-06-13T12:21:36Z</time>
      </trkpt>
      <trkpt lat="44.46975" lon="0.94669">
        <ele>78</ele>
        <time>2015-06-13T12:21:54Z</time>
      </trkpt>
      <trkpt lat="44.46913" lon="0.9477">
        <ele>78</ele>
        <time>2015-06-13T12:22:13Z</time>
      </trkpt>
      <trkpt lat="44.46887" lon="0.94858">
        <ele>79.93</ele>
        <time>2015-06-13T12:22:28Z</time>
      </trkpt>
      <trkpt lat="44.46885" lon="0.94877">
        <ele>80.41</ele>
        <time>2015-06-13T12:22:31Z</time>
      </trkpt>
      <trkpt lat="44.46884" lon="0.94882">
        <ele>80.41</ele>
        <time>2015-06-13T12:22:32Z</time>
      </trkpt>
      <trkpt lat="44.46883" lon="0.94888">
        <ele>80.89</ele>
        <time>2015-06-13T12:22:33Z</time>
      </trkpt>
      <trkpt lat="44.46879" lon="0.949">
        <ele>80.89</ele>
        <time>2015-06-13T12:22:35Z</time>
      </trkpt>
      <trkpt lat="44.46848" lon="0.94957">
        <ele>82.81</ele>
        <time>2015-06-13T12:22:48Z</time>
      </trkpt>
      <trkpt lat="44.46818" lon="0.95">
        <ele>86.18</ele>
        <time>2015-06-13T12:23:02Z</time>
      </trkpt>
      <trkpt lat="44.4676" lon="0.95023">
        <ele>87.14</ele>
        <time>2015-06-13T12:23:20Z</time>
      </trkpt>
      <trkpt lat="44.46697" lon="0.95048">
        <ele>88.58</ele>
        <time>2015-06-13T12:23:39Z</time>
      </trkpt>
      <trkpt lat="44.46693" lon="0.95051">
        <ele>88.58</ele>
        <time>2015-06-13T12:23:48Z</time>
      </trkpt>
      <trkpt lat="44.46693" lon="0.9505">
        <ele>89.54</ele>
        <time>2015-06-13T12:24:09Z</time>
      </trkpt>
      <trkpt lat="44.46693" lon="0.95051">
        <ele>90.02</ele>
        <time>2015-06-13T12:24:19Z</time>
      </trkpt>
      <trkpt lat="44.46693" lon="0.95054">
        <ele>90.02</ele>
        <time>2015-06-13T12:24:20Z</time>
      </trkpt>
      <trkpt lat="44.46693" lon="0.95058">
        <ele>90.02</ele>
        <time>2015-06-13T12:24:21Z</time>
      </trkpt>
      <trkpt lat="44.46708" lon="0.95137">
        <ele>92.9</ele>
        <time>2015-06-13T12:24:37Z</time>
      </trkpt>
      <trkpt lat="44.46727" lon="0.95216">
        <ele>98.19</ele>
        <time>2015-06-13T12:24:56Z</time>
      </trkpt>
      <trkpt lat="44.46741" lon="0.95283">
        <ele>101.08</ele>
        <time>2015-06-13T12:25:12Z</time>
      </trkpt>
      <trkpt lat="44.46757" lon="0.95355">
        <ele>103.48</ele>
        <time>2015-06-13T12:25:27Z</time>
      </trkpt>
      <trkpt lat="44.46767" lon="0.95429">
        <ele>103</ele>
        <time>2015-06-13T12:25:41Z</time>
      </trkpt>
      <trkpt lat="44.46767" lon="0.95434">
        <ele>102.52</ele>
        <time>2015-06-13T12:25:42Z</time>
      </trkpt>
      <trkpt lat="44.46768" lon="0.9544">
        <ele>102.52</ele>
        <time>2015-06-13T12:25:43Z</time>
      </trkpt>
      <trkpt lat="44.46774" lon="0.95518">
        <ele>101.56</ele>
        <time>2015-06-13T12:25:58Z</time>
      </trkpt>
      <trkpt lat="44.46773" lon="0.9552">
        <ele>102.04</ele>
        <time>2015-06-13T12:26:10Z</time>
      </trkpt>
      <trkpt lat="44.46777" lon="0.95545">
        <ele>103</ele>
        <time>2015-06-13T12:26:21Z</time>
      </trkpt>
      <trkpt lat="44.46779" lon="0.95596">
        <ele>101.56</ele>
        <time>2015-06-13T12:26:31Z</time>
      </trkpt>
      <trkpt lat="44.46776" lon="0.95598">
        <ele>101.56</ele>
        <time>2015-06-13T12:26:32Z</time>
      </trkpt>
      <trkpt lat="44.46773" lon="0.956">
        <ele>101.56</ele>
        <time>2015-06-13T12:26:33Z</time>
      </trkpt>
      <trkpt lat="44.46741" lon="0.9561">
        <ele>103</ele>
        <time>2015-06-13T12:26:46Z</time>
      </trkpt>
      <trkpt lat="44.46704" lon="0.95631">
        <ele>104.92</ele>
        <time>2015-06-13T12:27:01Z</time>
      </trkpt>
      <trkpt lat="44.46674" lon="0.95682">
        <ele>106.36</ele>
        <time>2015-06-13T12:27:17Z</time>
      </trkpt>
      <trkpt lat="44.46641" lon="0.95736">
        <ele>107.32</ele>
        <time>2015-06-13T12:27:34Z</time>
      </trkpt>
      <trkpt lat="44.46632" lon="0.9576">
        <ele>108.29</ele>
        <time>2015-06-13T12:27:41Z</time>
      </trkpt>
      <trkpt lat="44.46628" lon="0.95773">
        <ele>108.77</ele>
        <time>2015-06-13T12:27:45Z</time>
      </trkpt>
      <trkpt lat="44.46607" lon="0.95824">
        <ele>110.21</ele>
        <time>2015-06-13T12:28:01Z</time>
      </trkpt>
      <trkpt lat="44.46585" lon="0.95874">
        <ele>109.73</ele>
        <time>2015-06-13T12:28:17Z</time>
      </trkpt>
      <trkpt lat="44.46567" lon="0.95907">
        <ele>109.25</ele>
        <time>2015-06-13T12:28:30Z</time>
      </trkpt>
      <trkpt lat="44.46549" lon="0.95946">
        <ele>110.21</ele>
        <time>2015-06-13T12:28:42Z</time>
      </trkpt>
      <trkpt lat="44.46525" lon="0.95995">
        <ele>112.13</ele>
        <time>2015-06-13T12:28:58Z</time>
      </trkpt>
      <trkpt lat="44.46523" lon="0.96">
        <ele>110.69</ele>
        <time>2015-06-13T12:29:08Z</time>
      </trkpt>
      <trkpt lat="44.46515" lon="0.96014">
        <ele>110.69</ele>
        <time>2015-06-13T12:29:20Z</time>
      </trkpt>
      <trkpt lat="44.46509" lon="0.96027">
        <ele>111.65</ele>
        <time>2015-06-13T12:29:36Z</time>
      </trkpt>
      <trkpt lat="44.4651" lon="0.96027">
        <ele>111.17</ele>
        <time>2015-06-13T12:29:52Z</time>
      </trkpt>
      <trkpt lat="44.46509" lon="0.9603">
        <ele>111.17</ele>
        <time>2015-06-13T12:30:06Z</time>
      </trkpt>
      <trkpt lat="44.46509" lon="0.96031">
        <ele>110.69</ele>
        <time>2015-06-13T12:30:33Z</time>
      </trkpt>
      <trkpt lat="44.46508" lon="0.96032">
        <ele>110.69</ele>
        <time>2015-06-13T12:30:56Z</time>
      </trkpt>
      <trkpt lat="44.46508" lon="0.96031">
        <ele>110.69</ele>
        <time>2015-06-13T12:31:03Z</time>
      </trkpt>
      <trkpt lat="44.46507" lon="0.96034">
        <ele>111.65</ele>
        <time>2015-06-13T12:31:07Z</time>
      </trkpt>
      <trkpt lat="44.46495" lon="0.96056">
        <ele>113.57</ele>
        <time>2015-06-13T12:31:17Z</time>
      </trkpt>
      <trkpt lat="44.46495" lon="0.96059">
        <ele>114.05</ele>
        <time>2015-06-13T12:31:18Z</time>
      </trkpt>
      <trkpt lat="44.46496" lon="0.96061">
        <ele>114.05</ele>
        <time>2015-06-13T12:31:19Z</time>
      </trkpt>
      <trkpt lat="44.46498" lon="0.96063">
        <ele>114.53</ele>
        <time>2015-06-13T12:31:20Z</time>
      </trkpt>
      <trkpt lat="44.465" lon="0.96065">
        <ele>114.53</ele>
        <time>2015-06-13T12:31:21Z</time>
      </trkpt>
      <trkpt lat="44.46503" lon="0.96067">
        <ele>114.53</ele>
        <time>2015-06-13T12:31:22Z</time>
      </trkpt>
      <trkpt lat="44.46506" lon="0.96069">
        <ele>114.53</ele>
        <time>2015-06-13T12:31:23Z</time>
      </trkpt>
      <trkpt lat="44.46536" lon="0.96107">
        <ele>114.53</ele>
        <time>2015-06-13T12:31:36Z</time>
      </trkpt>
      <trkpt lat="44.46558" lon="0.9616">
        <ele>113.09</ele>
        <time>2015-06-13T12:31:49Z</time>
      </trkpt>
      <trkpt lat="44.46576" lon="0.96195">
        <ele>114.05</ele>
        <time>2015-06-13T12:31:59Z</time>
      </trkpt>
      <trkpt lat="44.4661" lon="0.96261">
        <ele>114.05</ele>
        <time>2015-06-13T12:32:14Z</time>
      </trkpt>
      <trkpt lat="44.46608" lon="0.96306">
        <ele>116.46</ele>
        <time>2015-06-13T12:32:25Z</time>
      </trkpt>
      <trkpt lat="44.46591" lon="0.96347">
        <ele>115.98</ele>
        <time>2015-06-13T12:32:37Z</time>
      </trkpt>
      <trkpt lat="44.46591" lon="0.9635">
        <ele>115.98</ele>
        <time>2015-06-13T12:32:38Z</time>
      </trkpt>
      <trkpt lat="44.46589" lon="0.96357">
        <ele>116.46</ele>
        <time>2015-06-13T12:32:49Z</time>
      </trkpt>
      <trkpt lat="44.46589" lon="0.96358">
        <ele>116.46</ele>
        <time>2015-06-13T12:32:52Z</time>
      </trkpt>
      <trkpt lat="44.46585" lon="0.96369">
        <ele>117.42</ele>
        <time>2015-06-13T12:32:58Z</time>
      </trkpt>
      <trkpt lat="44.46573" lon="0.9639">
        <ele>118.38</ele>
        <time>2015-06-13T12:33:06Z</time>
      </trkpt>
      <trkpt lat="44.46556" lon="0.9643">
        <ele>123.19</ele>
        <time>2015-06-13T12:33:19Z</time>
      </trkpt>
      <trkpt lat="44.46535" lon="0.96473">
        <ele>126.07</ele>
        <time>2015-06-13T12:33:32Z</time>
      </trkpt>
      <trkpt lat="44.46514" lon="0.96507">
        <ele>128.95</ele>
        <time>2015-06-13T12:33:44Z</time>
      </trkpt>
      <trkpt lat="44.46482" lon="0.96554">
        <ele>132.8</ele>
        <time>2015-06-13T12:33:58Z</time>
      </trkpt>
      <trkpt lat="44.46466" lon="0.96587">
        <ele>133.76</ele>
        <time>2015-06-13T12:34:07Z</time>
      </trkpt>
      <trkpt lat="44.46455" lon="0.96645">
        <ele>130.88</ele>
        <time>2015-06-13T12:34:20Z</time>
      </trkpt>
      <trkpt lat="44.46446" lon="0.96689">
        <ele>130.88</ele>
        <time>2015-06-13T12:34:30Z</time>
      </trkpt>
      <trkpt lat="44.46434" lon="0.96747">
        <ele>128.47</ele>
        <time>2015-06-13T12:34:42Z</time>
      </trkpt>
      <trkpt lat="44.46426" lon="0.9679">
        <ele>129.43</ele>
        <time>2015-06-13T12:34:53Z</time>
      </trkpt>
      <trkpt lat="44.46423" lon="0.96857">
        <ele>136.16</ele>
        <time>2015-06-13T12:35:04Z</time>
      </trkpt>
      <trkpt lat="44.46428" lon="0.96908">
        <ele>140.01</ele>
        <time>2015-06-13T12:35:16Z</time>
      </trkpt>
      <trkpt lat="44.46427" lon="0.96955">
        <ele>139.53</ele>
        <time>2015-06-13T12:35:24Z</time>
      </trkpt>
      <trkpt lat="44.46408" lon="0.96977">
        <ele>138.09</ele>
        <time>2015-06-13T12:35:30Z</time>
      </trkpt>
      <trkpt lat="44.46374" lon="0.96973">
        <ele>139.05</ele>
        <time>2015-06-13T12:35:41Z</time>
      </trkpt>
      <trkpt lat="44.46368" lon="0.96975">
        <ele>139.53</ele>
        <time>2015-06-13T12:35:53Z</time>
      </trkpt>
      <trkpt lat="44.46359" lon="0.9698">
        <ele>140.01</ele>
        <time>2015-06-13T12:35:57Z</time>
      </trkpt>
      <trkpt lat="44.46349" lon="0.96996">
        <ele>140.49</ele>
        <time>2015-06-13T12:36:00Z</time>
      </trkpt>
      <trkpt lat="44.46326" lon="0.97059">
        <ele>138.09</ele>
        <time>2015-06-13T12:36:12Z</time>
      </trkpt>
      <trkpt lat="44.46314" lon="0.97099">
        <ele>136.16</ele>
        <time>2015-06-13T12:36:22Z</time>
      </trkpt>
      <trkpt lat="44.46304" lon="0.97122">
        <ele>133.76</ele>
        <time>2015-06-13T12:36:26Z</time>
      </trkpt>
      <trkpt lat="44.46299" lon="0.97179">
        <ele>129.92</ele>
        <time>2015-06-13T12:36:37Z</time>
      </trkpt>
      <trkpt lat="44.46281" lon="0.97207">
        <ele>129.43</ele>
        <time>2015-06-13T12:36:48Z</time>
      </trkpt>
      <trkpt lat="44.46248" lon="0.97208">
        <ele>129.92</ele>
        <time>2015-06-13T12:37:01Z</time>
      </trkpt>
      <trkpt lat="44.46205" lon="0.97205">
        <ele>132.32</ele>
        <time>2015-06-13T12:37:16Z</time>
      </trkpt>
      <trkpt lat="44.46173" lon="0.97236">
        <ele>136.16</ele>
        <time>2015-06-13T12:37:30Z</time>
      </trkpt>
      <trkpt lat="44.46141" lon="0.97269">
        <ele>138.57</ele>
        <time>2015-06-13T12:37:44Z</time>
      </trkpt>
      <trkpt lat="44.4611" lon="0.97296">
        <ele>140.97</ele>
        <time>2015-06-13T12:37:58Z</time>
      </trkpt>
      <trkpt lat="44.46083" lon="0.97324">
        <ele>142.89</ele>
        <time>2015-06-13T12:38:10Z</time>
      </trkpt>
      <trkpt lat="44.46054" lon="0.97353">
        <ele>145.78</ele>
        <time>2015-06-13T12:38:23Z</time>
      </trkpt>
      <trkpt lat="44.46023" lon="0.97381">
        <ele>148.18</ele>
        <time>2015-06-13T12:38:37Z</time>
      </trkpt>
      <trkpt lat="44.46006" lon="0.97403">
        <ele>150.1</ele>
        <time>2015-06-13T12:38:47Z</time>
      </trkpt>
      <trkpt lat="44.46009" lon="0.9741">
        <ele>151.06</ele>
        <time>2015-06-13T12:38:51Z</time>
      </trkpt>
      <trkpt lat="44.46013" lon="0.97416">
        <ele>152.99</ele>
        <time>2015-06-13T12:39:04Z</time>
      </trkpt>
      <trkpt lat="44.46013" lon="0.97418">
        <ele>152.99</ele>
        <time>2015-06-13T12:39:26Z</time>
      </trkpt>
      <trkpt lat="44.46013" lon="0.97418">
        <ele>153.95</ele>
        <time>2015-06-13T12:39:52Z</time>
      </trkpt>
      <trkpt lat="44.46014" lon="0.97419">
        <ele>154.43</ele>
        <time>2015-06-13T12:40:14Z</time>
      </trkpt>
      <trkpt lat="44.46014" lon="0.97418">
        <ele>153.95</ele>
        <time>2015-06-13T12:40:37Z</time>
      </trkpt>
      <trkpt lat="44.46014" lon="0.97417">
        <ele>154.43</ele>
        <time>2015-06-13T12:41:07Z</time>
      </trkpt>
      <trkpt lat="44.46021" lon="0.97426">
        <ele>153.95</ele>
        <time>2015-06-13T12:41:21Z</time>
      </trkpt>
      <trkpt lat="44.46024" lon="0.9743">
        <ele>153.95</ele>
        <time>2015-06-13T12:41:22Z</time>
      </trkpt>
      <trkpt lat="44.46027" lon="0.97435">
        <ele>153.95</ele>
        <time>2015-06-13T12:41:23Z</time>
      </trkpt>
      <trkpt lat="44.46031" lon="0.9744">
        <ele>153.47</ele>
        <time>2015-06-13T12:41:24Z</time>
      </trkpt>
      <trkpt lat="44.46064" lon="0.97486">
        <ele>152.03</ele>
        <time>2015-06-13T12:41:32Z</time>
      </trkpt>
      <trkpt lat="44.46101" lon="0.97537">
        <ele>156.35</ele>
        <time>2015-06-13T12:41:45Z</time>
      </trkpt>
      <trkpt lat="44.46118" lon="0.97567">
        <ele>155.39</ele>
        <time>2015-06-13T12:41:52Z</time>
      </trkpt>
      <trkpt lat="44.46127" lon="0.97603">
        <ele>153.47</ele>
        <time>2015-06-13T12:41:57Z</time>
      </trkpt>
      <trkpt lat="44.46128" lon="0.97612">
        <ele>152.99</ele>
        <time>2015-06-13T12:41:58Z</time>
      </trkpt>
      <trkpt lat="44.46131" lon="0.97642">
        <ele>149.62</ele>
        <time>2015-06-13T12:42:01Z</time>
      </trkpt>
      <trkpt lat="44.46132" lon="0.97651">
        <ele>148.66</ele>
        <time>2015-06-13T12:42:02Z</time>
      </trkpt>
      <trkpt lat="44.46135" lon="0.9766">
        <ele>147.7</ele>
        <time>2015-06-13T12:42:03Z</time>
      </trkpt>
      <trkpt lat="44.46138" lon="0.9767">
        <ele>146.74</ele>
        <time>2015-06-13T12:42:04Z</time>
      </trkpt>
      <trkpt lat="44.46142" lon="0.9768">
        <ele>145.78</ele>
        <time>2015-06-13T12:42:05Z</time>
      </trkpt>
      <trkpt lat="44.46149" lon="0.97698">
        <ele>144.34</ele>
        <time>2015-06-13T12:42:07Z</time>
      </trkpt>
      <trkpt lat="44.46153" lon="0.97706">
        <ele>144.34</ele>
        <time>2015-06-13T12:42:08Z</time>
      </trkpt>
      <trkpt lat="44.46162" lon="0.97718">
        <ele>143.37</ele>
        <time>2015-06-13T12:42:10Z</time>
      </trkpt>
      <trkpt lat="44.46181" lon="0.9774">
        <ele>142.89</ele>
        <time>2015-06-13T12:42:14Z</time>
      </trkpt>
      <trkpt lat="44.46184" lon="0.97748">
        <ele>142.89</ele>
        <time>2015-06-13T12:42:15Z</time>
      </trkpt>
      <trkpt lat="44.46187" lon="0.97755">
        <ele>142.89</ele>
        <time>2015-06-13T12:42:16Z</time>
      </trkpt>
      <trkpt lat="44.46193" lon="0.97772">
        <ele>142.89</ele>
        <time>2015-06-13T12:42:18Z</time>
      </trkpt>
      <trkpt lat="44.46197" lon="0.9779">
        <ele>142.41</ele>
        <time>2015-06-13T12:42:20Z</time>
      </trkpt>
      <trkpt lat="44.46198" lon="0.978">
        <ele>141.45</ele>
        <time>2015-06-13T12:42:21Z</time>
      </trkpt>
      <trkpt lat="44.46213" lon="0.9792">
        <ele>129.92</ele>
        <time>2015-06-13T12:42:30Z</time>
      </trkpt>
      <trkpt lat="44.46217" lon="0.97934">
        <ele>128.95</ele>
        <time>2015-06-13T12:42:31Z</time>
      </trkpt>
      <trkpt lat="44.46222" lon="0.97948">
        <ele>127.99</ele>
        <time>2015-06-13T12:42:32Z</time>
      </trkpt>
      <trkpt lat="44.46228" lon="0.9796">
        <ele>127.51</ele>
        <time>2015-06-13T12:42:33Z</time>
      </trkpt>
      <trkpt lat="44.46235" lon="0.9797">
        <ele>126.55</ele>
        <time>2015-06-13T12:42:34Z</time>
      </trkpt>
      <trkpt lat="44.46242" lon="0.97977">
        <ele>126.55</ele>
        <time>2015-06-13T12:42:35Z</time>
      </trkpt>
      <trkpt lat="44.4625" lon="0.97981">
        <ele>126.07</ele>
        <time>2015-06-13T12:42:36Z</time>
      </trkpt>
      <trkpt lat="44.46258" lon="0.97981">
        <ele>126.07</ele>
        <time>2015-06-13T12:42:37Z</time>
      </trkpt>
      <trkpt lat="44.46265" lon="0.97981">
        <ele>125.59</ele>
        <time>2015-06-13T12:42:38Z</time>
      </trkpt>
      <trkpt lat="44.46307" lon="0.97981">
        <ele>125.59</ele>
        <time>2015-06-13T12:42:44Z</time>
      </trkpt>
      <trkpt lat="44.46339" lon="0.97992">
        <ele>127.03</ele>
        <time>2015-06-13T12:42:50Z</time>
      </trkpt>
      <trkpt lat="44.46357" lon="0.98003">
        <ele>128.47</ele>
        <time>2015-06-13T12:42:54Z</time>
      </trkpt>
      <trkpt lat="44.46397" lon="0.98049">
        <ele>130.4</ele>
        <time>2015-06-13T12:43:04Z</time>
      </trkpt>
      <trkpt lat="44.46427" lon="0.98074">
        <ele>135.2</ele>
        <time>2015-06-13T12:43:15Z</time>
      </trkpt>
      <trkpt lat="44.46464" lon="0.98105">
        <ele>143.85</ele>
        <time>2015-06-13T12:43:30Z</time>
      </trkpt>
      <trkpt lat="44.46482" lon="0.9812">
        <ele>146.74</ele>
        <time>2015-06-13T12:43:39Z</time>
      </trkpt>
      <trkpt lat="44.46485" lon="0.98117">
        <ele>146.26</ele>
        <time>2015-06-13T12:43:48Z</time>
      </trkpt>
      <trkpt lat="44.46484" lon="0.98118">
        <ele>146.74</ele>
        <time>2015-06-13T12:44:02Z</time>
      </trkpt>
      <trkpt lat="44.46484" lon="0.98118">
        <ele>145.78</ele>
        <time>2015-06-13T12:44:18Z</time>
      </trkpt>
      <trkpt lat="44.46484" lon="0.98117">
        <ele>145.3</ele>
        <time>2015-06-13T12:44:37Z</time>
      </trkpt>
      <trkpt lat="44.46484" lon="0.98118">
        <ele>144.82</ele>
        <time>2015-06-13T12:45:01Z</time>
      </trkpt>
      <trkpt lat="44.46492" lon="0.98123">
        <ele>144.82</ele>
        <time>2015-06-13T12:45:07Z</time>
      </trkpt>
      <trkpt lat="44.46538" lon="0.98167">
        <ele>140.49</ele>
        <time>2015-06-13T12:45:18Z</time>
      </trkpt>
      <trkpt lat="44.46625" lon="0.98235">
        <ele>125.59</ele>
        <time>2015-06-13T12:45:29Z</time>
      </trkpt>
      <trkpt lat="44.46673" lon="0.98285">
        <ele>121.74</ele>
        <time>2015-06-13T12:45:35Z</time>
      </trkpt>
      <trkpt lat="44.46691" lon="0.98296">
        <ele>123.19</ele>
        <time>2015-06-13T12:45:38Z</time>
      </trkpt>
      <trkpt lat="44.46699" lon="0.98298">
        <ele>124.63</ele>
        <time>2015-06-13T12:45:41Z</time>
      </trkpt>
      <trkpt lat="44.46703" lon="0.98301">
        <ele>125.59</ele>
        <time>2015-06-13T12:45:44Z</time>
      </trkpt>
      <trkpt lat="44.46729" lon="0.98313">
        <ele>131.36</ele>
        <time>2015-06-13T12:45:58Z</time>
      </trkpt>
      <trkpt lat="44.46755" lon="0.98327">
        <ele>136.16</ele>
        <time>2015-06-13T12:46:14Z</time>
      </trkpt>
      <trkpt lat="44.46762" lon="0.98332">
        <ele>137.13</ele>
        <time>2015-06-13T12:46:19Z</time>
      </trkpt>
      <trkpt lat="44.46763" lon="0.9834">
        <ele>138.09</ele>
        <time>2015-06-13T12:46:31Z</time>
      </trkpt>
      <trkpt lat="44.46763" lon="0.9834">
        <ele>138.09</ele>
        <time>2015-06-13T12:46:43Z</time>
      </trkpt>
      <trkpt lat="44.46797" lon="0.98356">
        <ele>140.01</ele>
        <time>2015-06-13T12:46:55Z</time>
      </trkpt>
      <trkpt lat="44.46802" lon="0.9836">
        <ele>139.05</ele>
        <time>2015-06-13T12:46:56Z</time>
      </trkpt>
      <trkpt lat="44.46808" lon="0.98366">
        <ele>138.57</ele>
        <time>2015-06-13T12:46:57Z</time>
      </trkpt>
      <trkpt lat="44.46814" lon="0.98372">
        <ele>138.09</ele>
        <time>2015-06-13T12:46:58Z</time>
      </trkpt>
      <trkpt lat="44.46855" lon="0.9842">
        <ele>133.76</ele>
        <time>2015-06-13T12:47:05Z</time>
      </trkpt>
      <trkpt lat="44.46859" lon="0.98426">
        <ele>133.28</ele>
        <time>2015-06-13T12:47:06Z</time>
      </trkpt>
      <trkpt lat="44.46862" lon="0.98434">
        <ele>132.8</ele>
        <time>2015-06-13T12:47:07Z</time>
      </trkpt>
      <trkpt lat="44.46864" lon="0.98441">
        <ele>132.8</ele>
        <time>2015-06-13T12:47:08Z</time>
      </trkpt>
      <trkpt lat="44.46864" lon="0.98447">
        <ele>132.8</ele>
        <time>2015-06-13T12:47:09Z</time>
      </trkpt>
      <trkpt lat="44.46865" lon="0.98453">
        <ele>132.8</ele>
        <time>2015-06-13T12:47:10Z</time>
      </trkpt>
      <trkpt lat="44.46864" lon="0.98458">
        <ele>132.8</ele>
        <time>2015-06-13T12:47:11Z</time>
      </trkpt>
      <trkpt lat="44.46863" lon="0.98462">
        <ele>132.8</ele>
        <time>2015-06-13T12:47:12Z</time>
      </trkpt>
      <trkpt lat="44.46859" lon="0.9848">
        <ele>133.76</ele>
        <time>2015-06-13T12:47:17Z</time>
      </trkpt>
      <trkpt lat="44.46859" lon="0.98483">
        <ele>134.24</ele>
        <time>2015-06-13T12:47:18Z</time>
      </trkpt>
      <trkpt lat="44.46855" lon="0.98524">
        <ele>135.2</ele>
        <time>2015-06-13T12:47:31Z</time>
      </trkpt>
      <trkpt lat="44.4685" lon="0.98569">
        <ele>137.61</ele>
        <time>2015-06-13T12:47:45Z</time>
      </trkpt>
      <trkpt lat="44.46858" lon="0.98626">
        <ele>142.41</ele>
        <time>2015-06-13T12:47:59Z</time>
      </trkpt>
      <trkpt lat="44.46871" lon="0.98683">
        <ele>141.45</ele>
        <time>2015-06-13T12:48:12Z</time>
      </trkpt>
      <trkpt lat="44.46891" lon="0.98754">
        <ele>140.97</ele>
        <time>2015-06-13T12:48:23Z</time>
      </trkpt>
      <trkpt lat="44.46907" lon="0.9882">
        <ele>140.01</ele>
        <time>2015-06-13T12:48:30Z</time>
      </trkpt>
      <trkpt lat="44.46935" lon="0.98885">
        <ele>137.61</ele>
        <time>2015-06-13T12:48:37Z</time>
      </trkpt>
      <trkpt lat="44.46952" lon="0.9898">
        <ele>137.61</ele>
        <time>2015-06-13T12:48:49Z</time>
      </trkpt>
      <trkpt lat="44.46956" lon="0.99009">
        <ele>137.61</ele>
        <time>2015-06-13T12:48:53Z</time>
      </trkpt>
      <trkpt lat="44.4697" lon="0.99104">
        <ele>136.16</ele>
        <time>2015-06-13T12:49:06Z</time>
      </trkpt>
      <trkpt lat="44.46981" lon="0.9917">
        <ele>133.76</ele>
        <time>2015-06-13T12:49:15Z</time>
      </trkpt>
      <trkpt lat="44.46984" lon="0.99217">
        <ele>131.84</ele>
        <time>2015-06-13T12:49:21Z</time>
      </trkpt>
      <trkpt lat="44.46982" lon="0.99234">
        <ele>130.88</ele>
        <time>2015-06-13T12:49:23Z</time>
      </trkpt>
      <trkpt lat="44.46985" lon="0.99342">
        <ele>128.47</ele>
        <time>2015-06-13T12:49:37Z</time>
      </trkpt>
      <trkpt lat="44.46986" lon="0.99363">
        <ele>128.95</ele>
        <time>2015-06-13T12:49:40Z</time>
      </trkpt>
      <trkpt lat="44.46985" lon="0.9939">
        <ele>129.43</ele>
        <time>2015-06-13T12:49:44Z</time>
      </trkpt>
      <trkpt lat="44.46966" lon="0.99463">
        <ele>131.84</ele>
        <time>2015-06-13T12:49:59Z</time>
      </trkpt>
      <trkpt lat="44.46949" lon="0.99515">
        <ele>131.36</ele>
        <time>2015-06-13T12:50:12Z</time>
      </trkpt>
      <trkpt lat="44.46942" lon="0.99549">
        <ele>132.32</ele>
        <time>2015-06-13T12:50:25Z</time>
      </trkpt>
      <trkpt lat="44.46942" lon="0.99554">
        <ele>132.32</ele>
        <time>2015-06-13T12:50:50Z</time>
      </trkpt>
      <trkpt lat="44.46945" lon="0.99562">
        <ele>131.36</ele>
        <time>2015-06-13T12:51:08Z</time>
      </trkpt>
      <trkpt lat="44.46945" lon="0.99563">
        <ele>130.88</ele>
        <time>2015-06-13T12:51:23Z</time>
      </trkpt>
      <trkpt lat="44.46944" lon="0.99563">
        <ele>129.92</ele>
        <time>2015-06-13T12:51:48Z</time>
      </trkpt>
      <trkpt lat="44.46944" lon="0.99548">
        <ele>129.43</ele>
        <time>2015-06-13T12:52:03Z</time>
      </trkpt>
      <trkpt lat="44.4694" lon="0.99548">
        <ele>129.43</ele>
        <time>2015-06-13T12:52:33Z</time>
      </trkpt>
      <trkpt lat="44.46942" lon="0.99548">
        <ele>130.4</ele>
        <time>2015-06-13T12:53:07Z</time>
      </trkpt>
      <trkpt lat="44.46943" lon="0.99547">
        <ele>130.4</ele>
        <time>2015-06-13T12:53:46Z</time>
      </trkpt>
      <trkpt lat="44.46942" lon="0.99546">
        <ele>129.92</ele>
        <time>2015-06-13T12:54:25Z</time>
      </trkpt>
      <trkpt lat="44.46942" lon="0.99545">
        <ele>129.92</ele>
        <time>2015-06-13T12:55:05Z</time>
      </trkpt>
      <trkpt lat="44.46942" lon="0.99544">
        <ele>129.92</ele>
        <time>2015-06-13T12:55:34Z</time>
      </trkpt>
      <trkpt lat="44.46942" lon="0.99545">
        <ele>129.43</ele>
        <time>2015-06-13T12:56:19Z</time>
      </trkpt>
      <trkpt lat="44.46943" lon="0.99545">
        <ele>128.95</ele>
        <time>2015-06-13T12:57:11Z</time>
      </trkpt>
      <trkpt lat="44.46945" lon="0.99547">
        <ele>128.95</ele>
        <time>2015-06-13T12:57:54Z</time>
      </trkpt>
      <trkpt lat="44.46944" lon="0.99547">
        <ele>128.95</ele>
        <time>2015-06-13T12:58:33Z</time>
      </trkpt>
      <trkpt lat="44.46943" lon="0.99546">
        <ele>128.47</ele>
        <time>2015-06-13T12:59:11Z</time>
      </trkpt>
      <trkpt lat="44.46943" lon="0.99545">
        <ele>128.95</ele>
        <time>2015-06-13T12:59:52Z</time>
      </trkpt>
      <trkpt lat="44.46944" lon="0.99545">
        <ele>128.95</ele>
        <time>2015-06-13T13:00:30Z</time>
      </trkpt>
      <trkpt lat="44.46941" lon="0.99545">
        <ele>129.43</ele>
        <time>2015-06-13T13:01:13Z</time>
      </trkpt>
      <trkpt lat="44.46941" lon="0.99547">
        <ele>129.43</ele>
        <time>2015-06-13T13:01:46Z</time>
      </trkpt>
      <trkpt lat="44.46942" lon="0.99546">
        <ele>129.43</ele>
        <time>2015-06-13T13:02:13Z</time>
      </trkpt>
      <trkpt lat="44.46942" lon="0.99544">
        <ele>131.36</ele>
        <time>2015-06-13T13:02:48Z</time>
      </trkpt>
      <trkpt lat="44.46941" lon="0.99546">
        <ele>130.88</ele>
        <time>2015-06-13T13:03:25Z</time>
      </trkpt>
      <trkpt lat="44.46943" lon="0.9955">
        <ele>131.36</ele>
        <time>2015-06-13T13:04:10Z</time>
      </trkpt>
      <trkpt lat="44.46942" lon="0.99548">
        <ele>132.32</ele>
        <time>2015-06-13T13:04:45Z</time>
      </trkpt>
      <trkpt lat="44.46941" lon="0.99548">
        <ele>133.76</ele>
        <time>2015-06-13T13:05:24Z</time>
      </trkpt>
      <trkpt lat="44.46941" lon="0.99545">
        <ele>134.72</ele>
        <time>2015-06-13T13:06:08Z</time>
      </trkpt>
      <trkpt lat="44.46943" lon="0.99547">
        <ele>134.24</ele>
        <time>2015-06-13T13:06:56Z</time>
      </trkpt>
      <trkpt lat="44.46943" lon="0.99551">
        <ele>133.28</ele>
        <time>2015-06-13T13:07:19Z</time>
      </trkpt>
      <trkpt lat="44.46943" lon="0.99552">
        <ele>133.28</ele>
        <time>2015-06-13T13:07:23Z</time>
      </trkpt>
      <trkpt lat="44.46948" lon="0.99566">
        <ele>132.8</ele>
        <time>2015-06-13T13:07:29Z</time>
      </trkpt>
      <trkpt lat="44.46946" lon="0.9957">
        <ele>132.8</ele>
        <time>2015-06-13T13:07:30Z</time>
      </trkpt>
      <trkpt lat="44.46945" lon="0.99573">
        <ele>132.8</ele>
        <time>2015-06-13T13:07:31Z</time>
      </trkpt>
      <trkpt lat="44.46943" lon="0.99576">
        <ele>132.8</ele>
        <time>2015-06-13T13:07:32Z</time>
      </trkpt>
      <trkpt lat="44.46941" lon="0.99578">
        <ele>132.32</ele>
        <time>2015-06-13T13:07:33Z</time>
      </trkpt>
      <trkpt lat="44.4694" lon="0.99581">
        <ele>132.32</ele>
        <time>2015-06-13T13:07:34Z</time>
      </trkpt>
      <trkpt lat="44.46938" lon="0.99585">
        <ele>132.32</ele>
        <time>2015-06-13T13:07:35Z</time>
      </trkpt>
      <trkpt lat="44.46925" lon="0.99646">
        <ele>133.28</ele>
        <time>2015-06-13T13:07:50Z</time>
      </trkpt>
      <trkpt lat="44.46914" lon="0.99714">
        <ele>134.72</ele>
        <time>2015-06-13T13:08:05Z</time>
      </trkpt>
      <trkpt lat="44.46897" lon="0.99799">
        <ele>133.76</ele>
        <time>2015-06-13T13:08:22Z</time>
      </trkpt>
      <trkpt lat="44.46882" lon="0.99896">
        <ele>134.24</ele>
        <time>2015-06-13T13:08:40Z</time>
      </trkpt>
      <trkpt lat="44.46878" lon="0.99924">
        <ele>133.28</ele>
        <time>2015-06-13T13:08:44Z</time>
      </trkpt>
      <trkpt lat="44.46877" lon="0.99946">
        <ele>132.8</ele>
        <time>2015-06-13T13:08:47Z</time>
      </trkpt>
      <trkpt lat="44.46879" lon="0.99971">
        <ele>132.8</ele>
        <time>2015-06-13T13:08:51Z</time>
      </trkpt>
      <trkpt lat="44.4688" lon="0.99977">
        <ele>132.8</ele>
        <time>2015-06-13T13:08:52Z</time>
      </trkpt>
      <trkpt lat="44.46891" lon="1.00023">
        <ele>133.76</ele>
        <time>2015-06-13T13:09:01Z</time>
      </trkpt>
      <trkpt lat="44.46913" lon="1.00071">
        <ele>135.2</ele>
        <time>2015-06-13T13:09:12Z</time>
      </trkpt>
      <trkpt lat="44.46917" lon="1.00125">
        <ele>136.16</ele>
        <time>2015-06-13T13:09:25Z</time>
      </trkpt>
      <trkpt lat="44.4691" lon="1.00173">
        <ele>137.13</ele>
        <time>2015-06-13T13:09:39Z</time>
      </trkpt>
      <trkpt lat="44.46904" lon="1.00221">
        <ele>136.16</ele>
        <time>2015-06-13T13:09:54Z</time>
      </trkpt>
      <trkpt lat="44.46894" lon="1.00288">
        <ele>135.2</ele>
        <time>2015-06-13T13:10:14Z</time>
      </trkpt>
      <trkpt lat="44.46886" lon="1.0034">
        <ele>135.2</ele>
        <time>2015-06-13T13:10:31Z</time>
      </trkpt>
      <trkpt lat="44.46882" lon="1.0037">
        <ele>135.2</ele>
        <time>2015-06-13T13:10:42Z</time>
      </trkpt>
      <trkpt lat="44.46884" lon="1.00375">
        <ele>136.16</ele>
        <time>2015-06-13T13:10:54Z</time>
      </trkpt>
      <trkpt lat="44.46882" lon="1.00375">
        <ele>136.16</ele>
        <time>2015-06-13T13:11:17Z</time>
      </trkpt>
      <trkpt lat="44.46882" lon="1.00376">
        <ele>136.16</ele>
        <time>2015-06-13T13:11:25Z</time>
      </trkpt>
      <trkpt lat="44.46904" lon="1.00401">
        <ele>135.2</ele>
        <time>2015-06-13T13:11:35Z</time>
      </trkpt>
      <trkpt lat="44.46947" lon="1.00435">
        <ele>133.76</ele>
        <time>2015-06-13T13:11:48Z</time>
      </trkpt>
      <trkpt lat="44.46985" lon="1.00474">
        <ele>132.32</ele>
        <time>2015-06-13T13:12:02Z</time>
      </trkpt>
      <trkpt lat="44.46989" lon="1.00476">
        <ele>132.32</ele>
        <time>2015-06-13T13:12:04Z</time>
      </trkpt>
      <trkpt lat="44.46988" lon="1.00489">
        <ele>132.8</ele>
        <time>2015-06-13T13:12:14Z</time>
      </trkpt>
      <trkpt lat="44.46979" lon="1.00501">
        <ele>132.32</ele>
        <time>2015-06-13T13:12:28Z</time>
      </trkpt>
      <trkpt lat="44.46952" lon="1.00545">
        <ele>133.76</ele>
        <time>2015-06-13T13:12:47Z</time>
      </trkpt>
      <trkpt lat="44.46924" lon="1.00594">
        <ele>136.16</ele>
        <time>2015-06-13T13:13:07Z</time>
      </trkpt>
      <trkpt lat="44.46902" lon="1.0063">
        <ele>138.09</ele>
        <time>2015-06-13T13:13:25Z</time>
      </trkpt>
      <trkpt lat="44.46886" lon="1.00665">
        <ele>141.45</ele>
        <time>2015-06-13T13:13:42Z</time>
      </trkpt>
      <trkpt lat="44.4688" lon="1.0067">
        <ele>141.93</ele>
        <time>2015-06-13T13:13:47Z</time>
      </trkpt>
      <trkpt lat="44.46858" lon="1.00701">
        <ele>143.85</ele>
        <time>2015-06-13T13:14:04Z</time>
      </trkpt>
      <trkpt lat="44.46846" lon="1.00721">
        <ele>145.3</ele>
        <time>2015-06-13T13:14:17Z</time>
      </trkpt>
      <trkpt lat="44.46829" lon="1.00751">
        <ele>149.14</ele>
        <time>2015-06-13T13:14:35Z</time>
      </trkpt>
      <trkpt lat="44.46819" lon="1.00771">
        <ele>152.03</ele>
        <time>2015-06-13T13:14:51Z</time>
      </trkpt>
      <trkpt lat="44.4682" lon="1.00772">
        <ele>151.54</ele>
        <time>2015-06-13T13:15:13Z</time>
      </trkpt>
      <trkpt lat="44.4682" lon="1.00771">
        <ele>151.06</ele>
        <time>2015-06-13T13:15:24Z</time>
      </trkpt>
      <trkpt lat="44.46819" lon="1.00778">
        <ele>151.54</ele>
        <time>2015-06-13T13:15:30Z</time>
      </trkpt>
      <trkpt lat="44.46822" lon="1.00786">
        <ele>152.51</ele>
        <time>2015-06-13T13:15:45Z</time>
      </trkpt>
      <trkpt lat="44.46822" lon="1.00786">
        <ele>152.99</ele>
        <time>2015-06-13T13:16:07Z</time>
      </trkpt>
      <trkpt lat="44.46823" lon="1.00787">
        <ele>152.99</ele>
        <time>2015-06-13T13:16:22Z</time>
      </trkpt>
      <trkpt lat="44.46853" lon="1.00809">
        <ele>152.99</ele>
        <time>2015-06-13T13:16:35Z</time>
      </trkpt>
      <trkpt lat="44.46866" lon="1.00815">
        <ele>152.51</ele>
        <time>2015-06-13T13:16:38Z</time>
      </trkpt>
      <trkpt lat="44.4687" lon="1.00819">
        <ele>152.03</ele>
        <time>2015-06-13T13:16:39Z</time>
      </trkpt>
      <trkpt lat="44.46872" lon="1.00825">
        <ele>152.51</ele>
        <time>2015-06-13T13:16:40Z</time>
      </trkpt>
      <trkpt lat="44.46873" lon="1.0083">
        <ele>152.51</ele>
        <time>2015-06-13T13:16:41Z</time>
      </trkpt>
      <trkpt lat="44.46873" lon="1.00835">
        <ele>152.51</ele>
        <time>2015-06-13T13:16:42Z</time>
      </trkpt>
      <trkpt lat="44.46872" lon="1.00896">
        <ele>153.47</ele>
        <time>2015-06-13T13:16:55Z</time>
      </trkpt>
      <trkpt lat="44.46866" lon="1.00954">
        <ele>153.95</ele>
        <time>2015-06-13T13:17:07Z</time>
      </trkpt>
      <trkpt lat="44.46853" lon="1.0101">
        <ele>156.83</ele>
        <time>2015-06-13T13:17:21Z</time>
      </trkpt>
      <trkpt lat="44.46855" lon="1.01041">
        <ele>160.68</ele>
        <time>2015-06-13T13:17:28Z</time>
      </trkpt>
      <trkpt lat="44.46857" lon="1.01044">
        <ele>161.16</ele>
        <time>2015-06-13T13:17:29Z</time>
      </trkpt>
      <trkpt lat="44.46859" lon="1.01048">
        <ele>161.64</ele>
        <time>2015-06-13T13:17:30Z</time>
      </trkpt>
      <trkpt lat="44.46862" lon="1.01051">
        <ele>162.12</ele>
        <time>2015-06-13T13:17:31Z</time>
      </trkpt>
      <trkpt lat="44.46866" lon="1.01054">
        <ele>162.6</ele>
        <time>2015-06-13T13:17:32Z</time>
      </trkpt>
      <trkpt lat="44.46869" lon="1.01058">
        <ele>163.08</ele>
        <time>2015-06-13T13:17:33Z</time>
      </trkpt>
      <trkpt lat="44.46874" lon="1.01062">
        <ele>163.56</ele>
        <time>2015-06-13T13:17:34Z</time>
      </trkpt>
      <trkpt lat="44.4689" lon="1.01077">
        <ele>160.68</ele>
        <time>2015-06-13T13:17:37Z</time>
      </trkpt>
      <trkpt lat="44.46895" lon="1.01084">
        <ele>159.72</ele>
        <time>2015-06-13T13:17:38Z</time>
      </trkpt>
      <trkpt lat="44.46901" lon="1.01091">
        <ele>158.27</ele>
        <time>2015-06-13T13:17:39Z</time>
      </trkpt>
      <trkpt lat="44.46932" lon="1.01139">
        <ele>151.54</ele>
        <time>2015-06-13T13:17:45Z</time>
      </trkpt>
      <trkpt lat="44.46938" lon="1.01144">
        <ele>150.58</ele>
        <time>2015-06-13T13:17:46Z</time>
      </trkpt>
      <trkpt lat="44.46943" lon="1.01146">
        <ele>149.62</ele>
        <time>2015-06-13T13:17:47Z</time>
      </trkpt>
      <trkpt lat="44.46947" lon="1.01148">
        <ele>148.18</ele>
        <time>2015-06-13T13:17:48Z</time>
      </trkpt>
      <trkpt lat="44.4695" lon="1.01149">
        <ele>147.22</ele>
        <time>2015-06-13T13:17:49Z</time>
      </trkpt>
      <trkpt lat="44.46954" lon="1.01154">
        <ele>142.89</ele>
        <time>2015-06-13T13:17:58Z</time>
      </trkpt>
      <trkpt lat="44.46966" lon="1.01166">
        <ele>140.49</ele>
        <time>2015-06-13T13:18:08Z</time>
      </trkpt>
      <trkpt lat="44.46999" lon="1.01209">
        <ele>137.13</ele>
        <time>2015-06-13T13:18:15Z</time>
      </trkpt>
      <trkpt lat="44.47004" lon="1.01213">
        <ele>136.64</ele>
        <time>2015-06-13T13:18:16Z</time>
      </trkpt>
      <trkpt lat="44.4701" lon="1.01215">
        <ele>135.68</ele>
        <time>2015-06-13T13:18:17Z</time>
      </trkpt>
      <trkpt lat="44.47023" lon="1.01222">
        <ele>134.72</ele>
        <time>2015-06-13T13:18:20Z</time>
      </trkpt>
      <trkpt lat="44.47025" lon="1.01227">
        <ele>134.72</ele>
        <time>2015-06-13T13:18:21Z</time>
      </trkpt>
      <trkpt lat="44.47024" lon="1.01232">
        <ele>134.72</ele>
        <time>2015-06-13T13:18:22Z</time>
      </trkpt>
      <trkpt lat="44.47001" lon="1.01298">
        <ele>134.24</ele>
        <time>2015-06-13T13:18:36Z</time>
      </trkpt>
      <trkpt lat="44.46986" lon="1.01343">
        <ele>134.72</ele>
        <time>2015-06-13T13:18:47Z</time>
      </trkpt>
      <trkpt lat="44.4697" lon="1.01385">
        <ele>137.61</ele>
        <time>2015-06-13T13:18:59Z</time>
      </trkpt>
      <trkpt lat="44.4695" lon="1.01427">
        <ele>140.49</ele>
        <time>2015-06-13T13:19:10Z</time>
      </trkpt>
      <trkpt lat="44.46926" lon="1.01469">
        <ele>142.89</ele>
        <time>2015-06-13T13:19:21Z</time>
      </trkpt>
      <trkpt lat="44.46892" lon="1.01539">
        <ele>142.41</ele>
        <time>2015-06-13T13:19:36Z</time>
      </trkpt>
      <trkpt lat="44.46891" lon="1.01545">
        <ele>142.41</ele>
        <time>2015-06-13T13:19:37Z</time>
      </trkpt>
      <trkpt lat="44.46847" lon="1.01618">
        <ele>138.09</ele>
        <time>2015-06-13T13:19:48Z</time>
      </trkpt>
      <trkpt lat="44.46789" lon="1.01698">
        <ele>133.28</ele>
        <time>2015-06-13T13:19:59Z</time>
      </trkpt>
      <trkpt lat="44.46758" lon="1.01723">
        <ele>129.92</ele>
        <time>2015-06-13T13:20:05Z</time>
      </trkpt>
      <trkpt lat="44.46736" lon="1.0176">
        <ele>128.95</ele>
        <time>2015-06-13T13:20:13Z</time>
      </trkpt>
      <trkpt lat="44.46736" lon="1.01765">
        <ele>128.95</ele>
        <time>2015-06-13T13:20:14Z</time>
      </trkpt>
      <trkpt lat="44.46737" lon="1.01769">
        <ele>128.95</ele>
        <time>2015-06-13T13:20:15Z</time>
      </trkpt>
      <trkpt lat="44.46739" lon="1.01771">
        <ele>128.95</ele>
        <time>2015-06-13T13:20:16Z</time>
      </trkpt>
      <trkpt lat="44.4674" lon="1.01772">
        <ele>128.95</ele>
        <time>2015-06-13T13:20:17Z</time>
      </trkpt>
      <trkpt lat="44.46742" lon="1.01774">
        <ele>128.95</ele>
        <time>2015-06-13T13:20:18Z</time>
      </trkpt>
      <trkpt lat="44.46742" lon="1.01777">
        <ele>128.47</ele>
        <time>2015-06-13T13:20:24Z</time>
      </trkpt>
      <trkpt lat="44.46743" lon="1.01776">
        <ele>128.47</ele>
        <time>2015-06-13T13:20:25Z</time>
      </trkpt>
      <trkpt lat="44.46747" lon="1.01778">
        <ele>128.95</ele>
        <time>2015-06-13T13:20:37Z</time>
      </trkpt>
      <trkpt lat="44.46751" lon="1.01776">
        <ele>128.47</ele>
        <time>2015-06-13T13:20:47Z</time>
      </trkpt>
      <trkpt lat="44.46753" lon="1.01776">
        <ele>128.47</ele>
        <time>2015-06-13T13:20:48Z</time>
      </trkpt>
      <trkpt lat="44.46756" lon="1.01775">
        <ele>128.47</ele>
        <time>2015-06-13T13:20:49Z</time>
      </trkpt>
      <trkpt lat="44.46759" lon="1.01774">
        <ele>128.95</ele>
        <time>2015-06-13T13:20:50Z</time>
      </trkpt>
      <trkpt lat="44.46763" lon="1.01773">
        <ele>128.95</ele>
        <time>2015-06-13T13:20:51Z</time>
      </trkpt>
      <trkpt lat="44.46766" lon="1.01773">
        <ele>128.95</ele>
        <time>2015-06-13T13:20:52Z</time>
      </trkpt>
      <trkpt lat="44.4677" lon="1.01772">
        <ele>129.43</ele>
        <time>2015-06-13T13:20:53Z</time>
      </trkpt>
      <trkpt lat="44.46798" lon="1.01773">
        <ele>129.92</ele>
        <time>2015-06-13T13:21:03Z</time>
      </trkpt>
      <trkpt lat="44.46824" lon="1.01767">
        <ele>129.43</ele>
        <time>2015-06-13T13:21:11Z</time>
      </trkpt>
      <trkpt lat="44.46839" lon="1.01754">
        <ele>128.47</ele>
        <time>2015-06-13T13:21:15Z</time>
      </trkpt>
      <trkpt lat="44.46855" lon="1.01722">
        <ele>126.07</ele>
        <time>2015-06-13T13:21:20Z</time>
      </trkpt>
      <trkpt lat="44.46915" lon="1.01657">
        <ele>121.74</ele>
        <time>2015-06-13T13:21:32Z</time>
      </trkpt>
      <trkpt lat="44.46937" lon="1.01642">
        <ele>121.26</ele>
        <time>2015-06-13T13:21:36Z</time>
      </trkpt>
      <trkpt lat="44.47008" lon="1.01627">
        <ele>118.86</ele>
        <time>2015-06-13T13:21:48Z</time>
      </trkpt>
      <trkpt lat="44.47013" lon="1.01626">
        <ele>118.38</ele>
        <time>2015-06-13T13:21:49Z</time>
      </trkpt>
      <trkpt lat="44.47048" lon="1.01617">
        <ele>117.9</ele>
        <time>2015-06-13T13:21:56Z</time>
      </trkpt>
      <trkpt lat="44.47093" lon="1.01606">
        <ele>114.53</ele>
        <time>2015-06-13T13:22:06Z</time>
      </trkpt>
      <trkpt lat="44.47094" lon="1.01607">
        <ele>114.05</ele>
        <time>2015-06-13T13:22:07Z</time>
      </trkpt>
      <trkpt lat="44.47098" lon="1.01612">
        <ele>114.05</ele>
        <time>2015-06-13T13:22:19Z</time>
      </trkpt>
      <trkpt lat="44.47098" lon="1.01619">
        <ele>114.05</ele>
        <time>2015-06-13T13:22:23Z</time>
      </trkpt>
      <trkpt lat="44.47099" lon="1.01627">
        <ele>117.9</ele>
        <time>2015-06-13T13:22:28Z</time>
      </trkpt>
      <trkpt lat="44.47099" lon="1.01635">
        <ele>120.78</ele>
        <time>2015-06-13T13:22:32Z</time>
      </trkpt>
      <trkpt lat="44.471" lon="1.01646">
        <ele>124.63</ele>
        <time>2015-06-13T13:22:37Z</time>
      </trkpt>
      <trkpt lat="44.471" lon="1.01652">
        <ele>127.03</ele>
        <time>2015-06-13T13:22:40Z</time>
      </trkpt>
      <trkpt lat="44.47097" lon="1.01695">
        <ele>135.68</ele>
        <time>2015-06-13T13:22:56Z</time>
      </trkpt>
      <trkpt lat="44.47091" lon="1.01742">
        <ele>141.93</ele>
        <time>2015-06-13T13:23:11Z</time>
      </trkpt>
      <trkpt lat="44.47085" lon="1.01787">
        <ele>143.37</ele>
        <time>2015-06-13T13:23:23Z</time>
      </trkpt>
      <trkpt lat="44.47078" lon="1.01837">
        <ele>146.74</ele>
        <time>2015-06-13T13:23:37Z</time>
      </trkpt>
      <trkpt lat="44.47073" lon="1.01893">
        <ele>147.22</ele>
        <time>2015-06-13T13:23:50Z</time>
      </trkpt>
      <trkpt lat="44.47075" lon="1.01945">
        <ele>143.85</ele>
        <time>2015-06-13T13:24:01Z</time>
      </trkpt>
      <trkpt lat="44.47079" lon="1.01998">
        <ele>141.45</ele>
        <time>2015-06-13T13:24:13Z</time>
      </trkpt>
      <trkpt lat="44.47087" lon="1.02065">
        <ele>132.8</ele>
        <time>2015-06-13T13:24:26Z</time>
      </trkpt>
      <trkpt lat="44.47095" lon="1.02118">
        <ele>136.64</ele>
        <time>2015-06-13T13:24:39Z</time>
      </trkpt>
      <trkpt lat="44.47109" lon="1.0218">
        <ele>136.64</ele>
        <time>2015-06-13T13:24:55Z</time>
      </trkpt>
      <trkpt lat="44.47113" lon="1.02195">
        <ele>137.13</ele>
        <time>2015-06-13T13:24:59Z</time>
      </trkpt>
      <trkpt lat="44.47114" lon="1.02198">
        <ele>137.13</ele>
        <time>2015-06-13T13:25:00Z</time>
      </trkpt>
      <trkpt lat="44.4713" lon="1.02257">
        <ele>138.57</ele>
        <time>2015-06-13T13:25:15Z</time>
      </trkpt>
      <trkpt lat="44.47144" lon="1.0231">
        <ele>145.3</ele>
        <time>2015-06-13T13:25:29Z</time>
      </trkpt>
      <trkpt lat="44.47159" lon="1.02376">
        <ele>150.58</ele>
        <time>2015-06-13T13:25:47Z</time>
      </trkpt>
      <trkpt lat="44.47168" lon="1.02423">
        <ele>153.47</ele>
        <time>2015-06-13T13:25:59Z</time>
      </trkpt>
      <trkpt lat="44.47175" lon="1.02473">
        <ele>156.35</ele>
        <time>2015-06-13T13:26:11Z</time>
      </trkpt>
      <trkpt lat="44.47161" lon="1.02532">
        <ele>154.91</ele>
        <time>2015-06-13T13:26:25Z</time>
      </trkpt>
      <trkpt lat="44.47143" lon="1.0259">
        <ele>158.27</ele>
        <time>2015-06-13T13:26:39Z</time>
      </trkpt>
      <trkpt lat="44.47133" lon="1.02661">
        <ele>159.72</ele>
        <time>2015-06-13T13:26:53Z</time>
      </trkpt>
      <trkpt lat="44.47132" lon="1.02722">
        <ele>159.72</ele>
        <time>2015-06-13T13:27:04Z</time>
      </trkpt>
      <trkpt lat="44.47133" lon="1.02728">
        <ele>159.72</ele>
        <time>2015-06-13T13:27:05Z</time>
      </trkpt>
      <trkpt lat="44.47135" lon="1.02734">
        <ele>159.24</ele>
        <time>2015-06-13T13:27:06Z</time>
      </trkpt>
      <trkpt lat="44.47137" lon="1.0274">
        <ele>159.24</ele>
        <time>2015-06-13T13:27:07Z</time>
      </trkpt>
      <trkpt lat="44.47139" lon="1.02746">
        <ele>159.72</ele>
        <time>2015-06-13T13:27:08Z</time>
      </trkpt>
      <trkpt lat="44.47141" lon="1.02752">
        <ele>159.72</ele>
        <time>2015-06-13T13:27:09Z</time>
      </trkpt>
      <trkpt lat="44.47163" lon="1.02834">
        <ele>159.24</ele>
        <time>2015-06-13T13:27:24Z</time>
      </trkpt>
      <trkpt lat="44.47168" lon="1.02914">
        <ele>160.2</ele>
        <time>2015-06-13T13:27:38Z</time>
      </trkpt>
      <trkpt lat="44.47178" lon="1.03">
        <ele>161.16</ele>
        <time>2015-06-13T13:27:55Z</time>
      </trkpt>
      <trkpt lat="44.47168" lon="1.03063">
        <ele>163.56</ele>
        <time>2015-06-13T13:28:08Z</time>
      </trkpt>
      <trkpt lat="44.47163" lon="1.0311">
        <ele>163.56</ele>
        <time>2015-06-13T13:28:17Z</time>
      </trkpt>
      <trkpt lat="44.47176" lon="1.03213">
        <ele>165</ele>
        <time>2015-06-13T13:28:35Z</time>
      </trkpt>
      <trkpt lat="44.47172" lon="1.03253">
        <ele>170.29</ele>
        <time>2015-06-13T13:28:47Z</time>
      </trkpt>
      <trkpt lat="44.47169" lon="1.03261">
        <ele>173.17</ele>
        <time>2015-06-13T13:28:58Z</time>
      </trkpt>
      <trkpt lat="44.47168" lon="1.03275">
        <ele>176.54</ele>
        <time>2015-06-13T13:29:12Z</time>
      </trkpt>
      <trkpt lat="44.47169" lon="1.03283">
        <ele>179.42</ele>
        <time>2015-06-13T13:29:26Z</time>
      </trkpt>
      <trkpt lat="44.47169" lon="1.03292">
        <ele>180.87</ele>
        <time>2015-06-13T13:29:41Z</time>
      </trkpt>
      <trkpt lat="44.47169" lon="1.03304">
        <ele>183.27</ele>
        <time>2015-06-13T13:29:55Z</time>
      </trkpt>
      <trkpt lat="44.47172" lon="1.03315">
        <ele>185.67</ele>
        <time>2015-06-13T13:30:07Z</time>
      </trkpt>
      <trkpt lat="44.47174" lon="1.0333">
        <ele>186.15</ele>
        <time>2015-06-13T13:30:22Z</time>
      </trkpt>
      <trkpt lat="44.47177" lon="1.03347">
        <ele>188.56</ele>
        <time>2015-06-13T13:30:37Z</time>
      </trkpt>
      <trkpt lat="44.47178" lon="1.03364">
        <ele>189.52</ele>
        <time>2015-06-13T13:30:51Z</time>
      </trkpt>
      <trkpt lat="44.47179" lon="1.03385">
        <ele>190.48</ele>
        <time>2015-06-13T13:31:06Z</time>
      </trkpt>
      <trkpt lat="44.47182" lon="1.03394">
        <ele>192.4</ele>
        <time>2015-06-13T13:31:20Z</time>
      </trkpt>
      <trkpt lat="44.4719" lon="1.03421">
        <ele>195.28</ele>
        <time>2015-06-13T13:31:33Z</time>
      </trkpt>
      <trkpt lat="44.47197" lon="1.03452">
        <ele>195.77</ele>
        <time>2015-06-13T13:31:46Z</time>
      </trkpt>
      <trkpt lat="44.47203" lon="1.03495">
        <ele>196.73</ele>
        <time>2015-06-13T13:32:02Z</time>
      </trkpt>
      <trkpt lat="44.47203" lon="1.0353">
        <ele>202.98</ele>
        <time>2015-06-13T13:32:16Z</time>
      </trkpt>
      <trkpt lat="44.47203" lon="1.03543">
        <ele>205.38</ele>
        <time>2015-06-13T13:32:22Z</time>
      </trkpt>
      <trkpt lat="44.47201" lon="1.03551">
        <ele>205.86</ele>
        <time>2015-06-13T13:32:26Z</time>
      </trkpt>
      <trkpt lat="44.47197" lon="1.03582">
        <ele>209.22</ele>
        <time>2015-06-13T13:32:39Z</time>
      </trkpt>
      <trkpt lat="44.47193" lon="1.03592">
        <ele>209.7</ele>
        <time>2015-06-13T13:32:43Z</time>
      </trkpt>
      <trkpt lat="44.47191" lon="1.03602">
        <ele>210.67</ele>
        <time>2015-06-13T13:32:48Z</time>
      </trkpt>
      <trkpt lat="44.47186" lon="1.03624">
        <ele>215.95</ele>
        <time>2015-06-13T13:32:58Z</time>
      </trkpt>
      <trkpt lat="44.47186" lon="1.03631">
        <ele>217.4</ele>
        <time>2015-06-13T13:33:02Z</time>
      </trkpt>
      <trkpt lat="44.47185" lon="1.0364">
        <ele>218.84</ele>
        <time>2015-06-13T13:33:07Z</time>
      </trkpt>
      <trkpt lat="44.47183" lon="1.03664">
        <ele>220.76</ele>
        <time>2015-06-13T13:33:18Z</time>
      </trkpt>
      <trkpt lat="44.47179" lon="1.03674">
        <ele>220.76</ele>
        <time>2015-06-13T13:33:22Z</time>
      </trkpt>
      <trkpt lat="44.47168" lon="1.03709">
        <ele>223.16</ele>
        <time>2015-06-13T13:33:34Z</time>
      </trkpt>
      <trkpt lat="44.47168" lon="1.03711">
        <ele>223.64</ele>
        <time>2015-06-13T13:33:35Z</time>
      </trkpt>
      <trkpt lat="44.4716" lon="1.03742">
        <ele>226.05</ele>
        <time>2015-06-13T13:33:47Z</time>
      </trkpt>
      <trkpt lat="44.47159" lon="1.03752">
        <ele>227.01</ele>
        <time>2015-06-13T13:33:51Z</time>
      </trkpt>
      <trkpt lat="44.47157" lon="1.03763">
        <ele>227.01</ele>
        <time>2015-06-13T13:33:55Z</time>
      </trkpt>
      <trkpt lat="44.47146" lon="1.03789">
        <ele>227.97</ele>
        <time>2015-06-13T13:34:07Z</time>
      </trkpt>
      <trkpt lat="44.47141" lon="1.03796">
        <ele>229.41</ele>
        <time>2015-06-13T13:34:12Z</time>
      </trkpt>
      <trkpt lat="44.47136" lon="1.03817">
        <ele>224.12</ele>
        <time>2015-06-13T13:34:25Z</time>
      </trkpt>
      <trkpt lat="44.47134" lon="1.03822">
        <ele>222.2</ele>
        <time>2015-06-13T13:34:37Z</time>
      </trkpt>
      <trkpt lat="44.47133" lon="1.03824">
        <ele>222.2</ele>
        <time>2015-06-13T13:34:57Z</time>
      </trkpt>
      <trkpt lat="44.47132" lon="1.03826">
        <ele>221.24</ele>
        <time>2015-06-13T13:35:23Z</time>
      </trkpt>
      <trkpt lat="44.47132" lon="1.03826">
        <ele>219.8</ele>
        <time>2015-06-13T13:35:45Z</time>
      </trkpt>
      <trkpt lat="44.47132" lon="1.03826">
        <ele>219.32</ele>
        <time>2015-06-13T13:36:01Z</time>
      </trkpt>
      <trkpt lat="44.47132" lon="1.03826">
        <ele>219.32</ele>
        <time>2015-06-13T13:36:22Z</time>
      </trkpt>
      <trkpt lat="44.47132" lon="1.03826">
        <ele>218.84</ele>
        <time>2015-06-13T13:36:45Z</time>
      </trkpt>
      <trkpt lat="44.47132" lon="1.03827">
        <ele>218.36</ele>
        <time>2015-06-13T13:37:11Z</time>
      </trkpt>
      <trkpt lat="44.47132" lon="1.03828">
        <ele>218.36</ele>
        <time>2015-06-13T13:37:32Z</time>
      </trkpt>
      <trkpt lat="44.4713" lon="1.03834">
        <ele>218.36</ele>
        <time>2015-06-13T13:37:50Z</time>
      </trkpt>
      <trkpt lat="44.47117" lon="1.0386">
        <ele>218.84</ele>
        <time>2015-06-13T13:38:01Z</time>
      </trkpt>
      <trkpt lat="44.47097" lon="1.03914">
        <ele>219.32</ele>
        <time>2015-06-13T13:38:16Z</time>
      </trkpt>
      <trkpt lat="44.47069" lon="1.03981">
        <ele>219.8</ele>
        <time>2015-06-13T13:38:32Z</time>
      </trkpt>
      <trkpt lat="44.47055" lon="1.04021">
        <ele>220.28</ele>
        <time>2015-06-13T13:38:40Z</time>
      </trkpt>
      <trkpt lat="44.47028" lon="1.04106">
        <ele>221.72</ele>
        <time>2015-06-13T13:38:55Z</time>
      </trkpt>
      <trkpt lat="44.47011" lon="1.04161">
        <ele>222.68</ele>
        <time>2015-06-13T13:39:05Z</time>
      </trkpt>
      <trkpt lat="44.47006" lon="1.04177">
        <ele>222.2</ele>
        <time>2015-06-13T13:39:08Z</time>
      </trkpt>
      <trkpt lat="44.46981" lon="1.04227">
        <ele>223.16</ele>
        <time>2015-06-13T13:39:18Z</time>
      </trkpt>
      <trkpt lat="44.46933" lon="1.04327">
        <ele>222.68</ele>
        <time>2015-06-13T13:39:37Z</time>
      </trkpt>
      <trkpt lat="44.46899" lon="1.04388">
        <ele>223.64</ele>
        <time>2015-06-13T13:39:49Z</time>
      </trkpt>
      <trkpt lat="44.46838" lon="1.04441">
        <ele>221.24</ele>
        <time>2015-06-13T13:40:02Z</time>
      </trkpt>
      <trkpt lat="44.46833" lon="1.04446">
        <ele>221.24</ele>
        <time>2015-06-13T13:40:03Z</time>
      </trkpt>
      <trkpt lat="44.46808" lon="1.04479">
        <ele>219.32</ele>
        <time>2015-06-13T13:40:09Z</time>
      </trkpt>
      <trkpt lat="44.46805" lon="1.04485">
        <ele>219.32</ele>
        <time>2015-06-13T13:40:10Z</time>
      </trkpt>
      <trkpt lat="44.46803" lon="1.04491">
        <ele>219.32</ele>
        <time>2015-06-13T13:40:11Z</time>
      </trkpt>
      <trkpt lat="44.46802" lon="1.04498">
        <ele>219.32</ele>
        <time>2015-06-13T13:40:12Z</time>
      </trkpt>
      <trkpt lat="44.46802" lon="1.04504">
        <ele>219.32</ele>
        <time>2015-06-13T13:40:13Z</time>
      </trkpt>
      <trkpt lat="44.46801" lon="1.0451">
        <ele>218.84</ele>
        <time>2015-06-13T13:40:14Z</time>
      </trkpt>
      <trkpt lat="44.46799" lon="1.04531">
        <ele>218.84</ele>
        <time>2015-06-13T13:40:22Z</time>
      </trkpt>
      <trkpt lat="44.46801" lon="1.04529">
        <ele>218.84</ele>
        <time>2015-06-13T13:40:32Z</time>
      </trkpt>
      <trkpt lat="44.46801" lon="1.04528">
        <ele>219.8</ele>
        <time>2015-06-13T13:41:03Z</time>
      </trkpt>
      <trkpt lat="44.46801" lon="1.04528">
        <ele>220.28</ele>
        <time>2015-06-13T13:41:29Z</time>
      </trkpt>
      <trkpt lat="44.468" lon="1.04528">
        <ele>218.84</ele>
        <time>2015-06-13T13:42:03Z</time>
      </trkpt>
      <trkpt lat="44.46799" lon="1.04529">
        <ele>218.84</ele>
        <time>2015-06-13T13:42:39Z</time>
      </trkpt>
      <trkpt lat="44.46799" lon="1.04529">
        <ele>218.84</ele>
        <time>2015-06-13T13:43:13Z</time>
      </trkpt>
      <trkpt lat="44.46799" lon="1.04529">
        <ele>218.36</ele>
        <time>2015-06-13T13:43:43Z</time>
      </trkpt>
      <trkpt lat="44.46798" lon="1.04532">
        <ele>217.88</ele>
        <time>2015-06-13T13:43:53Z</time>
      </trkpt>
      <trkpt lat="44.46798" lon="1.04534">
        <ele>218.36</ele>
        <time>2015-06-13T13:44:13Z</time>
      </trkpt>
      <trkpt lat="44.46798" lon="1.04535">
        <ele>218.36</ele>
        <time>2015-06-13T13:44:14Z</time>
      </trkpt>
      <trkpt lat="44.46797" lon="1.04537">
        <ele>218.36</ele>
        <time>2015-06-13T13:44:15Z</time>
      </trkpt>
      <trkpt lat="44.46797" lon="1.04539">
        <ele>218.84</ele>
        <time>2015-06-13T13:44:16Z</time>
      </trkpt>
      <trkpt lat="44.46797" lon="1.04541">
        <ele>218.84</ele>
        <time>2015-06-13T13:44:17Z</time>
      </trkpt>
      <trkpt lat="44.46796" lon="1.04543">
        <ele>218.84</ele>
        <time>2015-06-13T13:44:18Z</time>
      </trkpt>
      <trkpt lat="44.46795" lon="1.04546">
        <ele>218.84</ele>
        <time>2015-06-13T13:44:19Z</time>
      </trkpt>
      <trkpt lat="44.46788" lon="1.04562">
        <ele>218.84</ele>
        <time>2015-06-13T13:44:25Z</time>
      </trkpt>
      <trkpt lat="44.46787" lon="1.04564">
        <ele>218.84</ele>
        <time>2015-06-13T13:44:26Z</time>
      </trkpt>
      <trkpt lat="44.46786" lon="1.04567">
        <ele>218.84</ele>
        <time>2015-06-13T13:44:27Z</time>
      </trkpt>
      <trkpt lat="44.46784" lon="1.0457">
        <ele>218.84</ele>
        <time>2015-06-13T13:44:28Z</time>
      </trkpt>
      <trkpt lat="44.46783" lon="1.04572">
        <ele>218.84</ele>
        <time>2015-06-13T13:44:29Z</time>
      </trkpt>
      <trkpt lat="44.46782" lon="1.04575">
        <ele>218.84</ele>
        <time>2015-06-13T13:44:30Z</time>
      </trkpt>
      <trkpt lat="44.46781" lon="1.04579">
        <ele>218.84</ele>
        <time>2015-06-13T13:44:31Z</time>
      </trkpt>
      <trkpt lat="44.46762" lon="1.04632">
        <ele>218.84</ele>
        <time>2015-06-13T13:44:46Z</time>
      </trkpt>
      <trkpt lat="44.46756" lon="1.04653">
        <ele>218.84</ele>
        <time>2015-06-13T13:44:52Z</time>
      </trkpt>
      <trkpt lat="44.46756" lon="1.04657">
        <ele>218.84</ele>
        <time>2015-06-13T13:44:53Z</time>
      </trkpt>
      <trkpt lat="44.46756" lon="1.0466">
        <ele>218.84</ele>
        <time>2015-06-13T13:44:54Z</time>
      </trkpt>
      <trkpt lat="44.46758" lon="1.04663">
        <ele>218.84</ele>
        <time>2015-06-13T13:44:55Z</time>
      </trkpt>
      <trkpt lat="44.46759" lon="1.04665">
        <ele>218.84</ele>
        <time>2015-06-13T13:44:56Z</time>
      </trkpt>
      <trkpt lat="44.46762" lon="1.04667">
        <ele>218.84</ele>
        <time>2015-06-13T13:44:57Z</time>
      </trkpt>
      <trkpt lat="44.46764" lon="1.04669">
        <ele>218.84</ele>
        <time>2015-06-13T13:44:58Z</time>
      </trkpt>
      <trkpt lat="44.46775" lon="1.04675">
        <ele>218.84</ele>
        <time>2015-06-13T13:45:03Z</time>
      </trkpt>
      <trkpt lat="44.46811" lon="1.04692">
        <ele>221.24</ele>
        <time>2015-06-13T13:45:18Z</time>
      </trkpt>
      <trkpt lat="44.46851" lon="1.04716">
        <ele>226.05</ele>
        <time>2015-06-13T13:45:34Z</time>
      </trkpt>
      <trkpt lat="44.46881" lon="1.04761">
        <ele>228.93</ele>
        <time>2015-06-13T13:45:47Z</time>
      </trkpt>
      <trkpt lat="44.46912" lon="1.0483">
        <ele>227.01</ele>
        <time>2015-06-13T13:46:03Z</time>
      </trkpt>
      <trkpt lat="44.46919" lon="1.04857">
        <ele>228.45</ele>
        <time>2015-06-13T13:46:12Z</time>
      </trkpt>
      <trkpt lat="44.46923" lon="1.04862">
        <ele>227.97</ele>
        <time>2015-06-13T13:46:16Z</time>
      </trkpt>
      <trkpt lat="44.46925" lon="1.04863">
        <ele>227.49</ele>
        <time>2015-06-13T13:46:18Z</time>
      </trkpt>
      <trkpt lat="44.46929" lon="1.04868">
        <ele>227.49</ele>
        <time>2015-06-13T13:46:21Z</time>
      </trkpt>
      <trkpt lat="44.46931" lon="1.0487">
        <ele>227.49</ele>
        <time>2015-06-13T13:46:22Z</time>
      </trkpt>
      <trkpt lat="44.46934" lon="1.04872">
        <ele>227.49</ele>
        <time>2015-06-13T13:46:23Z</time>
      </trkpt>
      <trkpt lat="44.46969" lon="1.049">
        <ele>227.49</ele>
        <time>2015-06-13T13:46:37Z</time>
      </trkpt>
      <trkpt lat="44.47009" lon="1.04932">
        <ele>227.01</ele>
        <time>2015-06-13T13:46:51Z</time>
      </trkpt>
      <trkpt lat="44.4706" lon="1.04977">
        <ele>228.45</ele>
        <time>2015-06-13T13:47:09Z</time>
      </trkpt>
      <trkpt lat="44.47114" lon="1.05022">
        <ele>226.05</ele>
        <time>2015-06-13T13:47:24Z</time>
      </trkpt>
      <trkpt lat="44.47142" lon="1.05045">
        <ele>224.12</ele>
        <time>2015-06-13T13:47:30Z</time>
      </trkpt>
      <trkpt lat="44.47188" lon="1.05083">
        <ele>225.09</ele>
        <time>2015-06-13T13:47:43Z</time>
      </trkpt>
      <trkpt lat="44.47187" lon="1.05098">
        <ele>226.05</ele>
        <time>2015-06-13T13:47:47Z</time>
      </trkpt>
      <trkpt lat="44.47154" lon="1.05154">
        <ele>231.33</ele>
        <time>2015-06-13T13:48:04Z</time>
      </trkpt>
      <trkpt lat="44.47124" lon="1.052">
        <ele>233.26</ele>
        <time>2015-06-13T13:48:19Z</time>
      </trkpt>
      <trkpt lat="44.47097" lon="1.05231">
        <ele>236.14</ele>
        <time>2015-06-13T13:48:32Z</time>
      </trkpt>
      <trkpt lat="44.4707" lon="1.05271">
        <ele>238.54</ele>
        <time>2015-06-13T13:48:45Z</time>
      </trkpt>
      <trkpt lat="44.47023" lon="1.05319">
        <ele>238.54</ele>
        <time>2015-06-13T13:49:01Z</time>
      </trkpt>
      <trkpt lat="44.4701" lon="1.05344">
        <ele>238.54</ele>
        <time>2015-06-13T13:49:06Z</time>
      </trkpt>
      <trkpt lat="44.46994" lon="1.05415">
        <ele>237.58</ele>
        <time>2015-06-13T13:49:20Z</time>
      </trkpt>
      <trkpt lat="44.46991" lon="1.05437">
        <ele>237.58</ele>
        <time>2015-06-13T13:49:25Z</time>
      </trkpt>
      <trkpt lat="44.4699" lon="1.05438">
        <ele>237.58</ele>
        <time>2015-06-13T13:49:26Z</time>
      </trkpt>
      <trkpt lat="44.46989" lon="1.05438">
        <ele>237.58</ele>
        <time>2015-06-13T13:49:27Z</time>
      </trkpt>
      <trkpt lat="44.46988" lon="1.05439">
        <ele>238.06</ele>
        <time>2015-06-13T13:49:28Z</time>
      </trkpt>
      <trkpt lat="44.46987" lon="1.05439">
        <ele>238.06</ele>
        <time>2015-06-13T13:49:29Z</time>
      </trkpt>
      <trkpt lat="44.46985" lon="1.0544">
        <ele>238.06</ele>
        <time>2015-06-13T13:49:30Z</time>
      </trkpt>
      <trkpt lat="44.46983" lon="1.0544">
        <ele>238.06</ele>
        <time>2015-06-13T13:49:31Z</time>
      </trkpt>
      <trkpt lat="44.46982" lon="1.05439">
        <ele>238.06</ele>
        <time>2015-06-13T13:49:32Z</time>
      </trkpt>
      <trkpt lat="44.4698" lon="1.05439">
        <ele>237.58</ele>
        <time>2015-06-13T13:49:33Z</time>
      </trkpt>
      <trkpt lat="44.46979" lon="1.05439">
        <ele>237.58</ele>
        <time>2015-06-13T13:49:34Z</time>
      </trkpt>
      <trkpt lat="44.46974" lon="1.05439">
        <ele>237.1</ele>
        <time>2015-06-13T13:49:47Z</time>
      </trkpt>
      <trkpt lat="44.46928" lon="1.05436">
        <ele>235.66</ele>
        <time>2015-06-13T13:49:58Z</time>
      </trkpt>
      <trkpt lat="44.46906" lon="1.05435">
        <ele>235.18</ele>
        <time>2015-06-13T13:50:02Z</time>
      </trkpt>
      <trkpt lat="44.4687" lon="1.05433">
        <ele>234.7</ele>
        <time>2015-06-13T13:50:09Z</time>
      </trkpt>
      <trkpt lat="44.46866" lon="1.05432">
        <ele>234.7</ele>
        <time>2015-06-13T13:50:10Z</time>
      </trkpt>
      <trkpt lat="44.46861" lon="1.05432">
        <ele>234.7</ele>
        <time>2015-06-13T13:50:11Z</time>
      </trkpt>
      <trkpt lat="44.46856" lon="1.05431">
        <ele>234.7</ele>
        <time>2015-06-13T13:50:12Z</time>
      </trkpt>
      <trkpt lat="44.46851" lon="1.05431">
        <ele>234.7</ele>
        <time>2015-06-13T13:50:13Z</time>
      </trkpt>
      <trkpt lat="44.46787" lon="1.0544">
        <ele>233.74</ele>
        <time>2015-06-13T13:50:25Z</time>
      </trkpt>
      <trkpt lat="44.46726" lon="1.0543">
        <ele>229.89</ele>
        <time>2015-06-13T13:50:36Z</time>
      </trkpt>
      <trkpt lat="44.46722" lon="1.05429">
        <ele>229.89</ele>
        <time>2015-06-13T13:50:37Z</time>
      </trkpt>
      <trkpt lat="44.46718" lon="1.05429">
        <ele>229.41</ele>
        <time>2015-06-13T13:50:38Z</time>
      </trkpt>
      <trkpt lat="44.46716" lon="1.05429">
        <ele>229.41</ele>
        <time>2015-06-13T13:50:39Z</time>
      </trkpt>
      <trkpt lat="44.46713" lon="1.0543">
        <ele>228.93</ele>
        <time>2015-06-13T13:50:40Z</time>
      </trkpt>
      <trkpt lat="44.46711" lon="1.05432">
        <ele>228.93</ele>
        <time>2015-06-13T13:50:41Z</time>
      </trkpt>
      <trkpt lat="44.46688" lon="1.05473">
        <ele>228.45</ele>
        <time>2015-06-13T13:50:51Z</time>
      </trkpt>
      <trkpt lat="44.46683" lon="1.05544">
        <ele>230.37</ele>
        <time>2015-06-13T13:51:04Z</time>
      </trkpt>
      <trkpt lat="44.46684" lon="1.05588">
        <ele>229.89</ele>
        <time>2015-06-13T13:51:11Z</time>
      </trkpt>
      <trkpt lat="44.46685" lon="1.05594">
        <ele>229.89</ele>
        <time>2015-06-13T13:51:12Z</time>
      </trkpt>
      <trkpt lat="44.46686" lon="1.05599">
        <ele>229.89</ele>
        <time>2015-06-13T13:51:13Z</time>
      </trkpt>
      <trkpt lat="44.46686" lon="1.05604">
        <ele>229.89</ele>
        <time>2015-06-13T13:51:14Z</time>
      </trkpt>
      <trkpt lat="44.46687" lon="1.05609">
        <ele>229.89</ele>
        <time>2015-06-13T13:51:15Z</time>
      </trkpt>
      <trkpt lat="44.46687" lon="1.05613">
        <ele>229.89</ele>
        <time>2015-06-13T13:51:16Z</time>
      </trkpt>
      <trkpt lat="44.46686" lon="1.05615">
        <ele>229.89</ele>
        <time>2015-06-13T13:51:17Z</time>
      </trkpt>
      <trkpt lat="44.46684" lon="1.05617">
        <ele>229.89</ele>
        <time>2015-06-13T13:51:18Z</time>
      </trkpt>
      <trkpt lat="44.46682" lon="1.05619">
        <ele>229.89</ele>
        <time>2015-06-13T13:51:19Z</time>
      </trkpt>
      <trkpt lat="44.46676" lon="1.05618">
        <ele>230.37</ele>
        <time>2015-06-13T13:51:22Z</time>
      </trkpt>
      <trkpt lat="44.46673" lon="1.05625">
        <ele>230.37</ele>
        <time>2015-06-13T13:51:25Z</time>
      </trkpt>
      <trkpt lat="44.46668" lon="1.05648">
        <ele>232.3</ele>
        <time>2015-06-13T13:51:32Z</time>
      </trkpt>
      <trkpt lat="44.46666" lon="1.05652">
        <ele>232.3</ele>
        <time>2015-06-13T13:51:33Z</time>
      </trkpt>
      <trkpt lat="44.46665" lon="1.05655">
        <ele>232.78</ele>
        <time>2015-06-13T13:51:34Z</time>
      </trkpt>
      <trkpt lat="44.46641" lon="1.05707">
        <ele>235.66</ele>
        <time>2015-06-13T13:51:47Z</time>
      </trkpt>
      <trkpt lat="44.46621" lon="1.05764">
        <ele>234.22</ele>
        <time>2015-06-13T13:52:00Z</time>
      </trkpt>
      <trkpt lat="44.46602" lon="1.05835">
        <ele>234.22</ele>
        <time>2015-06-13T13:52:16Z</time>
      </trkpt>
      <trkpt lat="44.46587" lon="1.0589">
        <ele>234.22</ele>
        <time>2015-06-13T13:52:29Z</time>
      </trkpt>
      <trkpt lat="44.46568" lon="1.05956">
        <ele>232.3</ele>
        <time>2015-06-13T13:52:44Z</time>
      </trkpt>
      <trkpt lat="44.46568" lon="1.05958">
        <ele>232.78</ele>
        <time>2015-06-13T13:52:45Z</time>
      </trkpt>
      <trkpt lat="44.46577" lon="1.0597">
        <ele>231.81</ele>
        <time>2015-06-13T13:52:53Z</time>
      </trkpt>
      <trkpt lat="44.46558" lon="1.06023">
        <ele>232.3</ele>
        <time>2015-06-13T13:53:07Z</time>
      </trkpt>
      <trkpt lat="44.46531" lon="1.06105">
        <ele>233.74</ele>
        <time>2015-06-13T13:53:24Z</time>
      </trkpt>
      <trkpt lat="44.46504" lon="1.06186">
        <ele>235.66</ele>
        <time>2015-06-13T13:53:41Z</time>
      </trkpt>
      <trkpt lat="44.4647" lon="1.06286">
        <ele>239.02</ele>
        <time>2015-06-13T13:54:02Z</time>
      </trkpt>
      <trkpt lat="44.46452" lon="1.06369">
        <ele>242.39</ele>
        <time>2015-06-13T13:54:18Z</time>
      </trkpt>
      <trkpt lat="44.46448" lon="1.06457">
        <ele>243.35</ele>
        <time>2015-06-13T13:54:33Z</time>
      </trkpt>
      <trkpt lat="44.46442" lon="1.06549">
        <ele>242.39</ele>
        <time>2015-06-13T13:54:50Z</time>
      </trkpt>
      <trkpt lat="44.46441" lon="1.06555">
        <ele>242.39</ele>
        <time>2015-06-13T13:54:51Z</time>
      </trkpt>
      <trkpt lat="44.4644" lon="1.06561">
        <ele>242.39</ele>
        <time>2015-06-13T13:54:52Z</time>
      </trkpt>
      <trkpt lat="44.46439" lon="1.06567">
        <ele>242.39</ele>
        <time>2015-06-13T13:54:53Z</time>
      </trkpt>
      <trkpt lat="44.46438" lon="1.06573">
        <ele>242.39</ele>
        <time>2015-06-13T13:54:54Z</time>
      </trkpt>
      <trkpt lat="44.46437" lon="1.06579">
        <ele>242.39</ele>
        <time>2015-06-13T13:54:55Z</time>
      </trkpt>
      <trkpt lat="44.46436" lon="1.06604">
        <ele>241.91</ele>
        <time>2015-06-13T13:55:01Z</time>
      </trkpt>
      <trkpt lat="44.46438" lon="1.06607">
        <ele>241.43</ele>
        <time>2015-06-13T13:55:02Z</time>
      </trkpt>
      <trkpt lat="44.4644" lon="1.06611">
        <ele>240.95</ele>
        <time>2015-06-13T13:55:03Z</time>
      </trkpt>
      <trkpt lat="44.46443" lon="1.06615">
        <ele>240.47</ele>
        <time>2015-06-13T13:55:04Z</time>
      </trkpt>
      <trkpt lat="44.46458" lon="1.06631">
        <ele>239.02</ele>
        <time>2015-06-13T13:55:08Z</time>
      </trkpt>
      <trkpt lat="44.4648" lon="1.06652">
        <ele>237.58</ele>
        <time>2015-06-13T13:55:13Z</time>
      </trkpt>
      <trkpt lat="44.46505" lon="1.06704">
        <ele>235.18</ele>
        <time>2015-06-13T13:55:20Z</time>
      </trkpt>
      <trkpt lat="44.46511" lon="1.06721">
        <ele>234.7</ele>
        <time>2015-06-13T13:55:22Z</time>
      </trkpt>
      <trkpt lat="44.46525" lon="1.06749">
        <ele>233.74</ele>
        <time>2015-06-13T13:55:26Z</time>
      </trkpt>
      <trkpt lat="44.4654" lon="1.06787">
        <ele>234.7</ele>
        <time>2015-06-13T13:55:36Z</time>
      </trkpt>
      <trkpt lat="44.46538" lon="1.06789">
        <ele>234.7</ele>
        <time>2015-06-13T13:55:37Z</time>
      </trkpt>
      <trkpt lat="44.4653" lon="1.06824">
        <ele>237.1</ele>
        <time>2015-06-13T13:55:50Z</time>
      </trkpt>
      <trkpt lat="44.46539" lon="1.06875">
        <ele>238.06</ele>
        <time>2015-06-13T13:56:04Z</time>
      </trkpt>
      <trkpt lat="44.46543" lon="1.06892">
        <ele>238.06</ele>
        <time>2015-06-13T13:56:09Z</time>
      </trkpt>
      <trkpt lat="44.46545" lon="1.06894">
        <ele>238.06</ele>
        <time>2015-06-13T13:56:10Z</time>
      </trkpt>
      <trkpt lat="44.46567" lon="1.06902">
        <ele>238.54</ele>
        <time>2015-06-13T13:56:20Z</time>
      </trkpt>
      <trkpt lat="44.46579" lon="1.06946">
        <ele>238.54</ele>
        <time>2015-06-13T13:56:31Z</time>
      </trkpt>
      <trkpt lat="44.46581" lon="1.06962">
        <ele>238.54</ele>
        <time>2015-06-13T13:56:34Z</time>
      </trkpt>
      <trkpt lat="44.46582" lon="1.06968">
        <ele>238.06</ele>
        <time>2015-06-13T13:56:35Z</time>
      </trkpt>
      <trkpt lat="44.46583" lon="1.06974">
        <ele>238.06</ele>
        <time>2015-06-13T13:56:36Z</time>
      </trkpt>
      <trkpt lat="44.46591" lon="1.07013">
        <ele>236.62</ele>
        <time>2015-06-13T13:56:41Z</time>
      </trkpt>
      <trkpt lat="44.46592" lon="1.07022">
        <ele>236.14</ele>
        <time>2015-06-13T13:56:42Z</time>
      </trkpt>
      <trkpt lat="44.46592" lon="1.07031">
        <ele>236.14</ele>
        <time>2015-06-13T13:56:43Z</time>
      </trkpt>
      <trkpt lat="44.46586" lon="1.07138">
        <ele>234.22</ele>
        <time>2015-06-13T13:56:54Z</time>
      </trkpt>
      <trkpt lat="44.46584" lon="1.07147">
        <ele>234.22</ele>
        <time>2015-06-13T13:56:55Z</time>
      </trkpt>
      <trkpt lat="44.4658" lon="1.07154">
        <ele>233.74</ele>
        <time>2015-06-13T13:56:56Z</time>
      </trkpt>
      <trkpt lat="44.46576" lon="1.07162">
        <ele>233.74</ele>
        <time>2015-06-13T13:56:57Z</time>
      </trkpt>
      <trkpt lat="44.46573" lon="1.07169">
        <ele>233.74</ele>
        <time>2015-06-13T13:56:58Z</time>
      </trkpt>
      <trkpt lat="44.4657" lon="1.07177">
        <ele>233.74</ele>
        <time>2015-06-13T13:56:59Z</time>
      </trkpt>
      <trkpt lat="44.46568" lon="1.07186">
        <ele>233.74</ele>
        <time>2015-06-13T13:57:00Z</time>
      </trkpt>
      <trkpt lat="44.46567" lon="1.07194">
        <ele>233.26</ele>
        <time>2015-06-13T13:57:01Z</time>
      </trkpt>
      <trkpt lat="44.46568" lon="1.07203">
        <ele>233.26</ele>
        <time>2015-06-13T13:57:02Z</time>
      </trkpt>
      <trkpt lat="44.46575" lon="1.07273">
        <ele>231.81</ele>
        <time>2015-06-13T13:57:12Z</time>
      </trkpt>
      <trkpt lat="44.46575" lon="1.0728">
        <ele>231.81</ele>
        <time>2015-06-13T13:57:13Z</time>
      </trkpt>
      <trkpt lat="44.46575" lon="1.07286">
        <ele>231.81</ele>
        <time>2015-06-13T13:57:14Z</time>
      </trkpt>
      <trkpt lat="44.46583" lon="1.07375">
        <ele>232.3</ele>
        <time>2015-06-13T13:57:30Z</time>
      </trkpt>
      <trkpt lat="44.46587" lon="1.07412">
        <ele>232.3</ele>
        <time>2015-06-13T13:57:37Z</time>
      </trkpt>
      <trkpt lat="44.46612" lon="1.07458">
        <ele>233.26</ele>
        <time>2015-06-13T13:57:50Z</time>
      </trkpt>
      <trkpt lat="44.46644" lon="1.07499">
        <ele>233.26</ele>
        <time>2015-06-13T13:58:04Z</time>
      </trkpt>
      <trkpt lat="44.46666" lon="1.0755">
        <ele>236.62</ele>
        <time>2015-06-13T13:58:17Z</time>
      </trkpt>
      <trkpt lat="44.46679" lon="1.0759">
        <ele>240.95</ele>
        <time>2015-06-13T13:58:29Z</time>
      </trkpt>
      <trkpt lat="44.46695" lon="1.07624">
        <ele>243.35</ele>
        <time>2015-06-13T13:58:42Z</time>
      </trkpt>
      <trkpt lat="44.46716" lon="1.0765">
        <ele>247.2</ele>
        <time>2015-06-13T13:58:54Z</time>
      </trkpt>
      <trkpt lat="44.46742" lon="1.07672">
        <ele>250.08</ele>
        <time>2015-06-13T13:59:08Z</time>
      </trkpt>
      <trkpt lat="44.46768" lon="1.07693">
        <ele>254.41</ele>
        <time>2015-06-13T13:59:22Z</time>
      </trkpt>
      <trkpt lat="44.46794" lon="1.07714">
        <ele>259.21</ele>
        <time>2015-06-13T13:59:37Z</time>
      </trkpt>
      <trkpt lat="44.46811" lon="1.07728">
        <ele>262.1</ele>
        <time>2015-06-13T13:59:47Z</time>
      </trkpt>
      <trkpt lat="44.46816" lon="1.07733">
        <ele>262.58</ele>
        <time>2015-06-13T13:59:50Z</time>
      </trkpt>
      <trkpt lat="44.46817" lon="1.07751">
        <ele>263.54</ele>
        <time>2015-06-13T14:00:00Z</time>
      </trkpt>
      <trkpt lat="44.46816" lon="1.07779">
        <ele>264.02</ele>
        <time>2015-06-13T14:00:17Z</time>
      </trkpt>
      <trkpt lat="44.46812" lon="1.07805">
        <ele>265.46</ele>
        <time>2015-06-13T14:00:32Z</time>
      </trkpt>
      <trkpt lat="44.46812" lon="1.07827">
        <ele>264.98</ele>
        <time>2015-06-13T14:00:48Z</time>
      </trkpt>
      <trkpt lat="44.46811" lon="1.07827">
        <ele>262.58</ele>
        <time>2015-06-13T14:01:14Z</time>
      </trkpt>
      <trkpt lat="44.4681" lon="1.07828">
        <ele>263.06</ele>
        <time>2015-06-13T14:01:45Z</time>
      </trkpt>
      <trkpt lat="44.46809" lon="1.07835">
        <ele>263.54</ele>
        <time>2015-06-13T14:01:59Z</time>
      </trkpt>
      <trkpt lat="44.46809" lon="1.07836">
        <ele>262.58</ele>
        <time>2015-06-13T14:02:19Z</time>
      </trkpt>
      <trkpt lat="44.46812" lon="1.07857">
        <ele>262.1</ele>
        <time>2015-06-13T14:02:32Z</time>
      </trkpt>
      <trkpt lat="44.46824" lon="1.07922">
        <ele>262.1</ele>
        <time>2015-06-13T14:02:45Z</time>
      </trkpt>
      <trkpt lat="44.46827" lon="1.07935">
        <ele>262.1</ele>
        <time>2015-06-13T14:02:47Z</time>
      </trkpt>
      <trkpt lat="44.46842" lon="1.0799">
        <ele>259.69</ele>
        <time>2015-06-13T14:02:57Z</time>
      </trkpt>
      <trkpt lat="44.46844" lon="1.07996">
        <ele>259.21</ele>
        <time>2015-06-13T14:02:58Z</time>
      </trkpt>
      <trkpt lat="44.46847" lon="1.08002">
        <ele>259.21</ele>
        <time>2015-06-13T14:02:59Z</time>
      </trkpt>
      <trkpt lat="44.4685" lon="1.08008">
        <ele>258.73</ele>
        <time>2015-06-13T14:03:00Z</time>
      </trkpt>
      <trkpt lat="44.46855" lon="1.08013">
        <ele>258.73</ele>
        <time>2015-06-13T14:03:01Z</time>
      </trkpt>
      <trkpt lat="44.46859" lon="1.08019">
        <ele>258.25</ele>
        <time>2015-06-13T14:03:02Z</time>
      </trkpt>
      <trkpt lat="44.46869" lon="1.08029">
        <ele>258.25</ele>
        <time>2015-06-13T14:03:04Z</time>
      </trkpt>
      <trkpt lat="44.46875" lon="1.08032">
        <ele>257.77</ele>
        <time>2015-06-13T14:03:05Z</time>
      </trkpt>
      <trkpt lat="44.4688" lon="1.08035">
        <ele>257.77</ele>
        <time>2015-06-13T14:03:06Z</time>
      </trkpt>
      <trkpt lat="44.46902" lon="1.08041">
        <ele>256.81</ele>
        <time>2015-06-13T14:03:13Z</time>
      </trkpt>
      <trkpt lat="44.4691" lon="1.08039">
        <ele>255.85</ele>
        <time>2015-06-13T14:03:15Z</time>
      </trkpt>
      <trkpt lat="44.46914" lon="1.08039">
        <ele>255.85</ele>
        <time>2015-06-13T14:03:16Z</time>
      </trkpt>
      <trkpt lat="44.46995" lon="1.08045">
        <ele>250.08</ele>
        <time>2015-06-13T14:03:29Z</time>
      </trkpt>
      <trkpt lat="44.47018" lon="1.08049">
        <ele>249.12</ele>
        <time>2015-06-13T14:03:32Z</time>
      </trkpt>
      <trkpt lat="44.47106" lon="1.08075">
        <ele>246.23</ele>
        <time>2015-06-13T14:03:45Z</time>
      </trkpt>
      <trkpt lat="44.47156" lon="1.08084">
        <ele>246.72</ele>
        <time>2015-06-13T14:03:55Z</time>
      </trkpt>
      <trkpt lat="44.47199" lon="1.0811">
        <ele>242.87</ele>
        <time>2015-06-13T14:04:05Z</time>
      </trkpt>
      <trkpt lat="44.47283" lon="1.08161">
        <ele>237.58</ele>
        <time>2015-06-13T14:04:17Z</time>
      </trkpt>
      <trkpt lat="44.47347" lon="1.08201">
        <ele>235.18</ele>
        <time>2015-06-13T14:04:28Z</time>
      </trkpt>
      <trkpt lat="44.47354" lon="1.08196">
        <ele>235.66</ele>
        <time>2015-06-13T14:04:32Z</time>
      </trkpt>
      <trkpt lat="44.47378" lon="1.08199">
        <ele>234.22</ele>
        <time>2015-06-13T14:04:42Z</time>
      </trkpt>
      <trkpt lat="44.4739" lon="1.08213">
        <ele>232.3</ele>
        <time>2015-06-13T14:04:47Z</time>
      </trkpt>
      <trkpt lat="44.47417" lon="1.08239">
        <ele>228.93</ele>
        <time>2015-06-13T14:04:58Z</time>
      </trkpt>
      <trkpt lat="44.47419" lon="1.08241">
        <ele>228.93</ele>
        <time>2015-06-13T14:04:59Z</time>
      </trkpt>
      <trkpt lat="44.47432" lon="1.08258">
        <ele>228.93</ele>
        <time>2015-06-13T14:05:07Z</time>
      </trkpt>
      <trkpt lat="44.47444" lon="1.08265">
        <ele>227.97</ele>
        <time>2015-06-13T14:05:11Z</time>
      </trkpt>
      <trkpt lat="44.47463" lon="1.08302">
        <ele>227.97</ele>
        <time>2015-06-13T14:05:20Z</time>
      </trkpt>
      <trkpt lat="44.4748" lon="1.0832">
        <ele>226.53</ele>
        <time>2015-06-13T14:05:26Z</time>
      </trkpt>
      <trkpt lat="44.47488" lon="1.08324">
        <ele>226.05</ele>
        <time>2015-06-13T14:05:28Z</time>
      </trkpt>
      <trkpt lat="44.47495" lon="1.08323">
        <ele>225.09</ele>
        <time>2015-06-13T14:05:30Z</time>
      </trkpt>
      <trkpt lat="44.47519" lon="1.08322">
        <ele>221.72</ele>
        <time>2015-06-13T14:05:37Z</time>
      </trkpt>
      <trkpt lat="44.47537" lon="1.08319">
        <ele>218.36</ele>
        <time>2015-06-13T14:05:43Z</time>
      </trkpt>
      <trkpt lat="44.47558" lon="1.0831">
        <ele>215.47</ele>
        <time>2015-06-13T14:05:49Z</time>
      </trkpt>
      <trkpt lat="44.47595" lon="1.08307">
        <ele>212.11</ele>
        <time>2015-06-13T14:05:58Z</time>
      </trkpt>
      <trkpt lat="44.47608" lon="1.08302">
        <ele>211.63</ele>
        <time>2015-06-13T14:06:01Z</time>
      </trkpt>
      <trkpt lat="44.47618" lon="1.08298">
        <ele>211.63</ele>
        <time>2015-06-13T14:06:03Z</time>
      </trkpt>
      <trkpt lat="44.47646" lon="1.08274">
        <ele>210.67</ele>
        <time>2015-06-13T14:06:10Z</time>
      </trkpt>
      <trkpt lat="44.47662" lon="1.08247">
        <ele>209.22</ele>
        <time>2015-06-13T14:06:15Z</time>
      </trkpt>
      <trkpt lat="44.47674" lon="1.08228">
        <ele>208.26</ele>
        <time>2015-06-13T14:06:19Z</time>
      </trkpt>
      <trkpt lat="44.47681" lon="1.08218">
        <ele>207.78</ele>
        <time>2015-06-13T14:06:21Z</time>
      </trkpt>
      <trkpt lat="44.47703" lon="1.0821">
        <ele>208.74</ele>
        <time>2015-06-13T14:06:27Z</time>
      </trkpt>
      <trkpt lat="44.4772" lon="1.08201">
        <ele>210.19</ele>
        <time>2015-06-13T14:06:34Z</time>
      </trkpt>
      <trkpt lat="44.4774" lon="1.0821">
        <ele>211.15</ele>
        <time>2015-06-13T14:06:42Z</time>
      </trkpt>
      <trkpt lat="44.47739" lon="1.08225">
        <ele>214.99</ele>
        <time>2015-06-13T14:06:50Z</time>
      </trkpt>
      <trkpt lat="44.47734" lon="1.08229">
        <ele>215.47</ele>
        <time>2015-06-13T14:07:03Z</time>
      </trkpt>
      <trkpt lat="44.47733" lon="1.0823">
        <ele>217.88</ele>
        <time>2015-06-13T14:07:30Z</time>
      </trkpt>
      <trkpt lat="44.47733" lon="1.08231">
        <ele>218.84</ele>
        <time>2015-06-13T14:07:53Z</time>
      </trkpt>
      <trkpt lat="44.4773" lon="1.08234">
        <ele>219.32</ele>
        <time>2015-06-13T14:07:57Z</time>
      </trkpt>
      <trkpt lat="44.47708" lon="1.08269">
        <ele>223.16</ele>
        <time>2015-06-13T14:08:13Z</time>
      </trkpt>
      <trkpt lat="44.47684" lon="1.08319">
        <ele>223.64</ele>
        <time>2015-06-13T14:08:28Z</time>
      </trkpt>
      <trkpt lat="44.47664" lon="1.08344">
        <ele>223.16</ele>
        <time>2015-06-13T14:08:36Z</time>
      </trkpt>
      <trkpt lat="44.47672" lon="1.08352">
        <ele>223.64</ele>
        <time>2015-06-13T14:08:45Z</time>
      </trkpt>
      <trkpt lat="44.47677" lon="1.08352">
        <ele>222.68</ele>
        <time>2015-06-13T14:08:58Z</time>
      </trkpt>
      <trkpt lat="44.47676" lon="1.08353">
        <ele>222.2</ele>
        <time>2015-06-13T14:09:02Z</time>
      </trkpt>
      <trkpt lat="44.47658" lon="1.08359">
        <ele>221.72</ele>
        <time>2015-06-13T14:09:11Z</time>
      </trkpt>
      <trkpt lat="44.47655" lon="1.08362">
        <ele>221.72</ele>
        <time>2015-06-13T14:09:13Z</time>
      </trkpt>
      <trkpt lat="44.47665" lon="1.08372">
        <ele>221.24</ele>
        <time>2015-06-13T14:09:24Z</time>
      </trkpt>
      <trkpt lat="44.47669" lon="1.08377">
        <ele>220.76</ele>
        <time>2015-06-13T14:09:26Z</time>
      </trkpt>
      <trkpt lat="44.47685" lon="1.08415">
        <ele>218.36</ele>
        <time>2015-06-13T14:09:38Z</time>
      </trkpt>
      <trkpt lat="44.47692" lon="1.0844">
        <ele>215.47</ele>
        <time>2015-06-13T14:09:42Z</time>
      </trkpt>
      <trkpt lat="44.47697" lon="1.08474">
        <ele>209.7</ele>
        <time>2015-06-13T14:09:47Z</time>
      </trkpt>
      <trkpt lat="44.47699" lon="1.085">
        <ele>203.94</ele>
        <time>2015-06-13T14:09:51Z</time>
      </trkpt>
      <trkpt lat="44.47699" lon="1.08534">
        <ele>197.21</ele>
        <time>2015-06-13T14:09:56Z</time>
      </trkpt>
      <trkpt lat="44.47699" lon="1.08588">
        <ele>188.56</ele>
        <time>2015-06-13T14:10:04Z</time>
      </trkpt>
      <trkpt lat="44.47703" lon="1.08605">
        <ele>186.15</ele>
        <time>2015-06-13T14:10:07Z</time>
      </trkpt>
      <trkpt lat="44.47716" lon="1.08635">
        <ele>181.35</ele>
        <time>2015-06-13T14:10:12Z</time>
      </trkpt>
      <trkpt lat="44.47724" lon="1.08652">
        <ele>178.94</ele>
        <time>2015-06-13T14:10:15Z</time>
      </trkpt>
      <trkpt lat="44.47741" lon="1.0869">
        <ele>173.66</ele>
        <time>2015-06-13T14:10:21Z</time>
      </trkpt>
      <trkpt lat="44.47747" lon="1.08704">
        <ele>171.25</ele>
        <time>2015-06-13T14:10:23Z</time>
      </trkpt>
      <trkpt lat="44.47761" lon="1.08736">
        <ele>166.45</ele>
        <time>2015-06-13T14:10:28Z</time>
      </trkpt>
      <trkpt lat="44.47766" lon="1.08748">
        <ele>164.52</ele>
        <time>2015-06-13T14:10:30Z</time>
      </trkpt>
      <trkpt lat="44.4778" lon="1.08783">
        <ele>160.2</ele>
        <time>2015-06-13T14:10:35Z</time>
      </trkpt>
      <trkpt lat="44.47804" lon="1.08862">
        <ele>149.62</ele>
        <time>2015-06-13T14:10:46Z</time>
      </trkpt>
      <trkpt lat="44.47818" lon="1.08903">
        <ele>143.37</ele>
        <time>2015-06-13T14:10:56Z</time>
      </trkpt>
      <trkpt lat="44.4782" lon="1.08903">
        <ele>142.41</ele>
        <time>2015-06-13T14:11:05Z</time>
      </trkpt>
      <trkpt lat="44.4783" lon="1.08942">
        <ele>139.05</ele>
        <time>2015-06-13T14:11:15Z</time>
      </trkpt>
      <trkpt lat="44.4785" lon="1.08958">
        <ele>136.16</ele>
        <time>2015-06-13T14:11:21Z</time>
      </trkpt>
      <trkpt lat="44.47861" lon="1.08977">
        <ele>133.76</ele>
        <time>2015-06-13T14:11:28Z</time>
      </trkpt>
      <trkpt lat="44.47855" lon="1.09011">
        <ele>129.92</ele>
        <time>2015-06-13T14:11:34Z</time>
      </trkpt>
      <trkpt lat="44.47836" lon="1.09037">
        <ele>124.63</ele>
        <time>2015-06-13T14:11:43Z</time>
      </trkpt>
      <trkpt lat="44.47836" lon="1.09041">
        <ele>121.26</ele>
        <time>2015-06-13T14:12:04Z</time>
      </trkpt>
      <trkpt lat="44.47837" lon="1.09041">
        <ele>120.3</ele>
        <time>2015-06-13T14:12:25Z</time>
      </trkpt>
      <trkpt lat="44.47836" lon="1.09041">
        <ele>119.82</ele>
        <time>2015-06-13T14:12:47Z</time>
      </trkpt>
      <trkpt lat="44.47834" lon="1.09046">
        <ele>119.82</ele>
        <time>2015-06-13T14:12:50Z</time>
      </trkpt>
      <trkpt lat="44.47834" lon="1.09049">
        <ele>120.3</ele>
        <time>2015-06-13T14:12:51Z</time>
      </trkpt>
      <trkpt lat="44.47835" lon="1.09053">
        <ele>120.3</ele>
        <time>2015-06-13T14:12:52Z</time>
      </trkpt>
      <trkpt lat="44.47835" lon="1.09059">
        <ele>120.3</ele>
        <time>2015-06-13T14:12:53Z</time>
      </trkpt>
      <trkpt lat="44.47836" lon="1.09064">
        <ele>120.3</ele>
        <time>2015-06-13T14:12:54Z</time>
      </trkpt>
      <trkpt lat="44.47837" lon="1.0907">
        <ele>120.3</ele>
        <time>2015-06-13T14:12:55Z</time>
      </trkpt>
      <trkpt lat="44.4785" lon="1.09121">
        <ele>118.86</ele>
        <time>2015-06-13T14:13:02Z</time>
      </trkpt>
      <trkpt lat="44.47881" lon="1.09252">
        <ele>114.53</ele>
        <time>2015-06-13T14:13:18Z</time>
      </trkpt>
      <trkpt lat="44.47892" lon="1.09293">
        <ele>112.61</ele>
        <time>2015-06-13T14:13:25Z</time>
      </trkpt>
      <trkpt lat="44.47895" lon="1.09294">
        <ele>112.61</ele>
        <time>2015-06-13T14:13:26Z</time>
      </trkpt>
      <trkpt lat="44.47898" lon="1.09292">
        <ele>112.61</ele>
        <time>2015-06-13T14:13:27Z</time>
      </trkpt>
      <trkpt lat="44.47902" lon="1.09289">
        <ele>112.61</ele>
        <time>2015-06-13T14:13:28Z</time>
      </trkpt>
      <trkpt lat="44.47905" lon="1.09285">
        <ele>112.61</ele>
        <time>2015-06-13T14:13:29Z</time>
      </trkpt>
      <trkpt lat="44.47909" lon="1.09281">
        <ele>112.13</ele>
        <time>2015-06-13T14:13:30Z</time>
      </trkpt>
      <trkpt lat="44.47912" lon="1.09276">
        <ele>112.61</ele>
        <time>2015-06-13T14:13:31Z</time>
      </trkpt>
      <trkpt lat="44.47915" lon="1.09271">
        <ele>112.61</ele>
        <time>2015-06-13T14:13:32Z</time>
      </trkpt>
      <trkpt lat="44.47945" lon="1.09233">
        <ele>112.13</ele>
        <time>2015-06-13T14:13:40Z</time>
      </trkpt>
      <trkpt lat="44.47948" lon="1.09229">
        <ele>112.13</ele>
        <time>2015-06-13T14:13:41Z</time>
      </trkpt>
      <trkpt lat="44.47993" lon="1.09187">
        <ele>112.13</ele>
        <time>2015-06-13T14:13:51Z</time>
      </trkpt>
      <trkpt lat="44.48021" lon="1.09161">
        <ele>111.17</ele>
        <time>2015-06-13T14:13:57Z</time>
      </trkpt>
      <trkpt lat="44.48025" lon="1.09156">
        <ele>110.69</ele>
        <time>2015-06-13T14:13:58Z</time>
      </trkpt>
      <trkpt lat="44.48029" lon="1.09151">
        <ele>110.69</ele>
        <time>2015-06-13T14:13:59Z</time>
      </trkpt>
      <trkpt lat="44.48093" lon="1.09041">
        <ele>108.29</ele>
        <time>2015-06-13T14:14:15Z</time>
      </trkpt>
      <trkpt lat="44.48138" lon="1.08895">
        <ele>103.96</ele>
        <time>2015-06-13T14:14:31Z</time>
      </trkpt>
      <trkpt lat="44.48141" lon="1.08886">
        <ele>103.96</ele>
        <time>2015-06-13T14:14:32Z</time>
      </trkpt>
      <trkpt lat="44.48145" lon="1.08878">
        <ele>103.48</ele>
        <time>2015-06-13T14:14:33Z</time>
      </trkpt>
      <trkpt lat="44.4815" lon="1.08871">
        <ele>103.48</ele>
        <time>2015-06-13T14:14:34Z</time>
      </trkpt>
      <trkpt lat="44.48155" lon="1.08864">
        <ele>103.48</ele>
        <time>2015-06-13T14:14:35Z</time>
      </trkpt>
      <trkpt lat="44.48161" lon="1.08858">
        <ele>103</ele>
        <time>2015-06-13T14:14:36Z</time>
      </trkpt>
      <trkpt lat="44.48167" lon="1.08853">
        <ele>103</ele>
        <time>2015-06-13T14:14:37Z</time>
      </trkpt>
      <trkpt lat="44.48174" lon="1.08849">
        <ele>102.52</ele>
        <time>2015-06-13T14:14:38Z</time>
      </trkpt>
      <trkpt lat="44.4818" lon="1.08844">
        <ele>102.52</ele>
        <time>2015-06-13T14:14:39Z</time>
      </trkpt>
      <trkpt lat="44.48293" lon="1.08771">
        <ele>99.15</ele>
        <time>2015-06-13T14:14:56Z</time>
      </trkpt>
      <trkpt lat="44.48401" lon="1.0868">
        <ele>94.83</ele>
        <time>2015-06-13T14:15:13Z</time>
      </trkpt>
      <trkpt lat="44.48507" lon="1.08602">
        <ele>91.46</ele>
        <time>2015-06-13T14:15:29Z</time>
      </trkpt>
      <trkpt lat="44.48584" lon="1.0852">
        <ele>87.62</ele>
        <time>2015-06-13T14:15:43Z</time>
      </trkpt>
      <trkpt lat="44.48606" lon="1.08486">
        <ele>87.62</ele>
        <time>2015-06-13T14:15:48Z</time>
      </trkpt>
      <trkpt lat="44.48612" lon="1.08482">
        <ele>87.62</ele>
        <time>2015-06-13T14:15:49Z</time>
      </trkpt>
      <trkpt lat="44.48618" lon="1.08481">
        <ele>88.1</ele>
        <time>2015-06-13T14:15:50Z</time>
      </trkpt>
      <trkpt lat="44.48625" lon="1.08482">
        <ele>88.1</ele>
        <time>2015-06-13T14:15:51Z</time>
      </trkpt>
      <trkpt lat="44.48631" lon="1.08484">
        <ele>88.58</ele>
        <time>2015-06-13T14:15:52Z</time>
      </trkpt>
      <trkpt lat="44.48637" lon="1.08486">
        <ele>88.58</ele>
        <time>2015-06-13T14:15:53Z</time>
      </trkpt>
      <trkpt lat="44.48643" lon="1.08488">
        <ele>89.06</ele>
        <time>2015-06-13T14:15:54Z</time>
      </trkpt>
      <trkpt lat="44.48726" lon="1.08481">
        <ele>88.58</ele>
        <time>2015-06-13T14:16:07Z</time>
      </trkpt>
      <trkpt lat="44.48854" lon="1.08446">
        <ele>87.62</ele>
        <time>2015-06-13T14:16:28Z</time>
      </trkpt>
      <trkpt lat="44.48961" lon="1.08391">
        <ele>86.18</ele>
        <time>2015-06-13T14:16:46Z</time>
      </trkpt>
      <trkpt lat="44.49077" lon="1.08295">
        <ele>82.33</ele>
        <time>2015-06-13T14:17:06Z</time>
      </trkpt>
      <trkpt lat="44.49121" lon="1.08276">
        <ele>81.37</ele>
        <time>2015-06-13T14:17:13Z</time>
      </trkpt>
      <trkpt lat="44.49195" lon="1.08277">
        <ele>81.85</ele>
        <time>2015-06-13T14:17:27Z</time>
      </trkpt>
      <trkpt lat="44.49204" lon="1.08278">
        <ele>81.85</ele>
        <time>2015-06-13T14:17:29Z</time>
      </trkpt>
      <trkpt lat="44.49249" lon="1.08287">
        <ele>81.85</ele>
        <time>2015-06-13T14:17:41Z</time>
      </trkpt>
      <trkpt lat="44.49261" lon="1.08283">
        <ele>81.37</ele>
        <time>2015-06-13T14:17:44Z</time>
      </trkpt>
      <trkpt lat="44.49266" lon="1.08283">
        <ele>80.89</ele>
        <time>2015-06-13T14:17:45Z</time>
      </trkpt>
      <trkpt lat="44.4927" lon="1.08283">
        <ele>80.89</ele>
        <time>2015-06-13T14:17:46Z</time>
      </trkpt>
      <trkpt lat="44.49274" lon="1.08284">
        <ele>80.41</ele>
        <time>2015-06-13T14:17:47Z</time>
      </trkpt>
      <trkpt lat="44.49279" lon="1.08284">
        <ele>80.89</ele>
        <time>2015-06-13T14:17:48Z</time>
      </trkpt>
      <trkpt lat="44.49312" lon="1.08289">
        <ele>81.85</ele>
        <time>2015-06-13T14:17:59Z</time>
      </trkpt>
      <trkpt lat="44.49331" lon="1.08299">
        <ele>80.89</ele>
        <time>2015-06-13T14:18:05Z</time>
      </trkpt>
      <trkpt lat="44.49348" lon="1.08321">
        <ele>80.89</ele>
        <time>2015-06-13T14:18:10Z</time>
      </trkpt>
      <trkpt lat="44.49352" lon="1.08328">
        <ele>80.41</ele>
        <time>2015-06-13T14:18:17Z</time>
      </trkpt>
      <trkpt lat="44.49352" lon="1.08324">
        <ele>82.81</ele>
        <time>2015-06-13T14:18:48Z</time>
      </trkpt>
      <trkpt lat="44.49354" lon="1.08323">
        <ele>83.77</ele>
        <time>2015-06-13T14:19:20Z</time>
      </trkpt>
      <trkpt lat="44.49353" lon="1.0832">
        <ele>85.21</ele>
        <time>2015-06-13T14:19:57Z</time>
      </trkpt>
      <trkpt lat="44.49354" lon="1.08321">
        <ele>82.81</ele>
        <time>2015-06-13T14:20:30Z</time>
      </trkpt>
      <trkpt lat="44.49354" lon="1.0832">
        <ele>81.85</ele>
        <time>2015-06-13T14:20:55Z</time>
      </trkpt>
      <trkpt lat="44.49351" lon="1.08321">
        <ele>82.33</ele>
        <time>2015-06-13T14:21:24Z</time>
      </trkpt>
      <trkpt lat="44.4935" lon="1.08321">
        <ele>81.85</ele>
        <time>2015-06-13T14:21:54Z</time>
      </trkpt>
      <trkpt lat="44.4935" lon="1.08322">
        <ele>82.81</ele>
        <time>2015-06-13T14:22:27Z</time>
      </trkpt>
      <trkpt lat="44.49349" lon="1.08322">
        <ele>81.85</ele>
        <time>2015-06-13T14:23:06Z</time>
      </trkpt>
      <trkpt lat="44.49349" lon="1.08322">
        <ele>80.89</ele>
        <time>2015-06-13T14:23:42Z</time>
      </trkpt>
      <trkpt lat="44.49349" lon="1.0832">
        <ele>83.29</ele>
        <time>2015-06-13T14:24:19Z</time>
      </trkpt>
      <trkpt lat="44.49348" lon="1.0832">
        <ele>84.25</ele>
        <time>2015-06-13T14:25:00Z</time>
      </trkpt>
      <trkpt lat="44.49349" lon="1.0832">
        <ele>84.25</ele>
        <time>2015-06-13T14:25:34Z</time>
      </trkpt>
      <trkpt lat="44.4935" lon="1.0832">
        <ele>82.81</ele>
        <time>2015-06-13T14:26:04Z</time>
      </trkpt>
      <trkpt lat="44.4935" lon="1.08321">
        <ele>83.29</ele>
        <time>2015-06-13T14:26:18Z</time>
      </trkpt>
      <trkpt lat="44.4935" lon="1.08321">
        <ele>83.29</ele>
        <time>2015-06-13T14:26:44Z</time>
      </trkpt>
      <trkpt lat="44.49349" lon="1.08323">
        <ele>82.33</ele>
        <time>2015-06-13T14:27:11Z</time>
      </trkpt>
      <trkpt lat="44.49348" lon="1.08323">
        <ele>82.81</ele>
        <time>2015-06-13T14:27:32Z</time>
      </trkpt>
      <trkpt lat="44.49344" lon="1.08319">
        <ele>83.77</ele>
        <time>2015-06-13T14:27:37Z</time>
      </trkpt>
      <trkpt lat="44.49328" lon="1.08295">
        <ele>84.73</ele>
        <time>2015-06-13T14:27:49Z</time>
      </trkpt>
      <trkpt lat="44.49314" lon="1.08293">
        <ele>86.66</ele>
        <time>2015-06-13T14:27:56Z</time>
      </trkpt>
      <trkpt lat="44.49313" lon="1.08292">
        <ele>87.14</ele>
        <time>2015-06-13T14:27:57Z</time>
      </trkpt>
      <trkpt lat="44.49314" lon="1.08287">
        <ele>87.14</ele>
        <time>2015-06-13T14:28:00Z</time>
      </trkpt>
      <trkpt lat="44.49316" lon="1.08287">
        <ele>87.14</ele>
        <time>2015-06-13T14:28:01Z</time>
      </trkpt>
      <trkpt lat="44.49318" lon="1.08288">
        <ele>87.14</ele>
        <time>2015-06-13T14:28:02Z</time>
      </trkpt>
      <trkpt lat="44.4934" lon="1.08283">
        <ele>87.14</ele>
        <time>2015-06-13T14:28:12Z</time>
      </trkpt>
      <trkpt lat="44.49341" lon="1.08283">
        <ele>87.14</ele>
        <time>2015-06-13T14:28:13Z</time>
      </trkpt>
      <trkpt lat="44.49343" lon="1.08283">
        <ele>87.62</ele>
        <time>2015-06-13T14:28:14Z</time>
      </trkpt>
      <trkpt lat="44.49345" lon="1.08283">
        <ele>87.62</ele>
        <time>2015-06-13T14:28:15Z</time>
      </trkpt>
      <trkpt lat="44.49347" lon="1.08282">
        <ele>87.62</ele>
        <time>2015-06-13T14:28:16Z</time>
      </trkpt>
      <trkpt lat="44.49381" lon="1.08273">
        <ele>88.58</ele>
        <time>2015-06-13T14:28:29Z</time>
      </trkpt>
      <trkpt lat="44.49438" lon="1.08262">
        <ele>88.1</ele>
        <time>2015-06-13T14:28:44Z</time>
      </trkpt>
      <trkpt lat="44.49455" lon="1.08257">
        <ele>87.62</ele>
        <time>2015-06-13T14:28:48Z</time>
      </trkpt>
      <trkpt lat="44.49459" lon="1.08256">
        <ele>87.62</ele>
        <time>2015-06-13T14:28:49Z</time>
      </trkpt>
      <trkpt lat="44.49463" lon="1.08255">
        <ele>87.62</ele>
        <time>2015-06-13T14:28:50Z</time>
      </trkpt>
      <trkpt lat="44.49468" lon="1.08254">
        <ele>87.62</ele>
        <time>2015-06-13T14:28:51Z</time>
      </trkpt>
      <trkpt lat="44.49472" lon="1.08253">
        <ele>87.62</ele>
        <time>2015-06-13T14:28:52Z</time>
      </trkpt>
      <trkpt lat="44.49495" lon="1.0825">
        <ele>87.62</ele>
        <time>2015-06-13T14:28:57Z</time>
      </trkpt>
      <trkpt lat="44.495" lon="1.08249">
        <ele>87.14</ele>
        <time>2015-06-13T14:28:58Z</time>
      </trkpt>
      <trkpt lat="44.4954" lon="1.08242">
        <ele>86.66</ele>
        <time>2015-06-13T14:29:06Z</time>
      </trkpt>
      <trkpt lat="44.4955" lon="1.08239">
        <ele>86.18</ele>
        <time>2015-06-13T14:29:08Z</time>
      </trkpt>
      <trkpt lat="44.49555" lon="1.08239">
        <ele>86.18</ele>
        <time>2015-06-13T14:29:09Z</time>
      </trkpt>
      <trkpt lat="44.49638" lon="1.08225">
        <ele>84.73</ele>
        <time>2015-06-13T14:29:24Z</time>
      </trkpt>
      <trkpt lat="44.49713" lon="1.08205">
        <ele>83.29</ele>
        <time>2015-06-13T14:29:41Z</time>
      </trkpt>
      <trkpt lat="44.49714" lon="1.08201">
        <ele>83.29</ele>
        <time>2015-06-13T14:29:42Z</time>
      </trkpt>
      <trkpt lat="44.49713" lon="1.08196">
        <ele>82.81</ele>
        <time>2015-06-13T14:29:43Z</time>
      </trkpt>
      <trkpt lat="44.49702" lon="1.08169">
        <ele>82.33</ele>
        <time>2015-06-13T14:29:49Z</time>
      </trkpt>
      <trkpt lat="44.497" lon="1.08164">
        <ele>82.33</ele>
        <time>2015-06-13T14:29:50Z</time>
      </trkpt>
      <trkpt lat="44.49698" lon="1.08158">
        <ele>82.33</ele>
        <time>2015-06-13T14:29:51Z</time>
      </trkpt>
      <trkpt lat="44.49697" lon="1.08153">
        <ele>82.33</ele>
        <time>2015-06-13T14:29:52Z</time>
      </trkpt>
      <trkpt lat="44.49695" lon="1.08147">
        <ele>82.33</ele>
        <time>2015-06-13T14:29:53Z</time>
      </trkpt>
      <trkpt lat="44.49668" lon="1.08052">
        <ele>80.41</ele>
        <time>2015-06-13T14:30:10Z</time>
      </trkpt>
      <trkpt lat="44.49667" lon="1.08046">
        <ele>80.41</ele>
        <time>2015-06-13T14:30:11Z</time>
      </trkpt>
      <trkpt lat="44.49663" lon="1.08028">
        <ele>80.41</ele>
        <time>2015-06-13T14:30:14Z</time>
      </trkpt>
      <trkpt lat="44.4966" lon="1.08022">
        <ele>80.41</ele>
        <time>2015-06-13T14:30:15Z</time>
      </trkpt>
      <trkpt lat="44.49657" lon="1.08016">
        <ele>80.41</ele>
        <time>2015-06-13T14:30:16Z</time>
      </trkpt>
      <trkpt lat="44.49654" lon="1.0801">
        <ele>79.93</ele>
        <time>2015-06-13T14:30:17Z</time>
      </trkpt>
      <trkpt lat="44.4965" lon="1.08005">
        <ele>79.93</ele>
        <time>2015-06-13T14:30:18Z</time>
      </trkpt>
      <trkpt lat="44.49646" lon="1.08001">
        <ele>79.93</ele>
        <time>2015-06-13T14:30:19Z</time>
      </trkpt>
      <trkpt lat="44.49643" lon="1.07995">
        <ele>79.93</ele>
        <time>2015-06-13T14:30:20Z</time>
      </trkpt>
      <trkpt lat="44.49639" lon="1.0799">
        <ele>79.93</ele>
        <time>2015-06-13T14:30:21Z</time>
      </trkpt>
      <trkpt lat="44.49636" lon="1.07984">
        <ele>79.45</ele>
        <time>2015-06-13T14:30:22Z</time>
      </trkpt>
      <trkpt lat="44.49634" lon="1.07978">
        <ele>79.45</ele>
        <time>2015-06-13T14:30:23Z</time>
      </trkpt>
      <trkpt lat="44.49632" lon="1.07971">
        <ele>79.45</ele>
        <time>2015-06-13T14:30:24Z</time>
      </trkpt>
      <trkpt lat="44.49631" lon="1.07965">
        <ele>79.45</ele>
        <time>2015-06-13T14:30:25Z</time>
      </trkpt>
      <trkpt lat="44.4963" lon="1.07959">
        <ele>79.45</ele>
        <time>2015-06-13T14:30:26Z</time>
      </trkpt>
      <trkpt lat="44.49628" lon="1.07952">
        <ele>78.97</ele>
        <time>2015-06-13T14:30:27Z</time>
      </trkpt>
      <trkpt lat="44.49627" lon="1.07946">
        <ele>78.97</ele>
        <time>2015-06-13T14:30:28Z</time>
      </trkpt>
      <trkpt lat="44.49626" lon="1.07933">
        <ele>78.48</ele>
        <time>2015-06-13T14:30:30Z</time>
      </trkpt>
      <trkpt lat="44.49623" lon="1.07895">
        <ele>78</ele>
        <time>2015-06-13T14:30:36Z</time>
      </trkpt>
      <trkpt lat="44.49623" lon="1.07888">
        <ele>77.52</ele>
        <time>2015-06-13T14:30:37Z</time>
      </trkpt>
      <trkpt lat="44.49623" lon="1.07882">
        <ele>77.52</ele>
        <time>2015-06-13T14:30:38Z</time>
      </trkpt>
      <trkpt lat="44.49623" lon="1.07876">
        <ele>77.52</ele>
        <time>2015-06-13T14:30:39Z</time>
      </trkpt>
      <trkpt lat="44.49623" lon="1.0787">
        <ele>77.52</ele>
        <time>2015-06-13T14:30:40Z</time>
      </trkpt>
      <trkpt lat="44.49623" lon="1.0784">
        <ele>77.52</ele>
        <time>2015-06-13T14:30:45Z</time>
      </trkpt>
      <trkpt lat="44.49624" lon="1.07833">
        <ele>78</ele>
        <time>2015-06-13T14:30:46Z</time>
      </trkpt>
      <trkpt lat="44.49625" lon="1.07828">
        <ele>78</ele>
        <time>2015-06-13T14:30:47Z</time>
      </trkpt>
      <trkpt lat="44.49627" lon="1.07822">
        <ele>78</ele>
        <time>2015-06-13T14:30:48Z</time>
      </trkpt>
      <trkpt lat="44.49636" lon="1.07783">
        <ele>79.93</ele>
        <time>2015-06-13T14:30:55Z</time>
      </trkpt>
      <trkpt lat="44.49636" lon="1.07732">
        <ele>80.41</ele>
        <time>2015-06-13T14:31:04Z</time>
      </trkpt>
      <trkpt lat="44.4964" lon="1.07657">
        <ele>81.37</ele>
        <time>2015-06-13T14:31:17Z</time>
      </trkpt>
      <trkpt lat="44.49663" lon="1.0763">
        <ele>82.33</ele>
        <time>2015-06-13T14:31:25Z</time>
      </trkpt>
      <trkpt lat="44.49683" lon="1.07616">
        <ele>82.81</ele>
        <time>2015-06-13T14:31:31Z</time>
      </trkpt>
      <trkpt lat="44.497" lon="1.07525">
        <ele>81.85</ele>
        <time>2015-06-13T14:31:46Z</time>
      </trkpt>
      <trkpt lat="44.49712" lon="1.07472">
        <ele>82.33</ele>
        <time>2015-06-13T14:31:55Z</time>
      </trkpt>
      <trkpt lat="44.49714" lon="1.07467">
        <ele>82.33</ele>
        <time>2015-06-13T14:31:56Z</time>
      </trkpt>
      <trkpt lat="44.49716" lon="1.07462">
        <ele>82.33</ele>
        <time>2015-06-13T14:31:57Z</time>
      </trkpt>
      <trkpt lat="44.4972" lon="1.07445">
        <ele>82.33</ele>
        <time>2015-06-13T14:32:00Z</time>
      </trkpt>
      <trkpt lat="44.49762" lon="1.07343">
        <ele>81.37</ele>
        <time>2015-06-13T14:32:18Z</time>
      </trkpt>
      <trkpt lat="44.49791" lon="1.07301">
        <ele>81.37</ele>
        <time>2015-06-13T14:32:27Z</time>
      </trkpt>
      <trkpt lat="44.49803" lon="1.07292">
        <ele>81.37</ele>
        <time>2015-06-13T14:32:30Z</time>
      </trkpt>
      <trkpt lat="44.4986" lon="1.07236">
        <ele>81.37</ele>
        <time>2015-06-13T14:32:46Z</time>
      </trkpt>
      <trkpt lat="44.49927" lon="1.07195">
        <ele>81.85</ele>
        <time>2015-06-13T14:33:04Z</time>
      </trkpt>
      <trkpt lat="44.49983" lon="1.07164">
        <ele>81.85</ele>
        <time>2015-06-13T14:33:18Z</time>
      </trkpt>
      <trkpt lat="44.50005" lon="1.07144">
        <ele>81.37</ele>
        <time>2015-06-13T14:33:24Z</time>
      </trkpt>
      <trkpt lat="44.50017" lon="1.07136">
        <ele>81.37</ele>
        <time>2015-06-13T14:33:27Z</time>
      </trkpt>
      <trkpt lat="44.50083" lon="1.07113">
        <ele>82.33</ele>
        <time>2015-06-13T14:33:44Z</time>
      </trkpt>
      <trkpt lat="44.50126" lon="1.071">
        <ele>82.81</ele>
        <time>2015-06-13T14:33:55Z</time>
      </trkpt>
      <trkpt lat="44.50155" lon="1.0709">
        <ele>82.81</ele>
        <time>2015-06-13T14:34:02Z</time>
      </trkpt>
      <trkpt lat="44.50159" lon="1.0709">
        <ele>82.81</ele>
        <time>2015-06-13T14:34:03Z</time>
      </trkpt>
      <trkpt lat="44.50163" lon="1.07088">
        <ele>82.81</ele>
        <time>2015-06-13T14:34:04Z</time>
      </trkpt>
      <trkpt lat="44.5017" lon="1.07084">
        <ele>83.29</ele>
        <time>2015-06-13T14:34:06Z</time>
      </trkpt>
      <trkpt lat="44.50175" lon="1.07083">
        <ele>83.29</ele>
        <time>2015-06-13T14:34:07Z</time>
      </trkpt>
      <trkpt lat="44.50179" lon="1.07082">
        <ele>83.29</ele>
        <time>2015-06-13T14:34:08Z</time>
      </trkpt>
      <trkpt lat="44.50223" lon="1.07069">
        <ele>82.81</ele>
        <time>2015-06-13T14:34:18Z</time>
      </trkpt>
      <trkpt lat="44.50231" lon="1.07066">
        <ele>82.81</ele>
        <time>2015-06-13T14:34:20Z</time>
      </trkpt>
      <trkpt lat="44.50292" lon="1.07042">
        <ele>82.81</ele>
        <time>2015-06-13T14:34:36Z</time>
      </trkpt>
      <trkpt lat="44.50358" lon="1.07027">
        <ele>82.33</ele>
        <time>2015-06-13T14:34:52Z</time>
      </trkpt>
      <trkpt lat="44.50397" lon="1.07008">
        <ele>82.33</ele>
        <time>2015-06-13T14:35:02Z</time>
      </trkpt>
      <trkpt lat="44.50432" lon="1.06998">
        <ele>82.33</ele>
        <time>2015-06-13T14:35:11Z</time>
      </trkpt>
      <trkpt lat="44.50491" lon="1.06982">
        <ele>82.81</ele>
        <time>2015-06-13T14:35:25Z</time>
      </trkpt>
      <trkpt lat="44.50546" lon="1.06975">
        <ele>82.33</ele>
        <time>2015-06-13T14:35:37Z</time>
      </trkpt>
      <trkpt lat="44.50551" lon="1.06975">
        <ele>82.33</ele>
        <time>2015-06-13T14:35:38Z</time>
      </trkpt>
      <trkpt lat="44.50601" lon="1.07006">
        <ele>82.81</ele>
        <time>2015-06-13T14:35:50Z</time>
      </trkpt>
      <trkpt lat="44.50659" lon="1.07038">
        <ele>83.29</ele>
        <time>2015-06-13T14:36:04Z</time>
      </trkpt>
      <trkpt lat="44.50703" lon="1.07061">
        <ele>84.73</ele>
        <time>2015-06-13T14:36:15Z</time>
      </trkpt>
      <trkpt lat="44.50707" lon="1.07063">
        <ele>84.73</ele>
        <time>2015-06-13T14:36:16Z</time>
      </trkpt>
      <trkpt lat="44.50712" lon="1.07066">
        <ele>84.73</ele>
        <time>2015-06-13T14:36:17Z</time>
      </trkpt>
      <trkpt lat="44.50776" lon="1.07093">
        <ele>85.21</ele>
        <time>2015-06-13T14:36:31Z</time>
      </trkpt>
      <trkpt lat="44.50803" lon="1.07102">
        <ele>85.21</ele>
        <time>2015-06-13T14:36:37Z</time>
      </trkpt>
      <trkpt lat="44.50807" lon="1.07105">
        <ele>85.21</ele>
        <time>2015-06-13T14:36:38Z</time>
      </trkpt>
      <trkpt lat="44.50811" lon="1.07109">
        <ele>85.21</ele>
        <time>2015-06-13T14:36:39Z</time>
      </trkpt>
      <trkpt lat="44.50813" lon="1.07115">
        <ele>85.21</ele>
        <time>2015-06-13T14:36:40Z</time>
      </trkpt>
      <trkpt lat="44.50815" lon="1.07121">
        <ele>85.21</ele>
        <time>2015-06-13T14:36:41Z</time>
      </trkpt>
      <trkpt lat="44.50816" lon="1.07128">
        <ele>85.21</ele>
        <time>2015-06-13T14:36:42Z</time>
      </trkpt>
      <trkpt lat="44.50817" lon="1.07135">
        <ele>85.21</ele>
        <time>2015-06-13T14:36:43Z</time>
      </trkpt>
      <trkpt lat="44.50818" lon="1.07148">
        <ele>84.73</ele>
        <time>2015-06-13T14:36:45Z</time>
      </trkpt>
      <trkpt lat="44.50819" lon="1.07155">
        <ele>84.73</ele>
        <time>2015-06-13T14:36:46Z</time>
      </trkpt>
      <trkpt lat="44.50831" lon="1.07266">
        <ele>84.25</ele>
        <time>2015-06-13T14:37:03Z</time>
      </trkpt>
      <trkpt lat="44.50832" lon="1.07278">
        <ele>84.73</ele>
        <time>2015-06-13T14:37:05Z</time>
      </trkpt>
      <trkpt lat="44.50832" lon="1.07378">
        <ele>85.69</ele>
        <time>2015-06-13T14:37:20Z</time>
      </trkpt>
      <trkpt lat="44.5083" lon="1.07384">
        <ele>85.69</ele>
        <time>2015-06-13T14:37:21Z</time>
      </trkpt>
      <trkpt lat="44.50809" lon="1.0745">
        <ele>87.62</ele>
        <time>2015-06-13T14:37:34Z</time>
      </trkpt>
      <trkpt lat="44.50812" lon="1.07451">
        <ele>88.1</ele>
        <time>2015-06-13T14:37:35Z</time>
      </trkpt>
      <trkpt lat="44.50814" lon="1.0745">
        <ele>88.1</ele>
        <time>2015-06-13T14:37:36Z</time>
      </trkpt>
      <trkpt lat="44.50815" lon="1.07447">
        <ele>88.1</ele>
        <time>2015-06-13T14:37:37Z</time>
      </trkpt>
      <trkpt lat="44.50817" lon="1.07445">
        <ele>88.58</ele>
        <time>2015-06-13T14:37:38Z</time>
      </trkpt>
      <trkpt lat="44.50818" lon="1.07442">
        <ele>88.58</ele>
        <time>2015-06-13T14:37:39Z</time>
      </trkpt>
      <trkpt lat="44.50838" lon="1.07392">
        <ele>90.5</ele>
        <time>2015-06-13T14:37:52Z</time>
      </trkpt>
      <trkpt lat="44.50874" lon="1.07304">
        <ele>92.9</ele>
        <time>2015-06-13T14:38:07Z</time>
      </trkpt>
      <trkpt lat="44.50895" lon="1.07255">
        <ele>92.9</ele>
        <time>2015-06-13T14:38:15Z</time>
      </trkpt>
      <trkpt lat="44.50936" lon="1.07156">
        <ele>93.39</ele>
        <time>2015-06-13T14:38:30Z</time>
      </trkpt>
      <trkpt lat="44.50953" lon="1.07115">
        <ele>92.9</ele>
        <time>2015-06-13T14:38:36Z</time>
      </trkpt>
      <trkpt lat="44.50971" lon="1.07067">
        <ele>92.42</ele>
        <time>2015-06-13T14:38:42Z</time>
      </trkpt>
      <trkpt lat="44.50985" lon="1.07035">
        <ele>92.9</ele>
        <time>2015-06-13T14:38:46Z</time>
      </trkpt>
      <trkpt lat="44.50988" lon="1.07027">
        <ele>92.9</ele>
        <time>2015-06-13T14:38:47Z</time>
      </trkpt>
      <trkpt lat="44.51053" lon="1.06868">
        <ele>95.79</ele>
        <time>2015-06-13T14:39:05Z</time>
      </trkpt>
      <trkpt lat="44.51061" lon="1.0685">
        <ele>95.79</ele>
        <time>2015-06-13T14:39:07Z</time>
      </trkpt>
      <trkpt lat="44.51065" lon="1.06842">
        <ele>95.79</ele>
        <time>2015-06-13T14:39:08Z</time>
      </trkpt>
      <trkpt lat="44.51092" lon="1.06778">
        <ele>95.31</ele>
        <time>2015-06-13T14:39:15Z</time>
      </trkpt>
      <trkpt lat="44.51148" lon="1.06645">
        <ele>92.9</ele>
        <time>2015-06-13T14:39:30Z</time>
      </trkpt>
      <trkpt lat="44.51192" lon="1.06538">
        <ele>91.94</ele>
        <time>2015-06-13T14:39:43Z</time>
      </trkpt>
      <trkpt lat="44.51194" lon="1.06529">
        <ele>91.94</ele>
        <time>2015-06-13T14:39:44Z</time>
      </trkpt>
      <trkpt lat="44.51197" lon="1.06521">
        <ele>91.94</ele>
        <time>2015-06-13T14:39:45Z</time>
      </trkpt>
      <trkpt lat="44.51226" lon="1.06414">
        <ele>94.83</ele>
        <time>2015-06-13T14:39:58Z</time>
      </trkpt>
      <trkpt lat="44.51235" lon="1.06348">
        <ele>97.71</ele>
        <time>2015-06-13T14:40:06Z</time>
      </trkpt>
      <trkpt lat="44.5124" lon="1.06303">
        <ele>97.71</ele>
        <time>2015-06-13T14:40:12Z</time>
      </trkpt>
      <trkpt lat="44.5124" lon="1.06298">
        <ele>97.71</ele>
        <time>2015-06-13T14:40:13Z</time>
      </trkpt>
      <trkpt lat="44.51239" lon="1.0628">
        <ele>97.23</ele>
        <time>2015-06-13T14:40:16Z</time>
      </trkpt>
      <trkpt lat="44.5124" lon="1.06274">
        <ele>97.23</ele>
        <time>2015-06-13T14:40:17Z</time>
      </trkpt>
      <trkpt lat="44.5124" lon="1.06268">
        <ele>96.75</ele>
        <time>2015-06-13T14:40:18Z</time>
      </trkpt>
      <trkpt lat="44.51243" lon="1.0621">
        <ele>93.39</ele>
        <time>2015-06-13T14:40:29Z</time>
      </trkpt>
      <trkpt lat="44.51242" lon="1.06148">
        <ele>91.94</ele>
        <time>2015-06-13T14:40:41Z</time>
      </trkpt>
      <trkpt lat="44.51241" lon="1.06129">
        <ele>91.46</ele>
        <time>2015-06-13T14:40:44Z</time>
      </trkpt>
      <trkpt lat="44.51241" lon="1.06111">
        <ele>90.98</ele>
        <time>2015-06-13T14:40:47Z</time>
      </trkpt>
      <trkpt lat="44.51241" lon="1.06105">
        <ele>90.98</ele>
        <time>2015-06-13T14:40:48Z</time>
      </trkpt>
      <trkpt lat="44.51242" lon="1.061">
        <ele>90.5</ele>
        <time>2015-06-13T14:40:49Z</time>
      </trkpt>
      <trkpt lat="44.51241" lon="1.06062">
        <ele>90.02</ele>
        <time>2015-06-13T14:40:55Z</time>
      </trkpt>
      <trkpt lat="44.51241" lon="1.06055">
        <ele>90.02</ele>
        <time>2015-06-13T14:40:56Z</time>
      </trkpt>
      <trkpt lat="44.5124" lon="1.06001">
        <ele>90.98</ele>
        <time>2015-06-13T14:41:04Z</time>
      </trkpt>
      <trkpt lat="44.5124" lon="1.05986">
        <ele>90.98</ele>
        <time>2015-06-13T14:41:06Z</time>
      </trkpt>
      <trkpt lat="44.51237" lon="1.05851">
        <ele>89.54</ele>
        <time>2015-06-13T14:41:22Z</time>
      </trkpt>
      <trkpt lat="44.51217" lon="1.05734">
        <ele>81.85</ele>
        <time>2015-06-13T14:41:36Z</time>
      </trkpt>
      <trkpt lat="44.51215" lon="1.05726">
        <ele>81.37</ele>
        <time>2015-06-13T14:41:37Z</time>
      </trkpt>
      <trkpt lat="44.5116" lon="1.05612">
        <ele>81.37</ele>
        <time>2015-06-13T14:41:52Z</time>
      </trkpt>
      <trkpt lat="44.511" lon="1.05516">
        <ele>83.29</ele>
        <time>2015-06-13T14:42:05Z</time>
      </trkpt>
      <trkpt lat="44.5103" lon="1.05396">
        <ele>81.85</ele>
        <time>2015-06-13T14:42:21Z</time>
      </trkpt>
      <trkpt lat="44.5098" lon="1.05318">
        <ele>83.77</ele>
        <time>2015-06-13T14:42:34Z</time>
      </trkpt>
      <trkpt lat="44.50918" lon="1.05246">
        <ele>85.21</ele>
        <time>2015-06-13T14:42:48Z</time>
      </trkpt>
      <trkpt lat="44.50837" lon="1.05179">
        <ele>86.18</ele>
        <time>2015-06-13T14:43:02Z</time>
      </trkpt>
      <trkpt lat="44.50761" lon="1.05121">
        <ele>84.73</ele>
        <time>2015-06-13T14:43:15Z</time>
      </trkpt>
      <trkpt lat="44.50716" lon="1.05088">
        <ele>84.25</ele>
        <time>2015-06-13T14:43:22Z</time>
      </trkpt>
      <trkpt lat="44.5071" lon="1.05084">
        <ele>84.73</ele>
        <time>2015-06-13T14:43:23Z</time>
      </trkpt>
      <trkpt lat="44.50703" lon="1.0508">
        <ele>84.73</ele>
        <time>2015-06-13T14:43:24Z</time>
      </trkpt>
      <trkpt lat="44.50631" lon="1.05046">
        <ele>83.77</ele>
        <time>2015-06-13T14:43:35Z</time>
      </trkpt>
      <trkpt lat="44.50552" lon="1.05017">
        <ele>84.25</ele>
        <time>2015-06-13T14:43:48Z</time>
      </trkpt>
      <trkpt lat="44.50491" lon="1.04998">
        <ele>83.77</ele>
        <time>2015-06-13T14:43:59Z</time>
      </trkpt>
      <trkpt lat="44.50486" lon="1.04997">
        <ele>83.29</ele>
        <time>2015-06-13T14:44:00Z</time>
      </trkpt>
      <trkpt lat="44.50482" lon="1.04995">
        <ele>83.29</ele>
        <time>2015-06-13T14:44:01Z</time>
      </trkpt>
      <trkpt lat="44.50472" lon="1.0499">
        <ele>83.29</ele>
        <time>2015-06-13T14:44:03Z</time>
      </trkpt>
      <trkpt lat="44.50456" lon="1.04985">
        <ele>82.81</ele>
        <time>2015-06-13T14:44:06Z</time>
      </trkpt>
      <trkpt lat="44.5045" lon="1.04983">
        <ele>82.33</ele>
        <time>2015-06-13T14:44:07Z</time>
      </trkpt>
      <trkpt lat="44.50356" lon="1.04951">
        <ele>81.85</ele>
        <time>2015-06-13T14:44:22Z</time>
      </trkpt>
      <trkpt lat="44.50234" lon="1.04914">
        <ele>81.85</ele>
        <time>2015-06-13T14:44:40Z</time>
      </trkpt>
      <trkpt lat="44.50116" lon="1.04887">
        <ele>81.85</ele>
        <time>2015-06-13T14:44:56Z</time>
      </trkpt>
      <trkpt lat="44.50007" lon="1.04873">
        <ele>81.85</ele>
        <time>2015-06-13T14:45:11Z</time>
      </trkpt>
      <trkpt lat="44.49895" lon="1.04859">
        <ele>83.29</ele>
        <time>2015-06-13T14:45:26Z</time>
      </trkpt>
      <trkpt lat="44.49825" lon="1.04849">
        <ele>85.21</ele>
        <time>2015-06-13T14:45:38Z</time>
      </trkpt>
      <trkpt lat="44.49787" lon="1.04846">
        <ele>86.18</ele>
        <time>2015-06-13T14:45:49Z</time>
      </trkpt>
      <trkpt lat="44.49785" lon="1.04848">
        <ele>86.66</ele>
        <time>2015-06-13T14:46:05Z</time>
      </trkpt>
      <trkpt lat="44.49785" lon="1.04847">
        <ele>87.14</ele>
        <time>2015-06-13T14:46:22Z</time>
      </trkpt>
      <trkpt lat="44.49778" lon="1.04847">
        <ele>87.62</ele>
        <time>2015-06-13T14:46:30Z</time>
      </trkpt>
      <trkpt lat="44.49776" lon="1.04847">
        <ele>87.62</ele>
        <time>2015-06-13T14:46:31Z</time>
      </trkpt>
      <trkpt lat="44.49774" lon="1.04847">
        <ele>87.14</ele>
        <time>2015-06-13T14:46:32Z</time>
      </trkpt>
      <trkpt lat="44.49736" lon="1.0485">
        <ele>87.14</ele>
        <time>2015-06-13T14:46:45Z</time>
      </trkpt>
      <trkpt lat="44.49716" lon="1.04852">
        <ele>87.62</ele>
        <time>2015-06-13T14:46:50Z</time>
      </trkpt>
      <trkpt lat="44.49712" lon="1.04852">
        <ele>87.62</ele>
        <time>2015-06-13T14:46:51Z</time>
      </trkpt>
      <trkpt lat="44.49653" lon="1.04858">
        <ele>89.54</ele>
        <time>2015-06-13T14:47:05Z</time>
      </trkpt>
      <trkpt lat="44.49584" lon="1.0486">
        <ele>90.5</ele>
        <time>2015-06-13T14:47:19Z</time>
      </trkpt>
      <trkpt lat="44.49559" lon="1.04856">
        <ele>90.98</ele>
        <time>2015-06-13T14:47:24Z</time>
      </trkpt>
      <trkpt lat="44.49481" lon="1.04842">
        <ele>92.9</ele>
        <time>2015-06-13T14:47:39Z</time>
      </trkpt>
      <trkpt lat="44.49466" lon="1.04838">
        <ele>93.87</ele>
        <time>2015-06-13T14:47:42Z</time>
      </trkpt>
      <trkpt lat="44.49461" lon="1.04837">
        <ele>93.87</ele>
        <time>2015-06-13T14:47:43Z</time>
      </trkpt>
      <trkpt lat="44.49381" lon="1.04806">
        <ele>96.27</ele>
        <time>2015-06-13T14:47:58Z</time>
      </trkpt>
      <trkpt lat="44.49327" lon="1.04776">
        <ele>97.71</ele>
        <time>2015-06-13T14:48:09Z</time>
      </trkpt>
      <trkpt lat="44.49276" lon="1.04741">
        <ele>96.75</ele>
        <time>2015-06-13T14:48:20Z</time>
      </trkpt>
      <trkpt lat="44.49267" lon="1.04734">
        <ele>95.31</ele>
        <time>2015-06-13T14:48:22Z</time>
      </trkpt>
      <trkpt lat="44.492" lon="1.04684">
        <ele>92.42</ele>
        <time>2015-06-13T14:48:38Z</time>
      </trkpt>
      <trkpt lat="44.49174" lon="1.04666">
        <ele>90.98</ele>
        <time>2015-06-13T14:48:49Z</time>
      </trkpt>
      <trkpt lat="44.49173" lon="1.04664">
        <ele>90.98</ele>
        <time>2015-06-13T14:48:50Z</time>
      </trkpt>
      <trkpt lat="44.49172" lon="1.04661">
        <ele>90.98</ele>
        <time>2015-06-13T14:48:51Z</time>
      </trkpt>
      <trkpt lat="44.4917" lon="1.04659">
        <ele>90.98</ele>
        <time>2015-06-13T14:48:52Z</time>
      </trkpt>
      <trkpt lat="44.49169" lon="1.04656">
        <ele>90.5</ele>
        <time>2015-06-13T14:48:53Z</time>
      </trkpt>
      <trkpt lat="44.49167" lon="1.04653">
        <ele>90.5</ele>
        <time>2015-06-13T14:48:54Z</time>
      </trkpt>
      <trkpt lat="44.49156" lon="1.04594">
        <ele>90.02</ele>
        <time>2015-06-13T14:49:07Z</time>
      </trkpt>
      <trkpt lat="44.4917" lon="1.04517">
        <ele>90.02</ele>
        <time>2015-06-13T14:49:24Z</time>
      </trkpt>
      <trkpt lat="44.49196" lon="1.04441">
        <ele>92.42</ele>
        <time>2015-06-13T14:49:42Z</time>
      </trkpt>
      <trkpt lat="44.49206" lon="1.04402">
        <ele>94.35</ele>
        <time>2015-06-13T14:49:54Z</time>
      </trkpt>
      <trkpt lat="44.492" lon="1.04388">
        <ele>94.83</ele>
        <time>2015-06-13T14:50:06Z</time>
      </trkpt>
      <trkpt lat="44.49199" lon="1.04385">
        <ele>94.35</ele>
        <time>2015-06-13T14:50:19Z</time>
      </trkpt>
      <trkpt lat="44.49203" lon="1.0439">
        <ele>96.75</ele>
        <time>2015-06-13T14:50:29Z</time>
      </trkpt>
      <trkpt lat="44.49207" lon="1.04394">
        <ele>97.71</ele>
        <time>2015-06-13T14:50:33Z</time>
      </trkpt>
      <trkpt lat="44.49217" lon="1.04394">
        <ele>97.23</ele>
        <time>2015-06-13T14:50:42Z</time>
      </trkpt>
      <trkpt lat="44.49248" lon="1.04356">
        <ele>98.19</ele>
        <time>2015-06-13T14:50:56Z</time>
      </trkpt>
      <trkpt lat="44.49271" lon="1.04315">
        <ele>100.6</ele>
        <time>2015-06-13T14:51:09Z</time>
      </trkpt>
      <trkpt lat="44.49275" lon="1.04309">
        <ele>101.56</ele>
        <time>2015-06-13T14:51:20Z</time>
      </trkpt>
      <trkpt lat="44.49281" lon="1.04289">
        <ele>101.56</ele>
        <time>2015-06-13T14:51:31Z</time>
      </trkpt>
      <trkpt lat="44.49297" lon="1.04258">
        <ele>101.08</ele>
        <time>2015-06-13T14:51:41Z</time>
      </trkpt>
      <trkpt lat="44.49323" lon="1.04242">
        <ele>104.44</ele>
        <time>2015-06-13T14:51:52Z</time>
      </trkpt>
      <trkpt lat="44.49355" lon="1.04218">
        <ele>103</ele>
        <time>2015-06-13T14:52:04Z</time>
      </trkpt>
      <trkpt lat="44.49407" lon="1.04186">
        <ele>107.32</ele>
        <time>2015-06-13T14:52:22Z</time>
      </trkpt>
      <trkpt lat="44.49438" lon="1.04163">
        <ele>111.65</ele>
        <time>2015-06-13T14:52:36Z</time>
      </trkpt>
      <trkpt lat="44.4947" lon="1.04144">
        <ele>118.38</ele>
        <time>2015-06-13T14:52:51Z</time>
      </trkpt>
      <trkpt lat="44.49481" lon="1.04137">
        <ele>120.3</ele>
        <time>2015-06-13T14:52:57Z</time>
      </trkpt>
      <trkpt lat="44.49514" lon="1.04126">
        <ele>123.19</ele>
        <time>2015-06-13T14:53:14Z</time>
      </trkpt>
      <trkpt lat="44.49545" lon="1.04123">
        <ele>124.63</ele>
        <time>2015-06-13T14:53:29Z</time>
      </trkpt>
      <trkpt lat="44.49565" lon="1.04135">
        <ele>124.15</ele>
        <time>2015-06-13T14:53:42Z</time>
      </trkpt>
      <trkpt lat="44.49571" lon="1.04142">
        <ele>124.15</ele>
        <time>2015-06-13T14:53:46Z</time>
      </trkpt>
      <trkpt lat="44.49577" lon="1.04151">
        <ele>125.11</ele>
        <time>2015-06-13T14:53:51Z</time>
      </trkpt>
      <trkpt lat="44.49599" lon="1.04193">
        <ele>129.92</ele>
        <time>2015-06-13T14:54:09Z</time>
      </trkpt>
      <trkpt lat="44.49618" lon="1.04225">
        <ele>129.92</ele>
        <time>2015-06-13T14:54:23Z</time>
      </trkpt>
      <trkpt lat="44.49644" lon="1.04198">
        <ele>128.95</ele>
        <time>2015-06-13T14:54:36Z</time>
      </trkpt>
      <trkpt lat="44.4969" lon="1.04165">
        <ele>128.95</ele>
        <time>2015-06-13T14:54:54Z</time>
      </trkpt>
      <trkpt lat="44.49724" lon="1.04145">
        <ele>131.84</ele>
        <time>2015-06-13T14:55:11Z</time>
      </trkpt>
      <trkpt lat="44.49753" lon="1.04125">
        <ele>134.24</ele>
        <time>2015-06-13T14:55:26Z</time>
      </trkpt>
      <trkpt lat="44.4978" lon="1.04092">
        <ele>138.09</ele>
        <time>2015-06-13T14:55:42Z</time>
      </trkpt>
      <trkpt lat="44.49803" lon="1.04061">
        <ele>142.41</ele>
        <time>2015-06-13T14:55:58Z</time>
      </trkpt>
      <trkpt lat="44.49823" lon="1.04035">
        <ele>144.82</ele>
        <time>2015-06-13T14:56:14Z</time>
      </trkpt>
      <trkpt lat="44.49825" lon="1.04026">
        <ele>145.3</ele>
        <time>2015-06-13T14:56:19Z</time>
      </trkpt>
      <trkpt lat="44.49825" lon="1.04001">
        <ele>147.7</ele>
        <time>2015-06-13T14:56:31Z</time>
      </trkpt>
      <trkpt lat="44.49827" lon="1.03994">
        <ele>149.62</ele>
        <time>2015-06-13T14:56:42Z</time>
      </trkpt>
      <trkpt lat="44.49828" lon="1.03994">
        <ele>149.62</ele>
        <time>2015-06-13T14:56:43Z</time>
      </trkpt>
      <trkpt lat="44.49835" lon="1.03988">
        <ele>150.1</ele>
        <time>2015-06-13T14:56:56Z</time>
      </trkpt>
      <trkpt lat="44.49835" lon="1.03988">
        <ele>150.1</ele>
        <time>2015-06-13T14:57:18Z</time>
      </trkpt>
      <trkpt lat="44.49835" lon="1.03987">
        <ele>150.1</ele>
        <time>2015-06-13T14:57:46Z</time>
      </trkpt>
      <trkpt lat="44.49835" lon="1.03986">
        <ele>150.1</ele>
        <time>2015-06-13T14:58:16Z</time>
      </trkpt>
      <trkpt lat="44.49835" lon="1.03986">
        <ele>150.1</ele>
        <time>2015-06-13T14:58:42Z</time>
      </trkpt>
      <trkpt lat="44.49838" lon="1.03984">
        <ele>150.58</ele>
        <time>2015-06-13T14:59:05Z</time>
      </trkpt>
      <trkpt lat="44.49858" lon="1.03963">
        <ele>156.83</ele>
        <time>2015-06-13T14:59:20Z</time>
      </trkpt>
      <trkpt lat="44.49879" lon="1.0394">
        <ele>162.6</ele>
        <time>2015-06-13T14:59:36Z</time>
      </trkpt>
      <trkpt lat="44.49888" lon="1.03929">
        <ele>165</ele>
        <time>2015-06-13T14:59:43Z</time>
      </trkpt>
      <trkpt lat="44.49894" lon="1.03922">
        <ele>165.48</ele>
        <time>2015-06-13T14:59:47Z</time>
      </trkpt>
      <trkpt lat="44.49926" lon="1.03895">
        <ele>168.37</ele>
        <time>2015-06-13T15:00:04Z</time>
      </trkpt>
      <trkpt lat="44.49969" lon="1.03866">
        <ele>171.73</ele>
        <time>2015-06-13T15:00:23Z</time>
      </trkpt>
      <trkpt lat="44.50012" lon="1.0384">
        <ele>174.14</ele>
        <time>2015-06-13T15:00:41Z</time>
      </trkpt>
      <trkpt lat="44.50045" lon="1.0382">
        <ele>174.14</ele>
        <time>2015-06-13T15:00:54Z</time>
      </trkpt>
      <trkpt lat="44.50091" lon="1.0379">
        <ele>174.62</ele>
        <time>2015-06-13T15:01:09Z</time>
      </trkpt>
      <trkpt lat="44.50136" lon="1.03767">
        <ele>176.54</ele>
        <time>2015-06-13T15:01:23Z</time>
      </trkpt>
      <trkpt lat="44.50187" lon="1.03748">
        <ele>180.87</ele>
        <time>2015-06-13T15:01:40Z</time>
      </trkpt>
      <trkpt lat="44.50229" lon="1.03739">
        <ele>183.75</ele>
        <time>2015-06-13T15:01:55Z</time>
      </trkpt>
      <trkpt lat="44.50235" lon="1.03733">
        <ele>185.19</ele>
        <time>2015-06-13T15:02:07Z</time>
      </trkpt>
      <trkpt lat="44.50241" lon="1.03732">
        <ele>185.19</ele>
        <time>2015-06-13T15:02:22Z</time>
      </trkpt>
      <trkpt lat="44.50258" lon="1.03731">
        <ele>186.15</ele>
        <time>2015-06-13T15:02:41Z</time>
      </trkpt>
      <trkpt lat="44.50279" lon="1.03731">
        <ele>188.08</ele>
        <time>2015-06-13T15:02:51Z</time>
      </trkpt>
      <trkpt lat="44.50312" lon="1.03734">
        <ele>192.4</ele>
        <time>2015-06-13T15:03:02Z</time>
      </trkpt>
      <trkpt lat="44.50336" lon="1.03734">
        <ele>196.25</ele>
        <time>2015-06-13T15:03:09Z</time>
      </trkpt>
      <trkpt lat="44.50362" lon="1.03734">
        <ele>199.61</ele>
        <time>2015-06-13T15:03:15Z</time>
      </trkpt>
      <trkpt lat="44.50382" lon="1.03735">
        <ele>202.01</ele>
        <time>2015-06-13T15:03:19Z</time>
      </trkpt>
      <trkpt lat="44.50408" lon="1.0374">
        <ele>202.49</ele>
        <time>2015-06-13T15:03:23Z</time>
      </trkpt>
      <trkpt lat="44.50428" lon="1.03741">
        <ele>202.98</ele>
        <time>2015-06-13T15:03:26Z</time>
      </trkpt>
      <trkpt lat="44.50445" lon="1.03731">
        <ele>202.01</ele>
        <time>2015-06-13T15:03:30Z</time>
      </trkpt>
      <trkpt lat="44.5048" lon="1.03715">
        <ele>200.09</ele>
        <time>2015-06-13T15:03:43Z</time>
      </trkpt>
      <trkpt lat="44.50512" lon="1.037">
        <ele>197.69</ele>
        <time>2015-06-13T15:03:55Z</time>
      </trkpt>
      <trkpt lat="44.50543" lon="1.03686">
        <ele>197.21</ele>
        <time>2015-06-13T15:04:08Z</time>
      </trkpt>
      <trkpt lat="44.50581" lon="1.03669">
        <ele>198.65</ele>
        <time>2015-06-13T15:04:22Z</time>
      </trkpt>
      <trkpt lat="44.50586" lon="1.03666">
        <ele>199.13</ele>
        <time>2015-06-13T15:04:24Z</time>
      </trkpt>
      <trkpt lat="44.50593" lon="1.03654">
        <ele>199.13</ele>
        <time>2015-06-13T15:04:29Z</time>
      </trkpt>
      <trkpt lat="44.50599" lon="1.0364">
        <ele>199.61</ele>
        <time>2015-06-13T15:04:34Z</time>
      </trkpt>
      <trkpt lat="44.50628" lon="1.03624">
        <ele>203.94</ele>
        <time>2015-06-13T15:04:46Z</time>
      </trkpt>
      <trkpt lat="44.50651" lon="1.03615">
        <ele>202.98</ele>
        <time>2015-06-13T15:04:56Z</time>
      </trkpt>
      <trkpt lat="44.50676" lon="1.03611">
        <ele>202.98</ele>
        <time>2015-06-13T15:05:07Z</time>
      </trkpt>
      <trkpt lat="44.50703" lon="1.03607">
        <ele>202.01</ele>
        <time>2015-06-13T15:05:19Z</time>
      </trkpt>
      <trkpt lat="44.50721" lon="1.03593">
        <ele>198.65</ele>
        <time>2015-06-13T15:05:29Z</time>
      </trkpt>
      <trkpt lat="44.50745" lon="1.03582">
        <ele>195.77</ele>
        <time>2015-06-13T15:05:41Z</time>
      </trkpt>
      <trkpt lat="44.50749" lon="1.03579">
        <ele>195.28</ele>
        <time>2015-06-13T15:05:43Z</time>
      </trkpt>
      <trkpt lat="44.50758" lon="1.03573">
        <ele>193.36</ele>
        <time>2015-06-13T15:05:56Z</time>
      </trkpt>
      <trkpt lat="44.50762" lon="1.03571">
        <ele>190</ele>
        <time>2015-06-13T15:06:11Z</time>
      </trkpt>
      <trkpt lat="44.50768" lon="1.03568">
        <ele>187.11</ele>
        <time>2015-06-13T15:06:28Z</time>
      </trkpt>
      <trkpt lat="44.50769" lon="1.03567">
        <ele>187.11</ele>
        <time>2015-06-13T15:06:30Z</time>
      </trkpt>
      <trkpt lat="44.5078" lon="1.03562">
        <ele>186.63</ele>
        <time>2015-06-13T15:06:40Z</time>
      </trkpt>
      <trkpt lat="44.50782" lon="1.03556">
        <ele>184.23</ele>
        <time>2015-06-13T15:06:55Z</time>
      </trkpt>
      <trkpt lat="44.50788" lon="1.03553">
        <ele>183.27</ele>
        <time>2015-06-13T15:07:07Z</time>
      </trkpt>
      <trkpt lat="44.50789" lon="1.03553">
        <ele>183.75</ele>
        <time>2015-06-13T15:07:25Z</time>
      </trkpt>
      <trkpt lat="44.5079" lon="1.03552">
        <ele>184.23</ele>
        <time>2015-06-13T15:07:46Z</time>
      </trkpt>
      <trkpt lat="44.5079" lon="1.03552">
        <ele>183.27</ele>
        <time>2015-06-13T15:08:09Z</time>
      </trkpt>
      <trkpt lat="44.5079" lon="1.03552">
        <ele>182.31</ele>
        <time>2015-06-13T15:08:36Z</time>
      </trkpt>
      <trkpt lat="44.5079" lon="1.03552">
        <ele>180.87</ele>
        <time>2015-06-13T15:09:04Z</time>
      </trkpt>
      <trkpt lat="44.5079" lon="1.03553">
        <ele>180.38</ele>
        <time>2015-06-13T15:09:24Z</time>
      </trkpt>
      <trkpt lat="44.5079" lon="1.03553">
        <ele>180.38</ele>
        <time>2015-06-13T15:09:45Z</time>
      </trkpt>
      <trkpt lat="44.50791" lon="1.03553">
        <ele>180.87</ele>
        <time>2015-06-13T15:10:08Z</time>
      </trkpt>
      <trkpt lat="44.5079" lon="1.03553">
        <ele>179.42</ele>
        <time>2015-06-13T15:10:29Z</time>
      </trkpt>
      <trkpt lat="44.50792" lon="1.03554">
        <ele>179.42</ele>
        <time>2015-06-13T15:10:31Z</time>
      </trkpt>
      <trkpt lat="44.50793" lon="1.03554">
        <ele>179.42</ele>
        <time>2015-06-13T15:10:32Z</time>
      </trkpt>
      <trkpt lat="44.50794" lon="1.03555">
        <ele>179.42</ele>
        <time>2015-06-13T15:10:33Z</time>
      </trkpt>
      <trkpt lat="44.50797" lon="1.03556">
        <ele>179.42</ele>
        <time>2015-06-13T15:10:34Z</time>
      </trkpt>
      <trkpt lat="44.50799" lon="1.03556">
        <ele>179.42</ele>
        <time>2015-06-13T15:10:35Z</time>
      </trkpt>
      <trkpt lat="44.50802" lon="1.03555">
        <ele>179.42</ele>
        <time>2015-06-13T15:10:36Z</time>
      </trkpt>
      <trkpt lat="44.50804" lon="1.03555">
        <ele>179.42</ele>
        <time>2015-06-13T15:10:37Z</time>
      </trkpt>
      <trkpt lat="44.50807" lon="1.03555">
        <ele>179.9</ele>
        <time>2015-06-13T15:10:38Z</time>
      </trkpt>
      <trkpt lat="44.5081" lon="1.03555">
        <ele>179.9</ele>
        <time>2015-06-13T15:10:39Z</time>
      </trkpt>
      <trkpt lat="44.50812" lon="1.03556">
        <ele>179.9</ele>
        <time>2015-06-13T15:10:40Z</time>
      </trkpt>
      <trkpt lat="44.50814" lon="1.03557">
        <ele>179.9</ele>
        <time>2015-06-13T15:10:41Z</time>
      </trkpt>
      <trkpt lat="44.50817" lon="1.03558">
        <ele>180.38</ele>
        <time>2015-06-13T15:10:42Z</time>
      </trkpt>
      <trkpt lat="44.50857" lon="1.03568">
        <ele>183.27</ele>
        <time>2015-06-13T15:10:58Z</time>
      </trkpt>
      <trkpt lat="44.50876" lon="1.03584">
        <ele>183.75</ele>
        <time>2015-06-13T15:11:11Z</time>
      </trkpt>
      <trkpt lat="44.50893" lon="1.03598">
        <ele>183.75</ele>
        <time>2015-06-13T15:11:25Z</time>
      </trkpt>
      <trkpt lat="44.50903" lon="1.03603">
        <ele>184.23</ele>
        <time>2015-06-13T15:11:36Z</time>
      </trkpt>
      <trkpt lat="44.50905" lon="1.03603">
        <ele>184.23</ele>
        <time>2015-06-13T15:11:39Z</time>
      </trkpt>
      <trkpt lat="44.5092" lon="1.03612">
        <ele>185.19</ele>
        <time>2015-06-13T15:11:51Z</time>
      </trkpt>
      <trkpt lat="44.50927" lon="1.03614">
        <ele>186.63</ele>
        <time>2015-06-13T15:11:55Z</time>
      </trkpt>
      <trkpt lat="44.50953" lon="1.03622">
        <ele>190</ele>
        <time>2015-06-13T15:12:08Z</time>
      </trkpt>
      <trkpt lat="44.50978" lon="1.03633">
        <ele>191.44</ele>
        <time>2015-06-13T15:12:23Z</time>
      </trkpt>
      <trkpt lat="44.50996" lon="1.0364">
        <ele>192.4</ele>
        <time>2015-06-13T15:12:39Z</time>
      </trkpt>
      <trkpt lat="44.50998" lon="1.0364">
        <ele>193.36</ele>
        <time>2015-06-13T15:12:41Z</time>
      </trkpt>
      <trkpt lat="44.51002" lon="1.03634">
        <ele>194.8</ele>
        <time>2015-06-13T15:12:45Z</time>
      </trkpt>
      <trkpt lat="44.51015" lon="1.03606">
        <ele>199.13</ele>
        <time>2015-06-13T15:12:59Z</time>
      </trkpt>
      <trkpt lat="44.51018" lon="1.03568">
        <ele>201.05</ele>
        <time>2015-06-13T15:13:15Z</time>
      </trkpt>
      <trkpt lat="44.50997" lon="1.03527">
        <ele>199.13</ele>
        <time>2015-06-13T15:13:33Z</time>
      </trkpt>
      <trkpt lat="44.50997" lon="1.03504">
        <ele>199.13</ele>
        <time>2015-06-13T15:13:44Z</time>
      </trkpt>
      <trkpt lat="44.50998" lon="1.03503">
        <ele>199.13</ele>
        <time>2015-06-13T15:13:45Z</time>
      </trkpt>
      <trkpt lat="44.50999" lon="1.03502">
        <ele>199.13</ele>
        <time>2015-06-13T15:13:46Z</time>
      </trkpt>
      <trkpt lat="44.51021" lon="1.03488">
        <ele>203.94</ele>
        <time>2015-06-13T15:14:01Z</time>
      </trkpt>
      <trkpt lat="44.51044" lon="1.03483">
        <ele>208.74</ele>
        <time>2015-06-13T15:14:13Z</time>
      </trkpt>
      <trkpt lat="44.51072" lon="1.03474">
        <ele>212.11</ele>
        <time>2015-06-13T15:14:28Z</time>
      </trkpt>
      <trkpt lat="44.51073" lon="1.03473">
        <ele>212.11</ele>
        <time>2015-06-13T15:14:29Z</time>
      </trkpt>
      <trkpt lat="44.51081" lon="1.03465">
        <ele>212.11</ele>
        <time>2015-06-13T15:14:42Z</time>
      </trkpt>
      <trkpt lat="44.51081" lon="1.03464">
        <ele>210.67</ele>
        <time>2015-06-13T15:15:01Z</time>
      </trkpt>
      <trkpt lat="44.51085" lon="1.03463">
        <ele>211.15</ele>
        <time>2015-06-13T15:15:20Z</time>
      </trkpt>
      <trkpt lat="44.51086" lon="1.03463">
        <ele>211.15</ele>
        <time>2015-06-13T15:15:21Z</time>
      </trkpt>
      <trkpt lat="44.51087" lon="1.03461">
        <ele>211.15</ele>
        <time>2015-06-13T15:15:22Z</time>
      </trkpt>
      <trkpt lat="44.51088" lon="1.0346">
        <ele>211.15</ele>
        <time>2015-06-13T15:15:23Z</time>
      </trkpt>
      <trkpt lat="44.51088" lon="1.03459">
        <ele>211.63</ele>
        <time>2015-06-13T15:15:24Z</time>
      </trkpt>
      <trkpt lat="44.51089" lon="1.03457">
        <ele>212.11</ele>
        <time>2015-06-13T15:15:25Z</time>
      </trkpt>
      <trkpt lat="44.51089" lon="1.03455">
        <ele>212.11</ele>
        <time>2015-06-13T15:15:26Z</time>
      </trkpt>
      <trkpt lat="44.51088" lon="1.03453">
        <ele>212.59</ele>
        <time>2015-06-13T15:15:27Z</time>
      </trkpt>
      <trkpt lat="44.51087" lon="1.0345">
        <ele>212.59</ele>
        <time>2015-06-13T15:15:28Z</time>
      </trkpt>
      <trkpt lat="44.51086" lon="1.03449">
        <ele>213.07</ele>
        <time>2015-06-13T15:15:29Z</time>
      </trkpt>
      <trkpt lat="44.51066" lon="1.03428">
        <ele>213.55</ele>
        <time>2015-06-13T15:15:42Z</time>
      </trkpt>
      <trkpt lat="44.51065" lon="1.03427">
        <ele>214.03</ele>
        <time>2015-06-13T15:15:53Z</time>
      </trkpt>
      <trkpt lat="44.51051" lon="1.03412">
        <ele>214.99</ele>
        <time>2015-06-13T15:16:07Z</time>
      </trkpt>
      <trkpt lat="44.51023" lon="1.03373">
        <ele>219.32</ele>
        <time>2015-06-13T15:16:21Z</time>
      </trkpt>
      <trkpt lat="44.51011" lon="1.03325">
        <ele>221.72</ele>
        <time>2015-06-13T15:16:35Z</time>
      </trkpt>
      <trkpt lat="44.50993" lon="1.03282">
        <ele>226.53</ele>
        <time>2015-06-13T15:16:48Z</time>
      </trkpt>
      <trkpt lat="44.50983" lon="1.0325">
        <ele>227.49</ele>
        <time>2015-06-13T15:16:59Z</time>
      </trkpt>
      <trkpt lat="44.5097" lon="1.03203">
        <ele>227.97</ele>
        <time>2015-06-13T15:17:13Z</time>
      </trkpt>
      <trkpt lat="44.50955" lon="1.03151">
        <ele>227.49</ele>
        <time>2015-06-13T15:17:28Z</time>
      </trkpt>
      <trkpt lat="44.5095" lon="1.03096">
        <ele>226.53</ele>
        <time>2015-06-13T15:17:40Z</time>
      </trkpt>
      <trkpt lat="44.50948" lon="1.03085">
        <ele>226.53</ele>
        <time>2015-06-13T15:17:42Z</time>
      </trkpt>
      <trkpt lat="44.50922" lon="1.03003">
        <ele>223.16</ele>
        <time>2015-06-13T15:17:52Z</time>
      </trkpt>
      <trkpt lat="44.50903" lon="1.02881">
        <ele>219.8</ele>
        <time>2015-06-13T15:18:03Z</time>
      </trkpt>
      <trkpt lat="44.50867" lon="1.02693">
        <ele>212.11</ele>
        <time>2015-06-13T15:18:17Z</time>
      </trkpt>
      <trkpt lat="44.50846" lon="1.02547">
        <ele>203.94</ele>
        <time>2015-06-13T15:18:28Z</time>
      </trkpt>
      <trkpt lat="44.50823" lon="1.02454">
        <ele>196.73</ele>
        <time>2015-06-13T15:18:34Z</time>
      </trkpt>
      <trkpt lat="44.50817" lon="1.02439">
        <ele>195.77</ele>
        <time>2015-06-13T15:18:35Z</time>
      </trkpt>
      <trkpt lat="44.5081" lon="1.02425">
        <ele>194.32</ele>
        <time>2015-06-13T15:18:36Z</time>
      </trkpt>
      <trkpt lat="44.50803" lon="1.02412">
        <ele>192.88</ele>
        <time>2015-06-13T15:18:37Z</time>
      </trkpt>
      <trkpt lat="44.50795" lon="1.024">
        <ele>191.92</ele>
        <time>2015-06-13T15:18:38Z</time>
      </trkpt>
      <trkpt lat="44.50788" lon="1.02389">
        <ele>190.96</ele>
        <time>2015-06-13T15:18:39Z</time>
      </trkpt>
      <trkpt lat="44.50714" lon="1.02286">
        <ele>185.19</ele>
        <time>2015-06-13T15:18:50Z</time>
      </trkpt>
      <trkpt lat="44.50672" lon="1.02207">
        <ele>183.75</ele>
        <time>2015-06-13T15:19:01Z</time>
      </trkpt>
      <trkpt lat="44.50662" lon="1.02183">
        <ele>183.75</ele>
        <time>2015-06-13T15:19:10Z</time>
      </trkpt>
      <trkpt lat="44.50655" lon="1.02149">
        <ele>186.63</ele>
        <time>2015-06-13T15:19:20Z</time>
      </trkpt>
      <trkpt lat="44.50655" lon="1.02145">
        <ele>187.11</ele>
        <time>2015-06-13T15:19:21Z</time>
      </trkpt>
      <trkpt lat="44.50662" lon="1.02099">
        <ele>187.59</ele>
        <time>2015-06-13T15:19:34Z</time>
      </trkpt>
      <trkpt lat="44.50666" lon="1.0205">
        <ele>190.48</ele>
        <time>2015-06-13T15:19:47Z</time>
      </trkpt>
      <trkpt lat="44.50675" lon="1.0198">
        <ele>193.84</ele>
        <time>2015-06-13T15:20:02Z</time>
      </trkpt>
      <trkpt lat="44.50675" lon="1.01945">
        <ele>194.32</ele>
        <time>2015-06-13T15:20:08Z</time>
      </trkpt>
      <trkpt lat="44.50675" lon="1.01939">
        <ele>194.32</ele>
        <time>2015-06-13T15:20:09Z</time>
      </trkpt>
      <trkpt lat="44.50675" lon="1.01933">
        <ele>194.32</ele>
        <time>2015-06-13T15:20:10Z</time>
      </trkpt>
      <trkpt lat="44.50677" lon="1.01927">
        <ele>194.32</ele>
        <time>2015-06-13T15:20:11Z</time>
      </trkpt>
      <trkpt lat="44.50678" lon="1.01921">
        <ele>194.32</ele>
        <time>2015-06-13T15:20:12Z</time>
      </trkpt>
      <trkpt lat="44.50681" lon="1.01916">
        <ele>194.8</ele>
        <time>2015-06-13T15:20:13Z</time>
      </trkpt>
      <trkpt lat="44.50683" lon="1.01911">
        <ele>194.32</ele>
        <time>2015-06-13T15:20:14Z</time>
      </trkpt>
      <trkpt lat="44.50693" lon="1.01893">
        <ele>194.32</ele>
        <time>2015-06-13T15:20:18Z</time>
      </trkpt>
      <trkpt lat="44.50695" lon="1.01888">
        <ele>193.84</ele>
        <time>2015-06-13T15:20:19Z</time>
      </trkpt>
      <trkpt lat="44.50705" lon="1.01868">
        <ele>194.32</ele>
        <time>2015-06-13T15:20:23Z</time>
      </trkpt>
      <trkpt lat="44.50707" lon="1.01863">
        <ele>193.84</ele>
        <time>2015-06-13T15:20:24Z</time>
      </trkpt>
      <trkpt lat="44.50708" lon="1.01858">
        <ele>193.84</ele>
        <time>2015-06-13T15:20:25Z</time>
      </trkpt>
      <trkpt lat="44.50719" lon="1.01788">
        <ele>195.28</ele>
        <time>2015-06-13T15:20:39Z</time>
      </trkpt>
      <trkpt lat="44.50709" lon="1.01737">
        <ele>196.25</ele>
        <time>2015-06-13T15:20:51Z</time>
      </trkpt>
      <trkpt lat="44.50685" lon="1.01689">
        <ele>200.57</ele>
        <time>2015-06-13T15:21:06Z</time>
      </trkpt>
      <trkpt lat="44.50673" lon="1.01656">
        <ele>203.94</ele>
        <time>2015-06-13T15:21:17Z</time>
      </trkpt>
      <trkpt lat="44.50673" lon="1.01651">
        <ele>203.94</ele>
        <time>2015-06-13T15:21:19Z</time>
      </trkpt>
      <trkpt lat="44.50664" lon="1.01619">
        <ele>206.82</ele>
        <time>2015-06-13T15:21:29Z</time>
      </trkpt>
      <trkpt lat="44.50659" lon="1.01611">
        <ele>207.78</ele>
        <time>2015-06-13T15:21:33Z</time>
      </trkpt>
      <trkpt lat="44.50657" lon="1.01607">
        <ele>207.78</ele>
        <time>2015-06-13T15:21:48Z</time>
      </trkpt>
      <trkpt lat="44.50657" lon="1.01606">
        <ele>208.26</ele>
        <time>2015-06-13T15:22:13Z</time>
      </trkpt>
      <trkpt lat="44.50656" lon="1.01601">
        <ele>208.26</ele>
        <time>2015-06-13T15:22:35Z</time>
      </trkpt>
      <trkpt lat="44.50633" lon="1.01544">
        <ele>207.78</ele>
        <time>2015-06-13T15:22:43Z</time>
      </trkpt>
      <trkpt lat="44.50604" lon="1.01449">
        <ele>199.61</ele>
        <time>2015-06-13T15:22:52Z</time>
      </trkpt>
      <trkpt lat="44.50603" lon="1.01441">
        <ele>198.65</ele>
        <time>2015-06-13T15:22:53Z</time>
      </trkpt>
      <trkpt lat="44.50598" lon="1.01391">
        <ele>190</ele>
        <time>2015-06-13T15:23:02Z</time>
      </trkpt>
      <trkpt lat="44.50598" lon="1.01387">
        <ele>189.52</ele>
        <time>2015-06-13T15:23:03Z</time>
      </trkpt>
      <trkpt lat="44.50605" lon="1.01333">
        <ele>181.83</ele>
        <time>2015-06-13T15:23:14Z</time>
      </trkpt>
      <trkpt lat="44.5062" lon="1.0127">
        <ele>174.62</ele>
        <time>2015-06-13T15:23:25Z</time>
      </trkpt>
      <trkpt lat="44.50625" lon="1.01253">
        <ele>174.14</ele>
        <time>2015-06-13T15:23:27Z</time>
      </trkpt>
      <trkpt lat="44.50637" lon="1.01196">
        <ele>173.17</ele>
        <time>2015-06-13T15:23:34Z</time>
      </trkpt>
      <trkpt lat="44.50644" lon="1.01177">
        <ele>171.73</ele>
        <time>2015-06-13T15:23:37Z</time>
      </trkpt>
      <trkpt lat="44.50666" lon="1.01137">
        <ele>166.45</ele>
        <time>2015-06-13T15:23:43Z</time>
      </trkpt>
      <trkpt lat="44.5067" lon="1.01126">
        <ele>165</ele>
        <time>2015-06-13T15:23:45Z</time>
      </trkpt>
      <trkpt lat="44.50682" lon="1.01105">
        <ele>161.16</ele>
        <time>2015-06-13T15:23:49Z</time>
      </trkpt>
      <trkpt lat="44.50699" lon="1.01079">
        <ele>155.87</ele>
        <time>2015-06-13T15:23:55Z</time>
      </trkpt>
      <trkpt lat="44.50706" lon="1.01067">
        <ele>154.91</ele>
        <time>2015-06-13T15:23:57Z</time>
      </trkpt>
      <trkpt lat="44.50726" lon="1.01041">
        <ele>152.03</ele>
        <time>2015-06-13T15:24:03Z</time>
      </trkpt>
      <trkpt lat="44.50755" lon="1.00997">
        <ele>143.37</ele>
        <time>2015-06-13T15:24:10Z</time>
      </trkpt>
      <trkpt lat="44.50765" lon="1.00967">
        <ele>137.13</ele>
        <time>2015-06-13T15:24:13Z</time>
      </trkpt>
      <trkpt lat="44.50774" lon="1.00933">
        <ele>132.32</ele>
        <time>2015-06-13T15:24:16Z</time>
      </trkpt>
      <trkpt lat="44.50783" lon="1.00902">
        <ele>127.03</ele>
        <time>2015-06-13T15:24:19Z</time>
      </trkpt>
      <trkpt lat="44.50775" lon="1.00875">
        <ele>120.3</ele>
        <time>2015-06-13T15:24:24Z</time>
      </trkpt>
      <trkpt lat="44.50739" lon="1.00822">
        <ele>113.57</ele>
        <time>2015-06-13T15:24:34Z</time>
      </trkpt>
      <trkpt lat="44.5074" lon="1.00819">
        <ele>113.09</ele>
        <time>2015-06-13T15:24:35Z</time>
      </trkpt>
      <trkpt lat="44.50741" lon="1.00817">
        <ele>113.09</ele>
        <time>2015-06-13T15:24:36Z</time>
      </trkpt>
      <trkpt lat="44.50746" lon="1.00812">
        <ele>112.13</ele>
        <time>2015-06-13T15:24:40Z</time>
      </trkpt>
      <trkpt lat="44.50748" lon="1.00811">
        <ele>112.13</ele>
        <time>2015-06-13T15:24:41Z</time>
      </trkpt>
      <trkpt lat="44.50748" lon="1.0081">
        <ele>110.21</ele>
        <time>2015-06-13T15:24:53Z</time>
      </trkpt>
      <trkpt lat="44.50747" lon="1.00809">
        <ele>109.73</ele>
        <time>2015-06-13T15:25:10Z</time>
      </trkpt>
      <trkpt lat="44.50749" lon="1.00809">
        <ele>109.25</ele>
        <time>2015-06-13T15:25:33Z</time>
      </trkpt>
      <trkpt lat="44.50749" lon="1.00809">
        <ele>109.73</ele>
        <time>2015-06-13T15:25:54Z</time>
      </trkpt>
      <trkpt lat="44.50765" lon="1.00796">
        <ele>109.73</ele>
        <time>2015-06-13T15:26:07Z</time>
      </trkpt>
      <trkpt lat="44.50794" lon="1.00757">
        <ele>108.77</ele>
        <time>2015-06-13T15:26:15Z</time>
      </trkpt>
      <trkpt lat="44.50805" lon="1.00746">
        <ele>108.77</ele>
        <time>2015-06-13T15:26:17Z</time>
      </trkpt>
      <trkpt lat="44.5088" lon="1.00703">
        <ele>109.25</ele>
        <time>2015-06-13T15:26:29Z</time>
      </trkpt>
      <trkpt lat="44.50886" lon="1.00698">
        <ele>109.25</ele>
        <time>2015-06-13T15:26:30Z</time>
      </trkpt>
      <trkpt lat="44.50936" lon="1.00646">
        <ele>105.4</ele>
        <time>2015-06-13T15:26:39Z</time>
      </trkpt>
      <trkpt lat="44.50939" lon="1.00638">
        <ele>104.44</ele>
        <time>2015-06-13T15:26:40Z</time>
      </trkpt>
      <trkpt lat="44.50941" lon="1.0063">
        <ele>103.48</ele>
        <time>2015-06-13T15:26:41Z</time>
      </trkpt>
      <trkpt lat="44.5094" lon="1.00623">
        <ele>102.52</ele>
        <time>2015-06-13T15:26:42Z</time>
      </trkpt>
      <trkpt lat="44.50938" lon="1.00616">
        <ele>102.04</ele>
        <time>2015-06-13T15:26:43Z</time>
      </trkpt>
      <trkpt lat="44.50935" lon="1.0061">
        <ele>101.08</ele>
        <time>2015-06-13T15:26:44Z</time>
      </trkpt>
      <trkpt lat="44.50932" lon="1.00605">
        <ele>100.6</ele>
        <time>2015-06-13T15:26:45Z</time>
      </trkpt>
      <trkpt lat="44.50929" lon="1.006">
        <ele>99.63</ele>
        <time>2015-06-13T15:26:46Z</time>
      </trkpt>
      <trkpt lat="44.50926" lon="1.00594">
        <ele>99.15</ele>
        <time>2015-06-13T15:26:47Z</time>
      </trkpt>
      <trkpt lat="44.50901" lon="1.00538">
        <ele>95.79</ele>
        <time>2015-06-13T15:26:57Z</time>
      </trkpt>
      <trkpt lat="44.50887" lon="1.00505">
        <ele>94.35</ele>
        <time>2015-06-13T15:27:02Z</time>
      </trkpt>
      <trkpt lat="44.50885" lon="1.00497">
        <ele>93.87</ele>
        <time>2015-06-13T15:27:03Z</time>
      </trkpt>
      <trkpt lat="44.50881" lon="1.00481">
        <ele>93.87</ele>
        <time>2015-06-13T15:27:05Z</time>
      </trkpt>
      <trkpt lat="44.50877" lon="1.00472">
        <ele>93.87</ele>
        <time>2015-06-13T15:27:06Z</time>
      </trkpt>
      <trkpt lat="44.50873" lon="1.00465">
        <ele>93.87</ele>
        <time>2015-06-13T15:27:07Z</time>
      </trkpt>
      <trkpt lat="44.50812" lon="1.00373">
        <ele>93.39</ele>
        <time>2015-06-13T15:27:19Z</time>
      </trkpt>
      <trkpt lat="44.50745" lon="1.00283">
        <ele>92.9</ele>
        <time>2015-06-13T15:27:31Z</time>
      </trkpt>
      <trkpt lat="44.50732" lon="1.00261">
        <ele>92.9</ele>
        <time>2015-06-13T15:27:34Z</time>
      </trkpt>
      <trkpt lat="44.5072" lon="1.00237">
        <ele>93.39</ele>
        <time>2015-06-13T15:27:38Z</time>
      </trkpt>
      <trkpt lat="44.50718" lon="1.00231">
        <ele>93.39</ele>
        <time>2015-06-13T15:27:39Z</time>
      </trkpt>
      <trkpt lat="44.50715" lon="1.00223">
        <ele>93.39</ele>
        <time>2015-06-13T15:27:40Z</time>
      </trkpt>
      <trkpt lat="44.50709" lon="1.00207">
        <ele>93.39</ele>
        <time>2015-06-13T15:27:42Z</time>
      </trkpt>
      <trkpt lat="44.50692" lon="1.00134">
        <ele>93.39</ele>
        <time>2015-06-13T15:27:51Z</time>
      </trkpt>
      <trkpt lat="44.50689" lon="1.00121">
        <ele>93.87</ele>
        <time>2015-06-13T15:27:53Z</time>
      </trkpt>
      <trkpt lat="44.50677" lon="1.00071">
        <ele>98.67</ele>
        <time>2015-06-13T15:28:05Z</time>
      </trkpt>
      <trkpt lat="44.50657" lon="1.00034">
        <ele>103.48</ele>
        <time>2015-06-13T15:28:17Z</time>
      </trkpt>
      <trkpt lat="44.50613" lon="1.00004">
        <ele>102.52</ele>
        <time>2015-06-13T15:28:31Z</time>
      </trkpt>
      <trkpt lat="44.50563" lon="0.99975">
        <ele>102.04</ele>
        <time>2015-06-13T15:28:46Z</time>
      </trkpt>
      <trkpt lat="44.50539" lon="0.99949">
        <ele>100.6</ele>
        <time>2015-06-13T15:28:53Z</time>
      </trkpt>
      <trkpt lat="44.50536" lon="0.99943">
        <ele>100.11</ele>
        <time>2015-06-13T15:28:54Z</time>
      </trkpt>
      <trkpt lat="44.50532" lon="0.99937">
        <ele>99.63</ele>
        <time>2015-06-13T15:28:55Z</time>
      </trkpt>
      <trkpt lat="44.50529" lon="0.9993">
        <ele>99.15</ele>
        <time>2015-06-13T15:28:56Z</time>
      </trkpt>
      <trkpt lat="44.50525" lon="0.99924">
        <ele>98.67</ele>
        <time>2015-06-13T15:28:57Z</time>
      </trkpt>
      <trkpt lat="44.50495" lon="0.99873">
        <ele>94.83</ele>
        <time>2015-06-13T15:29:04Z</time>
      </trkpt>
      <trkpt lat="44.50489" lon="0.99867">
        <ele>94.35</ele>
        <time>2015-06-13T15:29:05Z</time>
      </trkpt>
      <trkpt lat="44.50483" lon="0.99861">
        <ele>93.87</ele>
        <time>2015-06-13T15:29:06Z</time>
      </trkpt>
      <trkpt lat="44.50476" lon="0.99857">
        <ele>93.39</ele>
        <time>2015-06-13T15:29:07Z</time>
      </trkpt>
      <trkpt lat="44.50469" lon="0.99853">
        <ele>92.9</ele>
        <time>2015-06-13T15:29:08Z</time>
      </trkpt>
      <trkpt lat="44.50453" lon="0.99847">
        <ele>91.46</ele>
        <time>2015-06-13T15:29:10Z</time>
      </trkpt>
      <trkpt lat="44.50444" lon="0.99845">
        <ele>90.98</ele>
        <time>2015-06-13T15:29:11Z</time>
      </trkpt>
      <trkpt lat="44.50435" lon="0.99845">
        <ele>90.5</ele>
        <time>2015-06-13T15:29:12Z</time>
      </trkpt>
      <trkpt lat="44.50355" lon="0.99853">
        <ele>86.66</ele>
        <time>2015-06-13T15:29:22Z</time>
      </trkpt>
      <trkpt lat="44.50349" lon="0.99852">
        <ele>86.18</ele>
        <time>2015-06-13T15:29:23Z</time>
      </trkpt>
      <trkpt lat="44.50343" lon="0.99851">
        <ele>85.69</ele>
        <time>2015-06-13T15:29:24Z</time>
      </trkpt>
      <trkpt lat="44.50331" lon="0.99848">
        <ele>85.21</ele>
        <time>2015-06-13T15:29:26Z</time>
      </trkpt>
      <trkpt lat="44.50322" lon="0.99843">
        <ele>85.21</ele>
        <time>2015-06-13T15:29:28Z</time>
      </trkpt>
      <trkpt lat="44.50317" lon="0.99841">
        <ele>85.21</ele>
        <time>2015-06-13T15:29:29Z</time>
      </trkpt>
      <trkpt lat="44.503" lon="0.99831">
        <ele>86.18</ele>
        <time>2015-06-13T15:29:37Z</time>
      </trkpt>
      <trkpt lat="44.50256" lon="0.99802">
        <ele>87.14</ele>
        <time>2015-06-13T15:29:49Z</time>
      </trkpt>
      <trkpt lat="44.50208" lon="0.99761">
        <ele>90.02</ele>
        <time>2015-06-13T15:30:00Z</time>
      </trkpt>
      <trkpt lat="44.50175" lon="0.99723">
        <ele>92.42</ele>
        <time>2015-06-13T15:30:11Z</time>
      </trkpt>
      <trkpt lat="44.50142" lon="0.9967">
        <ele>91.46</ele>
        <time>2015-06-13T15:30:19Z</time>
      </trkpt>
      <trkpt lat="44.5011" lon="0.99597">
        <ele>90.98</ele>
        <time>2015-06-13T15:30:29Z</time>
      </trkpt>
      <trkpt lat="44.50107" lon="0.9959">
        <ele>90.5</ele>
        <time>2015-06-13T15:30:30Z</time>
      </trkpt>
      <trkpt lat="44.50098" lon="0.99571">
        <ele>90.5</ele>
        <time>2015-06-13T15:30:33Z</time>
      </trkpt>
      <trkpt lat="44.50077" lon="0.99522">
        <ele>89.54</ele>
        <time>2015-06-13T15:30:41Z</time>
      </trkpt>
      <trkpt lat="44.50075" lon="0.99516">
        <ele>89.54</ele>
        <time>2015-06-13T15:30:42Z</time>
      </trkpt>
      <trkpt lat="44.50074" lon="0.99509">
        <ele>89.54</ele>
        <time>2015-06-13T15:30:43Z</time>
      </trkpt>
      <trkpt lat="44.50069" lon="0.99475">
        <ele>89.54</ele>
        <time>2015-06-13T15:30:48Z</time>
      </trkpt>
      <trkpt lat="44.50046" lon="0.99393">
        <ele>92.42</ele>
        <time>2015-06-13T15:31:00Z</time>
      </trkpt>
      <trkpt lat="44.50043" lon="0.99387">
        <ele>92.42</ele>
        <time>2015-06-13T15:31:01Z</time>
      </trkpt>
      <trkpt lat="44.5004" lon="0.99381">
        <ele>92.9</ele>
        <time>2015-06-13T15:31:02Z</time>
      </trkpt>
      <trkpt lat="44.50038" lon="0.99375">
        <ele>93.39</ele>
        <time>2015-06-13T15:31:03Z</time>
      </trkpt>
      <trkpt lat="44.50035" lon="0.99371">
        <ele>93.39</ele>
        <time>2015-06-13T15:31:04Z</time>
      </trkpt>
      <trkpt lat="44.50032" lon="0.99368">
        <ele>93.87</ele>
        <time>2015-06-13T15:31:05Z</time>
      </trkpt>
      <trkpt lat="44.50012" lon="0.99342">
        <ele>93.87</ele>
        <time>2015-06-13T15:31:15Z</time>
      </trkpt>
      <trkpt lat="44.50011" lon="0.99339">
        <ele>93.87</ele>
        <time>2015-06-13T15:31:17Z</time>
      </trkpt>
      <trkpt lat="44.5001" lon="0.99338">
        <ele>93.87</ele>
        <time>2015-06-13T15:31:18Z</time>
      </trkpt>
      <trkpt lat="44.50008" lon="0.99337">
        <ele>93.87</ele>
        <time>2015-06-13T15:31:19Z</time>
      </trkpt>
      <trkpt lat="44.50007" lon="0.99336">
        <ele>92.9</ele>
        <time>2015-06-13T15:31:20Z</time>
      </trkpt>
      <trkpt lat="44.50006" lon="0.99334">
        <ele>91.94</ele>
        <time>2015-06-13T15:31:21Z</time>
      </trkpt>
      <trkpt lat="44.50005" lon="0.99333">
        <ele>91.46</ele>
        <time>2015-06-13T15:31:22Z</time>
      </trkpt>
      <trkpt lat="44.50003" lon="0.99331">
        <ele>90.98</ele>
        <time>2015-06-13T15:31:23Z</time>
      </trkpt>
      <trkpt lat="44.50001" lon="0.9933">
        <ele>90.98</ele>
        <time>2015-06-13T15:31:24Z</time>
      </trkpt>
      <trkpt lat="44.5" lon="0.99329">
        <ele>90.5</ele>
        <time>2015-06-13T15:31:25Z</time>
      </trkpt>
      <trkpt lat="44.49998" lon="0.99328">
        <ele>90.02</ele>
        <time>2015-06-13T15:31:26Z</time>
      </trkpt>
      <trkpt lat="44.49996" lon="0.99327">
        <ele>89.54</ele>
        <time>2015-06-13T15:31:27Z</time>
      </trkpt>
      <trkpt lat="44.49981" lon="0.99315">
        <ele>86.18</ele>
        <time>2015-06-13T15:31:41Z</time>
      </trkpt>
      <trkpt lat="44.49963" lon="0.99307">
        <ele>83.77</ele>
        <time>2015-06-13T15:31:52Z</time>
      </trkpt>
      <trkpt lat="44.49953" lon="0.993">
        <ele>83.29</ele>
        <time>2015-06-13T15:31:55Z</time>
      </trkpt>
      <trkpt lat="44.49951" lon="0.99297">
        <ele>83.29</ele>
        <time>2015-06-13T15:31:56Z</time>
      </trkpt>
      <trkpt lat="44.4995" lon="0.99293">
        <ele>83.29</ele>
        <time>2015-06-13T15:31:57Z</time>
      </trkpt>
      <trkpt lat="44.49948" lon="0.99288">
        <ele>83.29</ele>
        <time>2015-06-13T15:31:58Z</time>
      </trkpt>
      <trkpt lat="44.49948" lon="0.99283">
        <ele>82.81</ele>
        <time>2015-06-13T15:31:59Z</time>
      </trkpt>
      <trkpt lat="44.49937" lon="0.99194">
        <ele>80.41</ele>
        <time>2015-06-13T15:32:11Z</time>
      </trkpt>
      <trkpt lat="44.49923" lon="0.99036">
        <ele>76.08</ele>
        <time>2015-06-13T15:32:28Z</time>
      </trkpt>
      <trkpt lat="44.49921" lon="0.98951">
        <ele>75.6</ele>
        <time>2015-06-13T15:32:37Z</time>
      </trkpt>
      <trkpt lat="44.49918" lon="0.98944">
        <ele>75.6</ele>
        <time>2015-06-13T15:32:38Z</time>
      </trkpt>
      <trkpt lat="44.49914" lon="0.98939">
        <ele>75.6</ele>
        <time>2015-06-13T15:32:39Z</time>
      </trkpt>
      <trkpt lat="44.49909" lon="0.98936">
        <ele>76.08</ele>
        <time>2015-06-13T15:32:40Z</time>
      </trkpt>
      <trkpt lat="44.49904" lon="0.98933">
        <ele>76.08</ele>
        <time>2015-06-13T15:32:41Z</time>
      </trkpt>
      <trkpt lat="44.49833" lon="0.98894">
        <ele>77.52</ele>
        <time>2015-06-13T15:32:54Z</time>
      </trkpt>
      <trkpt lat="44.4983" lon="0.98891">
        <ele>77.52</ele>
        <time>2015-06-13T15:32:55Z</time>
      </trkpt>
      <trkpt lat="44.49824" lon="0.98885">
        <ele>78</ele>
        <time>2015-06-13T15:32:58Z</time>
      </trkpt>
      <trkpt lat="44.49823" lon="0.98883">
        <ele>78</ele>
        <time>2015-06-13T15:33:07Z</time>
      </trkpt>
      <trkpt lat="44.49821" lon="0.98882">
        <ele>78</ele>
        <time>2015-06-13T15:33:08Z</time>
      </trkpt>
      <trkpt lat="44.49819" lon="0.9888">
        <ele>78</ele>
        <time>2015-06-13T15:33:09Z</time>
      </trkpt>
      <trkpt lat="44.49815" lon="0.98879">
        <ele>78</ele>
        <time>2015-06-13T15:33:10Z</time>
      </trkpt>
      <trkpt lat="44.49811" lon="0.98879">
        <ele>78</ele>
        <time>2015-06-13T15:33:11Z</time>
      </trkpt>
      <trkpt lat="44.49807" lon="0.98878">
        <ele>78</ele>
        <time>2015-06-13T15:33:12Z</time>
      </trkpt>
      <trkpt lat="44.49803" lon="0.98877">
        <ele>78</ele>
        <time>2015-06-13T15:33:13Z</time>
      </trkpt>
      <trkpt lat="44.49798" lon="0.98876">
        <ele>78</ele>
        <time>2015-06-13T15:33:14Z</time>
      </trkpt>
      <trkpt lat="44.49793" lon="0.98874">
        <ele>78</ele>
        <time>2015-06-13T15:33:15Z</time>
      </trkpt>
      <trkpt lat="44.49789" lon="0.98871">
        <ele>78</ele>
        <time>2015-06-13T15:33:16Z</time>
      </trkpt>
      <trkpt lat="44.49785" lon="0.98867">
        <ele>78</ele>
        <time>2015-06-13T15:33:17Z</time>
      </trkpt>
      <trkpt lat="44.49781" lon="0.98862">
        <ele>78</ele>
        <time>2015-06-13T15:33:18Z</time>
      </trkpt>
      <trkpt lat="44.49774" lon="0.98853">
        <ele>77.52</ele>
        <time>2015-06-13T15:33:20Z</time>
      </trkpt>
      <trkpt lat="44.49772" lon="0.98847">
        <ele>77.04</ele>
        <time>2015-06-13T15:33:21Z</time>
      </trkpt>
      <trkpt lat="44.4977" lon="0.98842">
        <ele>77.04</ele>
        <time>2015-06-13T15:33:22Z</time>
      </trkpt>
      <trkpt lat="44.49768" lon="0.98837">
        <ele>77.04</ele>
        <time>2015-06-13T15:33:23Z</time>
      </trkpt>
      <trkpt lat="44.49767" lon="0.98833">
        <ele>77.04</ele>
        <time>2015-06-13T15:33:24Z</time>
      </trkpt>
      <trkpt lat="44.49766" lon="0.9883">
        <ele>77.04</ele>
        <time>2015-06-13T15:33:25Z</time>
      </trkpt>
      <trkpt lat="44.49762" lon="0.98816">
        <ele>76.56</ele>
        <time>2015-06-13T15:33:35Z</time>
      </trkpt>
      <trkpt lat="44.4976" lon="0.98813">
        <ele>76.56</ele>
        <time>2015-06-13T15:33:36Z</time>
      </trkpt>
      <trkpt lat="44.49756" lon="0.98811">
        <ele>76.56</ele>
        <time>2015-06-13T15:33:37Z</time>
      </trkpt>
      <trkpt lat="44.49751" lon="0.9881">
        <ele>76.56</ele>
        <time>2015-06-13T15:33:38Z</time>
      </trkpt>
      <trkpt lat="44.49747" lon="0.98809">
        <ele>76.08</ele>
        <time>2015-06-13T15:33:39Z</time>
      </trkpt>
      <trkpt lat="44.4972" lon="0.98796">
        <ele>75.12</ele>
        <time>2015-06-13T15:33:45Z</time>
      </trkpt>
      <trkpt lat="44.49715" lon="0.98795">
        <ele>75.12</ele>
        <time>2015-06-13T15:33:46Z</time>
      </trkpt>
      <trkpt lat="44.4971" lon="0.98794">
        <ele>75.12</ele>
        <time>2015-06-13T15:33:47Z</time>
      </trkpt>
      <trkpt lat="44.49707" lon="0.98792">
        <ele>75.12</ele>
        <time>2015-06-13T15:33:48Z</time>
      </trkpt>
      <trkpt lat="44.49705" lon="0.9879">
        <ele>74.64</ele>
        <time>2015-06-13T15:33:49Z</time>
      </trkpt>
      <trkpt lat="44.49704" lon="0.98787">
        <ele>74.64</ele>
        <time>2015-06-13T15:33:50Z</time>
      </trkpt>
      <trkpt lat="44.49704" lon="0.98783">
        <ele>74.64</ele>
        <time>2015-06-13T15:33:51Z</time>
      </trkpt>
      <trkpt lat="44.49703" lon="0.98779">
        <ele>74.64</ele>
        <time>2015-06-13T15:33:52Z</time>
      </trkpt>
      <trkpt lat="44.49702" lon="0.98775">
        <ele>74.64</ele>
        <time>2015-06-13T15:33:53Z</time>
      </trkpt>
      <trkpt lat="44.49701" lon="0.9877">
        <ele>74.64</ele>
        <time>2015-06-13T15:33:54Z</time>
      </trkpt>
      <trkpt lat="44.49701" lon="0.98764">
        <ele>75.12</ele>
        <time>2015-06-13T15:33:55Z</time>
      </trkpt>
      <trkpt lat="44.49702" lon="0.98758">
        <ele>75.12</ele>
        <time>2015-06-13T15:33:56Z</time>
      </trkpt>
      <trkpt lat="44.49703" lon="0.98753">
        <ele>75.12</ele>
        <time>2015-06-13T15:33:57Z</time>
      </trkpt>
      <trkpt lat="44.49703" lon="0.98747">
        <ele>75.12</ele>
        <time>2015-06-13T15:33:58Z</time>
      </trkpt>
      <trkpt lat="44.49715" lon="0.9866">
        <ele>76.08</ele>
        <time>2015-06-13T15:34:14Z</time>
      </trkpt>
      <trkpt lat="44.49727" lon="0.98572">
        <ele>77.04</ele>
        <time>2015-06-13T15:34:28Z</time>
      </trkpt>
      <trkpt lat="44.49741" lon="0.98491">
        <ele>77.04</ele>
        <time>2015-06-13T15:34:39Z</time>
      </trkpt>
      <trkpt lat="44.49743" lon="0.98483">
        <ele>77.52</ele>
        <time>2015-06-13T15:34:40Z</time>
      </trkpt>
      <trkpt lat="44.49766" lon="0.98392">
        <ele>76.56</ele>
        <time>2015-06-13T15:34:53Z</time>
      </trkpt>
      <trkpt lat="44.49768" lon="0.98386">
        <ele>76.56</ele>
        <time>2015-06-13T15:34:54Z</time>
      </trkpt>
      <trkpt lat="44.4977" lon="0.9838">
        <ele>76.08</ele>
        <time>2015-06-13T15:34:55Z</time>
      </trkpt>
      <trkpt lat="44.49771" lon="0.98374">
        <ele>76.08</ele>
        <time>2015-06-13T15:34:56Z</time>
      </trkpt>
      <trkpt lat="44.49773" lon="0.9837">
        <ele>76.08</ele>
        <time>2015-06-13T15:34:57Z</time>
      </trkpt>
      <trkpt lat="44.49774" lon="0.98367">
        <ele>76.08</ele>
        <time>2015-06-13T15:34:58Z</time>
      </trkpt>
      <trkpt lat="44.49776" lon="0.98365">
        <ele>76.08</ele>
        <time>2015-06-13T15:34:59Z</time>
      </trkpt>
      <trkpt lat="44.49777" lon="0.98362">
        <ele>76.08</ele>
        <time>2015-06-13T15:35:00Z</time>
      </trkpt>
      <trkpt lat="44.49777" lon="0.98359">
        <ele>76.08</ele>
        <time>2015-06-13T15:35:01Z</time>
      </trkpt>
      <trkpt lat="44.49791" lon="0.98305">
        <ele>76.08</ele>
        <time>2015-06-13T15:35:13Z</time>
      </trkpt>
      <trkpt lat="44.49816" lon="0.98218">
        <ele>75.12</ele>
        <time>2015-06-13T15:35:28Z</time>
      </trkpt>
      <trkpt lat="44.4982" lon="0.98205">
        <ele>74.64</ele>
        <time>2015-06-13T15:35:30Z</time>
      </trkpt>
      <trkpt lat="44.49832" lon="0.98164">
        <ele>74.16</ele>
        <time>2015-06-13T15:35:36Z</time>
      </trkpt>
      <trkpt lat="44.49834" lon="0.98157">
        <ele>74.16</ele>
        <time>2015-06-13T15:35:37Z</time>
      </trkpt>
      <trkpt lat="44.49847" lon="0.98067">
        <ele>72.72</ele>
        <time>2015-06-13T15:35:50Z</time>
      </trkpt>
      <trkpt lat="44.49847" lon="0.9806">
        <ele>72.72</ele>
        <time>2015-06-13T15:35:51Z</time>
      </trkpt>
      <trkpt lat="44.49849" lon="0.97983">
        <ele>72.24</ele>
        <time>2015-06-13T15:36:02Z</time>
      </trkpt>
      <trkpt lat="44.49846" lon="0.97905">
        <ele>72.24</ele>
        <time>2015-06-13T15:36:12Z</time>
      </trkpt>
      <trkpt lat="44.49838" lon="0.97823">
        <ele>73.2</ele>
        <time>2015-06-13T15:36:23Z</time>
      </trkpt>
      <trkpt lat="44.49837" lon="0.97815">
        <ele>73.68</ele>
        <time>2015-06-13T15:36:24Z</time>
      </trkpt>
      <trkpt lat="44.49831" lon="0.97734">
        <ele>75.6</ele>
        <time>2015-06-13T15:36:35Z</time>
      </trkpt>
      <trkpt lat="44.49829" lon="0.9772">
        <ele>75.6</ele>
        <time>2015-06-13T15:36:37Z</time>
      </trkpt>
      <trkpt lat="44.49825" lon="0.97694">
        <ele>75.6</ele>
        <time>2015-06-13T15:36:41Z</time>
      </trkpt>
      <trkpt lat="44.49824" lon="0.97687">
        <ele>75.6</ele>
        <time>2015-06-13T15:36:42Z</time>
      </trkpt>
      <trkpt lat="44.49819" lon="0.97668">
        <ele>75.12</ele>
        <time>2015-06-13T15:36:45Z</time>
      </trkpt>
      <trkpt lat="44.49809" lon="0.97612">
        <ele>75.12</ele>
        <time>2015-06-13T15:36:54Z</time>
      </trkpt>
      <trkpt lat="44.49797" lon="0.9758">
        <ele>74.64</ele>
        <time>2015-06-13T15:36:59Z</time>
      </trkpt>
      <trkpt lat="44.49795" lon="0.97573">
        <ele>74.64</ele>
        <time>2015-06-13T15:37:00Z</time>
      </trkpt>
      <trkpt lat="44.49783" lon="0.97535">
        <ele>74.64</ele>
        <time>2015-06-13T15:37:06Z</time>
      </trkpt>
      <trkpt lat="44.49779" lon="0.97515">
        <ele>74.64</ele>
        <time>2015-06-13T15:37:09Z</time>
      </trkpt>
      <trkpt lat="44.49753" lon="0.9742">
        <ele>75.12</ele>
        <time>2015-06-13T15:37:23Z</time>
      </trkpt>
      <trkpt lat="44.49718" lon="0.97314">
        <ele>76.08</ele>
        <time>2015-06-13T15:37:38Z</time>
      </trkpt>
      <trkpt lat="44.49682" lon="0.97208">
        <ele>75.12</ele>
        <time>2015-06-13T15:37:53Z</time>
      </trkpt>
      <trkpt lat="44.4968" lon="0.97202">
        <ele>75.12</ele>
        <time>2015-06-13T15:37:54Z</time>
      </trkpt>
      <trkpt lat="44.49678" lon="0.97196">
        <ele>75.6</ele>
        <time>2015-06-13T15:37:55Z</time>
      </trkpt>
      <trkpt lat="44.49649" lon="0.97113">
        <ele>76.08</ele>
        <time>2015-06-13T15:38:07Z</time>
      </trkpt>
      <trkpt lat="44.49642" lon="0.97092">
        <ele>76.56</ele>
        <time>2015-06-13T15:38:10Z</time>
      </trkpt>
      <trkpt lat="44.49626" lon="0.9705">
        <ele>76.08</ele>
        <time>2015-06-13T15:38:16Z</time>
      </trkpt>
      <trkpt lat="44.49621" lon="0.97037">
        <ele>76.08</ele>
        <time>2015-06-13T15:38:18Z</time>
      </trkpt>
      <trkpt lat="44.49586" lon="0.96945">
        <ele>75.12</ele>
        <time>2015-06-13T15:38:32Z</time>
      </trkpt>
      <trkpt lat="44.49543" lon="0.9684">
        <ele>72.72</ele>
        <time>2015-06-13T15:38:48Z</time>
      </trkpt>
      <trkpt lat="44.49535" lon="0.96814">
        <ele>72.24</ele>
        <time>2015-06-13T15:38:52Z</time>
      </trkpt>
      <trkpt lat="44.49532" lon="0.96801">
        <ele>72.24</ele>
        <time>2015-06-13T15:38:54Z</time>
      </trkpt>
      <trkpt lat="44.49529" lon="0.96788">
        <ele>72.24</ele>
        <time>2015-06-13T15:38:56Z</time>
      </trkpt>
      <trkpt lat="44.49488" lon="0.96688">
        <ele>71.27</ele>
        <time>2015-06-13T15:39:12Z</time>
      </trkpt>
      <trkpt lat="44.49445" lon="0.96583">
        <ele>71.27</ele>
        <time>2015-06-13T15:39:29Z</time>
      </trkpt>
      <trkpt lat="44.49433" lon="0.96553">
        <ele>71.27</ele>
        <time>2015-06-13T15:39:34Z</time>
      </trkpt>
      <trkpt lat="44.49397" lon="0.96476">
        <ele>70.31</ele>
        <time>2015-06-13T15:39:50Z</time>
      </trkpt>
      <trkpt lat="44.49396" lon="0.96474">
        <ele>69.83</ele>
        <time>2015-06-13T15:39:51Z</time>
      </trkpt>
      <trkpt lat="44.49396" lon="0.96469">
        <ele>70.31</ele>
        <time>2015-06-13T15:40:04Z</time>
      </trkpt>
      <trkpt lat="44.49395" lon="0.9647">
        <ele>69.83</ele>
        <time>2015-06-13T15:40:13Z</time>
      </trkpt>
      <trkpt lat="44.49381" lon="0.96437">
        <ele>69.83</ele>
        <time>2015-06-13T15:40:24Z</time>
      </trkpt>
      <trkpt lat="44.49358" lon="0.96385">
        <ele>69.83</ele>
        <time>2015-06-13T15:40:34Z</time>
      </trkpt>
      <trkpt lat="44.49336" lon="0.96323">
        <ele>69.83</ele>
        <time>2015-06-13T15:40:44Z</time>
      </trkpt>
      <trkpt lat="44.49333" lon="0.96316">
        <ele>69.83</ele>
        <time>2015-06-13T15:40:45Z</time>
      </trkpt>
      <trkpt lat="44.49314" lon="0.96277">
        <ele>70.79</ele>
        <time>2015-06-13T15:40:52Z</time>
      </trkpt>
      <trkpt lat="44.49264" lon="0.96158">
        <ele>70.79</ele>
        <time>2015-06-13T15:41:10Z</time>
      </trkpt>
      <trkpt lat="44.49216" lon="0.96047">
        <ele>70.31</ele>
        <time>2015-06-13T15:41:27Z</time>
      </trkpt>
      <trkpt lat="44.49161" lon="0.95918">
        <ele>70.79</ele>
        <time>2015-06-13T15:41:46Z</time>
      </trkpt>
      <trkpt lat="44.49105" lon="0.95788">
        <ele>69.35</ele>
        <time>2015-06-13T15:42:05Z</time>
      </trkpt>
      <trkpt lat="44.49049" lon="0.9565">
        <ele>69.35</ele>
        <time>2015-06-13T15:42:24Z</time>
      </trkpt>
      <trkpt lat="44.48999" lon="0.95512">
        <ele>69.35</ele>
        <time>2015-06-13T15:42:43Z</time>
      </trkpt>
      <trkpt lat="44.48978" lon="0.9539">
        <ele>70.31</ele>
        <time>2015-06-13T15:43:00Z</time>
      </trkpt>
      <trkpt lat="44.48968" lon="0.95275">
        <ele>72.24</ele>
        <time>2015-06-13T15:43:16Z</time>
      </trkpt>
      <trkpt lat="44.48956" lon="0.95143">
        <ele>73.2</ele>
        <time>2015-06-13T15:43:34Z</time>
      </trkpt>
      <trkpt lat="44.48944" lon="0.95025">
        <ele>74.16</ele>
        <time>2015-06-13T15:43:50Z</time>
      </trkpt>
      <trkpt lat="44.48942" lon="0.95004">
        <ele>74.64</ele>
        <time>2015-06-13T15:43:53Z</time>
      </trkpt>
      <trkpt lat="44.48932" lon="0.94892">
        <ele>75.6</ele>
        <time>2015-06-13T15:44:08Z</time>
      </trkpt>
      <trkpt lat="44.48923" lon="0.94787">
        <ele>76.08</ele>
        <time>2015-06-13T15:44:22Z</time>
      </trkpt>
      <trkpt lat="44.48918" lon="0.94735">
        <ele>76.56</ele>
        <time>2015-06-13T15:44:29Z</time>
      </trkpt>
      <trkpt lat="44.48917" lon="0.94698">
        <ele>77.52</ele>
        <time>2015-06-13T15:44:34Z</time>
      </trkpt>
      <trkpt lat="44.48914" lon="0.94677">
        <ele>78</ele>
        <time>2015-06-13T15:44:37Z</time>
      </trkpt>
      <trkpt lat="44.48906" lon="0.94604">
        <ele>77.52</ele>
        <time>2015-06-13T15:44:50Z</time>
      </trkpt>
      <trkpt lat="44.48904" lon="0.94601">
        <ele>77.52</ele>
        <time>2015-06-13T15:44:52Z</time>
      </trkpt>
      <trkpt lat="44.48901" lon="0.94586">
        <ele>77.52</ele>
        <time>2015-06-13T15:45:04Z</time>
      </trkpt>
      <trkpt lat="44.48901" lon="0.94584">
        <ele>77.52</ele>
        <time>2015-06-13T15:45:18Z</time>
      </trkpt>
      <trkpt lat="44.48899" lon="0.94579">
        <ele>77.52</ele>
        <time>2015-06-13T15:45:21Z</time>
      </trkpt>
      <trkpt lat="44.48895" lon="0.94565">
        <ele>78</ele>
        <time>2015-06-13T15:45:25Z</time>
      </trkpt>
      <trkpt lat="44.48891" lon="0.9456">
        <ele>77.52</ele>
        <time>2015-06-13T15:45:27Z</time>
      </trkpt>
      <trkpt lat="44.48889" lon="0.94559">
        <ele>77.52</ele>
        <time>2015-06-13T15:45:28Z</time>
      </trkpt>
      <trkpt lat="44.48881" lon="0.94557">
        <ele>76.56</ele>
        <time>2015-06-13T15:45:31Z</time>
      </trkpt>
      <trkpt lat="44.48878" lon="0.94558">
        <ele>76.08</ele>
        <time>2015-06-13T15:45:32Z</time>
      </trkpt>
      <trkpt lat="44.48877" lon="0.9456">
        <ele>76.08</ele>
        <time>2015-06-13T15:45:33Z</time>
      </trkpt>
      <trkpt lat="44.48875" lon="0.94561">
        <ele>75.6</ele>
        <time>2015-06-13T15:45:34Z</time>
      </trkpt>
      <trkpt lat="44.48873" lon="0.94561">
        <ele>75.6</ele>
        <time>2015-06-13T15:45:35Z</time>
      </trkpt>
      <trkpt lat="44.48872" lon="0.94561">
        <ele>75.6</ele>
        <time>2015-06-13T15:45:36Z</time>
      </trkpt>
      <trkpt lat="44.4887" lon="0.94562">
        <ele>75.12</ele>
        <time>2015-06-13T15:45:37Z</time>
      </trkpt>
      <trkpt lat="44.48869" lon="0.94564">
        <ele>75.12</ele>
        <time>2015-06-13T15:45:38Z</time>
      </trkpt>
      <trkpt lat="44.48868" lon="0.94566">
        <ele>75.12</ele>
        <time>2015-06-13T15:45:39Z</time>
      </trkpt>
      <trkpt lat="44.48868" lon="0.94568">
        <ele>75.12</ele>
        <time>2015-06-13T15:45:40Z</time>
      </trkpt>
      <trkpt lat="44.48866" lon="0.9457">
        <ele>75.12</ele>
        <time>2015-06-13T15:45:41Z</time>
      </trkpt>
      <trkpt lat="44.48864" lon="0.94571">
        <ele>74.64</ele>
        <time>2015-06-13T15:45:42Z</time>
      </trkpt>
      <trkpt lat="44.48862" lon="0.94571">
        <ele>74.64</ele>
        <time>2015-06-13T15:45:43Z</time>
      </trkpt>
      <trkpt lat="44.4886" lon="0.94571">
        <ele>74.64</ele>
        <time>2015-06-13T15:45:44Z</time>
      </trkpt>
      <trkpt lat="44.48858" lon="0.94572">
        <ele>74.64</ele>
        <time>2015-06-13T15:45:45Z</time>
      </trkpt>
      <trkpt lat="44.48856" lon="0.94574">
        <ele>74.64</ele>
        <time>2015-06-13T15:45:46Z</time>
      </trkpt>
      <trkpt lat="44.48847" lon="0.94579">
        <ele>74.16</ele>
        <time>2015-06-13T15:45:50Z</time>
      </trkpt>
      <trkpt lat="44.48845" lon="0.9458">
        <ele>74.16</ele>
        <time>2015-06-13T15:45:51Z</time>
      </trkpt>
      <trkpt lat="44.48842" lon="0.94582">
        <ele>74.16</ele>
        <time>2015-06-13T15:45:52Z</time>
      </trkpt>
      <trkpt lat="44.48835" lon="0.94591">
        <ele>74.16</ele>
        <time>2015-06-13T15:45:56Z</time>
      </trkpt>
      <trkpt lat="44.48834" lon="0.94591">
        <ele>74.16</ele>
        <time>2015-06-13T15:45:57Z</time>
      </trkpt>
      <trkpt lat="44.48832" lon="0.94592">
        <ele>74.16</ele>
        <time>2015-06-13T15:45:58Z</time>
      </trkpt>
      <trkpt lat="44.48831" lon="0.94592">
        <ele>74.16</ele>
        <time>2015-06-13T15:45:59Z</time>
      </trkpt>
      <trkpt lat="44.48828" lon="0.94593">
        <ele>74.16</ele>
        <time>2015-06-13T15:46:04Z</time>
      </trkpt>
      <trkpt lat="44.48826" lon="0.94593">
        <ele>74.16</ele>
        <time>2015-06-13T15:46:05Z</time>
      </trkpt>
      <trkpt lat="44.48818" lon="0.94594">
        <ele>74.16</ele>
        <time>2015-06-13T15:46:08Z</time>
      </trkpt>
      <trkpt lat="44.48802" lon="0.94591">
        <ele>73.2</ele>
        <time>2015-06-13T15:46:12Z</time>
      </trkpt>
      <trkpt lat="44.48786" lon="0.94583">
        <ele>72.72</ele>
        <time>2015-06-13T15:46:16Z</time>
      </trkpt>
      <trkpt lat="44.48767" lon="0.94563">
        <ele>71.76</ele>
        <time>2015-06-13T15:46:21Z</time>
      </trkpt>
      <trkpt lat="44.4876" lon="0.94554">
        <ele>71.76</ele>
        <time>2015-06-13T15:46:23Z</time>
      </trkpt>
      <trkpt lat="44.48749" lon="0.94535">
        <ele>70.79</ele>
        <time>2015-06-13T15:46:27Z</time>
      </trkpt>
      <trkpt lat="44.48732" lon="0.94523">
        <ele>70.79</ele>
        <time>2015-06-13T15:46:32Z</time>
      </trkpt>
      <trkpt lat="44.48723" lon="0.94531">
        <ele>71.27</ele>
        <time>2015-06-13T15:46:37Z</time>
      </trkpt>
      <trkpt lat="44.48699" lon="0.94531">
        <ele>70.79</ele>
        <time>2015-06-13T15:46:45Z</time>
      </trkpt>
      <trkpt lat="44.48696" lon="0.94534">
        <ele>70.79</ele>
        <time>2015-06-13T15:46:46Z</time>
      </trkpt>
      <trkpt lat="44.48692" lon="0.94537">
        <ele>70.79</ele>
        <time>2015-06-13T15:46:47Z</time>
      </trkpt>
      <trkpt lat="44.48689" lon="0.94539">
        <ele>70.79</ele>
        <time>2015-06-13T15:46:48Z</time>
      </trkpt>
      <trkpt lat="44.48685" lon="0.94539">
        <ele>70.79</ele>
        <time>2015-06-13T15:46:49Z</time>
      </trkpt>
      <trkpt lat="44.4868" lon="0.94537">
        <ele>70.79</ele>
        <time>2015-06-13T15:46:50Z</time>
      </trkpt>
      <trkpt lat="44.48676" lon="0.94534">
        <ele>70.79</ele>
        <time>2015-06-13T15:46:51Z</time>
      </trkpt>
      <trkpt lat="44.48667" lon="0.94527">
        <ele>70.31</ele>
        <time>2015-06-13T15:46:53Z</time>
      </trkpt>
      <trkpt lat="44.48663" lon="0.94523">
        <ele>70.31</ele>
        <time>2015-06-13T15:46:54Z</time>
      </trkpt>
      <trkpt lat="44.48625" lon="0.94484">
        <ele>69.83</ele>
        <time>2015-06-13T15:47:05Z</time>
      </trkpt>
      <trkpt lat="44.48621" lon="0.94481">
        <ele>69.83</ele>
        <time>2015-06-13T15:47:06Z</time>
      </trkpt>
      <trkpt lat="44.48616" lon="0.94481">
        <ele>69.83</ele>
        <time>2015-06-13T15:47:07Z</time>
      </trkpt>
      <trkpt lat="44.48607" lon="0.94481">
        <ele>70.31</ele>
        <time>2015-06-13T15:47:09Z</time>
      </trkpt>
      <trkpt lat="44.48603" lon="0.94481">
        <ele>70.31</ele>
        <time>2015-06-13T15:47:10Z</time>
      </trkpt>
      <trkpt lat="44.48598" lon="0.94481">
        <ele>70.79</ele>
        <time>2015-06-13T15:47:11Z</time>
      </trkpt>
      <trkpt lat="44.48593" lon="0.94479">
        <ele>70.79</ele>
        <time>2015-06-13T15:47:12Z</time>
      </trkpt>
      <trkpt lat="44.48588" lon="0.94478">
        <ele>70.79</ele>
        <time>2015-06-13T15:47:13Z</time>
      </trkpt>
      <trkpt lat="44.48564" lon="0.94467">
        <ele>70.31</ele>
        <time>2015-06-13T15:47:18Z</time>
      </trkpt>
      <trkpt lat="44.4856" lon="0.94464">
        <ele>70.31</ele>
        <time>2015-06-13T15:47:19Z</time>
      </trkpt>
      <trkpt lat="44.48556" lon="0.94459">
        <ele>70.31</ele>
        <time>2015-06-13T15:47:20Z</time>
      </trkpt>
      <trkpt lat="44.48554" lon="0.94454">
        <ele>70.31</ele>
        <time>2015-06-13T15:47:21Z</time>
      </trkpt>
      <trkpt lat="44.48552" lon="0.94449">
        <ele>69.83</ele>
        <time>2015-06-13T15:47:22Z</time>
      </trkpt>
      <trkpt lat="44.48549" lon="0.94445">
        <ele>69.83</ele>
        <time>2015-06-13T15:47:23Z</time>
      </trkpt>
      <trkpt lat="44.48546" lon="0.94442">
        <ele>69.83</ele>
        <time>2015-06-13T15:47:24Z</time>
      </trkpt>
      <trkpt lat="44.48541" lon="0.94432">
        <ele>69.35</ele>
        <time>2015-06-13T15:47:26Z</time>
      </trkpt>
      <trkpt lat="44.48539" lon="0.94426">
        <ele>68.87</ele>
        <time>2015-06-13T15:47:27Z</time>
      </trkpt>
      <trkpt lat="44.48519" lon="0.94418">
        <ele>68.87</ele>
        <time>2015-06-13T15:47:33Z</time>
      </trkpt>
      <trkpt lat="44.48475" lon="0.94435">
        <ele>68.39</ele>
        <time>2015-06-13T15:47:42Z</time>
      </trkpt>
      <trkpt lat="44.48465" lon="0.94437">
        <ele>68.39</ele>
        <time>2015-06-13T15:47:44Z</time>
      </trkpt>
      <trkpt lat="44.4844" lon="0.94446">
        <ele>69.35</ele>
        <time>2015-06-13T15:47:54Z</time>
      </trkpt>
      <trkpt lat="44.48441" lon="0.94449">
        <ele>70.31</ele>
        <time>2015-06-13T15:48:10Z</time>
      </trkpt>
      <trkpt lat="44.48439" lon="0.94451">
        <ele>71.76</ele>
        <time>2015-06-13T15:48:22Z</time>
      </trkpt>
      <trkpt lat="44.48439" lon="0.94456">
        <ele>71.76</ele>
        <time>2015-06-13T15:48:30Z</time>
      </trkpt>
      <trkpt lat="44.48435" lon="0.94475">
        <ele>70.79</ele>
        <time>2015-06-13T15:48:45Z</time>
      </trkpt>
      <trkpt lat="44.48435" lon="0.94475">
        <ele>70.79</ele>
        <time>2015-06-13T15:48:53Z</time>
      </trkpt>
      <trkpt lat="44.48429" lon="0.94474">
        <ele>71.27</ele>
        <time>2015-06-13T15:48:57Z</time>
      </trkpt>
      <trkpt lat="44.48422" lon="0.94477">
        <ele>71.76</ele>
        <time>2015-06-13T15:49:01Z</time>
      </trkpt>
      <trkpt lat="44.4842" lon="0.94477">
        <ele>71.76</ele>
        <time>2015-06-13T15:49:02Z</time>
      </trkpt>
      <trkpt lat="44.48418" lon="0.94477">
        <ele>71.76</ele>
        <time>2015-06-13T15:49:03Z</time>
      </trkpt>
      <trkpt lat="44.48415" lon="0.94476">
        <ele>72.24</ele>
        <time>2015-06-13T15:49:04Z</time>
      </trkpt>
      <trkpt lat="44.48402" lon="0.94467">
        <ele>71.76</ele>
        <time>2015-06-13T15:49:09Z</time>
      </trkpt>
      <trkpt lat="44.48401" lon="0.94463">
        <ele>71.76</ele>
        <time>2015-06-13T15:49:10Z</time>
      </trkpt>
      <trkpt lat="44.48391" lon="0.94394">
        <ele>69.83</ele>
        <time>2015-06-13T15:49:26Z</time>
      </trkpt>
      <trkpt lat="44.48387" lon="0.9439">
        <ele>69.35</ele>
        <time>2015-06-13T15:49:41Z</time>
      </trkpt>
      <trkpt lat="44.48384" lon="0.94389">
        <ele>69.35</ele>
        <time>2015-06-13T15:49:42Z</time>
      </trkpt>
      <trkpt lat="44.48346" lon="0.94398">
        <ele>69.83</ele>
        <time>2015-06-13T15:49:53Z</time>
      </trkpt>
      <trkpt lat="44.4833" lon="0.94402">
        <ele>70.79</ele>
        <time>2015-06-13T15:49:57Z</time>
      </trkpt>
      <trkpt lat="44.48263" lon="0.9442">
        <ele>72.72</ele>
        <time>2015-06-13T15:50:14Z</time>
      </trkpt>
      <trkpt lat="44.48242" lon="0.94426">
        <ele>72.72</ele>
        <time>2015-06-13T15:50:22Z</time>
      </trkpt>
      <trkpt lat="44.48241" lon="0.9443">
        <ele>72.72</ele>
        <time>2015-06-13T15:50:23Z</time>
      </trkpt>
      <trkpt lat="44.48242" lon="0.94435">
        <ele>72.72</ele>
        <time>2015-06-13T15:50:24Z</time>
      </trkpt>
      <trkpt lat="44.48243" lon="0.94439">
        <ele>72.72</ele>
        <time>2015-06-13T15:50:25Z</time>
      </trkpt>
      <trkpt lat="44.48244" lon="0.94445">
        <ele>72.72</ele>
        <time>2015-06-13T15:50:26Z</time>
      </trkpt>
      <trkpt lat="44.48246" lon="0.94456">
        <ele>72.72</ele>
        <time>2015-06-13T15:50:28Z</time>
      </trkpt>
      <trkpt lat="44.48246" lon="0.94462">
        <ele>72.24</ele>
        <time>2015-06-13T15:50:29Z</time>
      </trkpt>
      <trkpt lat="44.48245" lon="0.94468">
        <ele>72.24</ele>
        <time>2015-06-13T15:50:30Z</time>
      </trkpt>
      <trkpt lat="44.48243" lon="0.94473">
        <ele>72.24</ele>
        <time>2015-06-13T15:50:31Z</time>
      </trkpt>
      <trkpt lat="44.48239" lon="0.94477">
        <ele>72.24</ele>
        <time>2015-06-13T15:50:32Z</time>
      </trkpt>
      <trkpt lat="44.48236" lon="0.9448">
        <ele>72.24</ele>
        <time>2015-06-13T15:50:33Z</time>
      </trkpt>
      <trkpt lat="44.48231" lon="0.94483">
        <ele>72.24</ele>
        <time>2015-06-13T15:50:34Z</time>
      </trkpt>
      <trkpt lat="44.48227" lon="0.94485">
        <ele>72.24</ele>
        <time>2015-06-13T15:50:35Z</time>
      </trkpt>
      <trkpt lat="44.48222" lon="0.94487">
        <ele>71.76</ele>
        <time>2015-06-13T15:50:36Z</time>
      </trkpt>
      <trkpt lat="44.48217" lon="0.94489">
        <ele>71.76</ele>
        <time>2015-06-13T15:50:37Z</time>
      </trkpt>
      <trkpt lat="44.48145" lon="0.9452">
        <ele>71.27</ele>
        <time>2015-06-13T15:50:53Z</time>
      </trkpt>
      <trkpt lat="44.48144" lon="0.9452">
        <ele>70.79</ele>
        <time>2015-06-13T15:51:05Z</time>
      </trkpt>
      <trkpt lat="44.48121" lon="0.94536">
        <ele>70.31</ele>
        <time>2015-06-13T15:51:14Z</time>
      </trkpt>
      <trkpt lat="44.48097" lon="0.94555">
        <ele>70.79</ele>
        <time>2015-06-13T15:51:23Z</time>
      </trkpt>
      <trkpt lat="44.48097" lon="0.94558">
        <ele>71.27</ele>
        <time>2015-06-13T15:51:24Z</time>
      </trkpt>
      <trkpt lat="44.48096" lon="0.94561">
        <ele>71.27</ele>
        <time>2015-06-13T15:51:25Z</time>
      </trkpt>
      <trkpt lat="44.48096" lon="0.94564">
        <ele>71.27</ele>
        <time>2015-06-13T15:51:26Z</time>
      </trkpt>
      <trkpt lat="44.48097" lon="0.94569">
        <ele>71.27</ele>
        <time>2015-06-13T15:51:27Z</time>
      </trkpt>
      <trkpt lat="44.48098" lon="0.94574">
        <ele>71.76</ele>
        <time>2015-06-13T15:51:28Z</time>
      </trkpt>
      <trkpt lat="44.481" lon="0.94579">
        <ele>71.76</ele>
        <time>2015-06-13T15:51:29Z</time>
      </trkpt>
      <trkpt lat="44.48102" lon="0.94583">
        <ele>71.76</ele>
        <time>2015-06-13T15:51:30Z</time>
      </trkpt>
      <trkpt lat="44.48104" lon="0.94589">
        <ele>71.27</ele>
        <time>2015-06-13T15:51:31Z</time>
      </trkpt>
      <trkpt lat="44.48113" lon="0.94611">
        <ele>71.27</ele>
        <time>2015-06-13T15:51:35Z</time>
      </trkpt>
      <trkpt lat="44.48115" lon="0.94617">
        <ele>71.27</ele>
        <time>2015-06-13T15:51:36Z</time>
      </trkpt>
      <trkpt lat="44.48131" lon="0.94657">
        <ele>70.31</ele>
        <time>2015-06-13T15:51:43Z</time>
      </trkpt>
      <trkpt lat="44.48133" lon="0.94662">
        <ele>69.83</ele>
        <time>2015-06-13T15:51:44Z</time>
      </trkpt>
      <trkpt lat="44.48133" lon="0.94668">
        <ele>69.83</ele>
        <time>2015-06-13T15:51:45Z</time>
      </trkpt>
      <trkpt lat="44.48131" lon="0.94674">
        <ele>69.35</ele>
        <time>2015-06-13T15:51:46Z</time>
      </trkpt>
      <trkpt lat="44.48128" lon="0.94677">
        <ele>69.35</ele>
        <time>2015-06-13T15:51:47Z</time>
      </trkpt>
      <trkpt lat="44.48124" lon="0.9468">
        <ele>68.87</ele>
        <time>2015-06-13T15:51:48Z</time>
      </trkpt>
      <trkpt lat="44.48094" lon="0.94705">
        <ele>69.83</ele>
        <time>2015-06-13T15:51:55Z</time>
      </trkpt>
      <trkpt lat="44.48067" lon="0.94728">
        <ele>70.79</ele>
        <time>2015-06-13T15:52:01Z</time>
      </trkpt>
      <trkpt lat="44.48015" lon="0.9477">
        <ele>68.39</ele>
        <time>2015-06-13T15:52:13Z</time>
      </trkpt>
      <trkpt lat="44.48012" lon="0.94768">
        <ele>67.91</ele>
        <time>2015-06-13T15:52:14Z</time>
      </trkpt>
      <trkpt lat="44.48009" lon="0.94763">
        <ele>67.43</ele>
        <time>2015-06-13T15:52:15Z</time>
      </trkpt>
      <trkpt lat="44.48006" lon="0.94756">
        <ele>67.43</ele>
        <time>2015-06-13T15:52:16Z</time>
      </trkpt>
      <trkpt lat="44.48004" lon="0.9475">
        <ele>66.95</ele>
        <time>2015-06-13T15:52:17Z</time>
      </trkpt>
      <trkpt lat="44.47999" lon="0.94738">
        <ele>67.43</ele>
        <time>2015-06-13T15:52:19Z</time>
      </trkpt>
      <trkpt lat="44.47995" lon="0.94727">
        <ele>67.91</ele>
        <time>2015-06-13T15:52:21Z</time>
      </trkpt>
      <trkpt lat="44.47965" lon="0.9465">
        <ele>69.35</ele>
        <time>2015-06-13T15:52:34Z</time>
      </trkpt>
      <trkpt lat="44.47962" lon="0.94643">
        <ele>69.35</ele>
        <time>2015-06-13T15:52:35Z</time>
      </trkpt>
      <trkpt lat="44.4795" lon="0.94603">
        <ele>69.35</ele>
        <time>2015-06-13T15:52:41Z</time>
      </trkpt>
      <trkpt lat="44.47929" lon="0.94523">
        <ele>70.79</ele>
        <time>2015-06-13T15:52:53Z</time>
      </trkpt>
      <trkpt lat="44.47906" lon="0.94452">
        <ele>70.31</ele>
        <time>2015-06-13T15:53:03Z</time>
      </trkpt>
      <trkpt lat="44.4789" lon="0.94403">
        <ele>69.35</ele>
        <time>2015-06-13T15:53:10Z</time>
      </trkpt>
      <trkpt lat="44.4787" lon="0.94352">
        <ele>68.87</ele>
        <time>2015-06-13T15:53:17Z</time>
      </trkpt>
      <trkpt lat="44.47858" lon="0.94319">
        <ele>68.87</ele>
        <time>2015-06-13T15:53:22Z</time>
      </trkpt>
      <trkpt lat="44.47843" lon="0.94285">
        <ele>68.39</ele>
        <time>2015-06-13T15:53:27Z</time>
      </trkpt>
      <trkpt lat="44.47836" lon="0.94262">
        <ele>68.39</ele>
        <time>2015-06-13T15:53:30Z</time>
      </trkpt>
      <trkpt lat="44.47817" lon="0.94225">
        <ele>68.39</ele>
        <time>2015-06-13T15:53:36Z</time>
      </trkpt>
      <trkpt lat="44.47796" lon="0.94182">
        <ele>67.43</ele>
        <time>2015-06-13T15:53:44Z</time>
      </trkpt>
      <trkpt lat="44.47773" lon="0.94147">
        <ele>66.95</ele>
        <time>2015-06-13T15:53:50Z</time>
      </trkpt>
      <trkpt lat="44.47758" lon="0.94131">
        <ele>66.95</ele>
        <time>2015-06-13T15:53:53Z</time>
      </trkpt>
      <trkpt lat="44.47737" lon="0.94111">
        <ele>66.95</ele>
        <time>2015-06-13T15:53:57Z</time>
      </trkpt>
      <trkpt lat="44.47692" lon="0.94072">
        <ele>66.47</ele>
        <time>2015-06-13T15:54:06Z</time>
      </trkpt>
      <trkpt lat="44.47632" lon="0.94033">
        <ele>66.47</ele>
        <time>2015-06-13T15:54:18Z</time>
      </trkpt>
      <trkpt lat="44.47608" lon="0.94014">
        <ele>65.51</ele>
        <time>2015-06-13T15:54:23Z</time>
      </trkpt>
      <trkpt lat="44.47585" lon="0.93995">
        <ele>65.51</ele>
        <time>2015-06-13T15:54:29Z</time>
      </trkpt>
      <trkpt lat="44.47581" lon="0.93992">
        <ele>65.51</ele>
        <time>2015-06-13T15:54:30Z</time>
      </trkpt>
      <trkpt lat="44.47577" lon="0.93988">
        <ele>65.51</ele>
        <time>2015-06-13T15:54:31Z</time>
      </trkpt>
      <trkpt lat="44.47573" lon="0.93984">
        <ele>65.51</ele>
        <time>2015-06-13T15:54:32Z</time>
      </trkpt>
      <trkpt lat="44.47568" lon="0.93979">
        <ele>65.99</ele>
        <time>2015-06-13T15:54:33Z</time>
      </trkpt>
      <trkpt lat="44.47559" lon="0.93972">
        <ele>65.99</ele>
        <time>2015-06-13T15:54:35Z</time>
      </trkpt>
      <trkpt lat="44.47546" lon="0.93964">
        <ele>66.47</ele>
        <time>2015-06-13T15:54:38Z</time>
      </trkpt>
      <trkpt lat="44.47542" lon="0.93962">
        <ele>66.47</ele>
        <time>2015-06-13T15:54:39Z</time>
      </trkpt>
      <trkpt lat="44.47528" lon="0.93958">
        <ele>66.47</ele>
        <time>2015-06-13T15:54:42Z</time>
      </trkpt>
      <trkpt lat="44.47524" lon="0.93955">
        <ele>66.47</ele>
        <time>2015-06-13T15:54:43Z</time>
      </trkpt>
      <trkpt lat="44.4752" lon="0.93952">
        <ele>66.95</ele>
        <time>2015-06-13T15:54:44Z</time>
      </trkpt>
      <trkpt lat="44.47514" lon="0.93946">
        <ele>67.43</ele>
        <time>2015-06-13T15:54:46Z</time>
      </trkpt>
      <trkpt lat="44.47511" lon="0.93942">
        <ele>67.91</ele>
        <time>2015-06-13T15:54:47Z</time>
      </trkpt>
      <trkpt lat="44.47504" lon="0.93927">
        <ele>68.87</ele>
        <time>2015-06-13T15:54:50Z</time>
      </trkpt>
      <trkpt lat="44.47492" lon="0.939">
        <ele>68.87</ele>
        <time>2015-06-13T15:54:56Z</time>
      </trkpt>
      <trkpt lat="44.4749" lon="0.93899">
        <ele>68.87</ele>
        <time>2015-06-13T15:54:57Z</time>
      </trkpt>
      <trkpt lat="44.47487" lon="0.93898">
        <ele>67.91</ele>
        <time>2015-06-13T15:55:09Z</time>
      </trkpt>
      <trkpt lat="44.47486" lon="0.93899">
        <ele>68.39</ele>
        <time>2015-06-13T15:55:24Z</time>
      </trkpt>
      <trkpt lat="44.47484" lon="0.939">
        <ele>68.39</ele>
        <time>2015-06-13T15:55:25Z</time>
      </trkpt>
      <trkpt lat="44.47482" lon="0.93901">
        <ele>68.39</ele>
        <time>2015-06-13T15:55:26Z</time>
      </trkpt>
      <trkpt lat="44.47442" lon="0.93924">
        <ele>69.35</ele>
        <time>2015-06-13T15:55:39Z</time>
      </trkpt>
      <trkpt lat="44.47408" lon="0.93949">
        <ele>70.31</ele>
        <time>2015-06-13T15:55:50Z</time>
      </trkpt>
      <trkpt lat="44.47405" lon="0.93949">
        <ele>70.31</ele>
        <time>2015-06-13T15:55:51Z</time>
      </trkpt>
      <trkpt lat="44.47403" lon="0.93951">
        <ele>70.79</ele>
        <time>2015-06-13T15:55:52Z</time>
      </trkpt>
      <trkpt lat="44.47394" lon="0.93956">
        <ele>72.72</ele>
        <time>2015-06-13T15:55:58Z</time>
      </trkpt>
      <trkpt lat="44.47383" lon="0.93908">
        <ele>74.16</ele>
        <time>2015-06-13T15:56:09Z</time>
      </trkpt>
      <trkpt lat="44.47369" lon="0.9384">
        <ele>72.24</ele>
        <time>2015-06-13T15:56:20Z</time>
      </trkpt>
      <trkpt lat="44.47366" lon="0.93835">
        <ele>72.24</ele>
        <time>2015-06-13T15:56:21Z</time>
      </trkpt>
      <trkpt lat="44.47353" lon="0.93816">
        <ele>73.68</ele>
        <time>2015-06-13T15:56:26Z</time>
      </trkpt>
      <trkpt lat="44.47351" lon="0.93812">
        <ele>74.16</ele>
        <time>2015-06-13T15:56:27Z</time>
      </trkpt>
      <trkpt lat="44.47349" lon="0.93809">
        <ele>74.16</ele>
        <time>2015-06-13T15:56:28Z</time>
      </trkpt>
      <trkpt lat="44.47348" lon="0.93804">
        <ele>75.12</ele>
        <time>2015-06-13T15:56:29Z</time>
      </trkpt>
      <trkpt lat="44.47347" lon="0.93799">
        <ele>75.12</ele>
        <time>2015-06-13T15:56:30Z</time>
      </trkpt>
      <trkpt lat="44.47347" lon="0.93795">
        <ele>75.12</ele>
        <time>2015-06-13T15:56:31Z</time>
      </trkpt>
      <trkpt lat="44.47346" lon="0.9379">
        <ele>75.6</ele>
        <time>2015-06-13T15:56:32Z</time>
      </trkpt>
      <trkpt lat="44.47346" lon="0.93786">
        <ele>75.6</ele>
        <time>2015-06-13T15:56:33Z</time>
      </trkpt>
      <trkpt lat="44.47345" lon="0.93783">
        <ele>75.6</ele>
        <time>2015-06-13T15:56:34Z</time>
      </trkpt>
      <trkpt lat="44.47344" lon="0.93779">
        <ele>75.12</ele>
        <time>2015-06-13T15:56:35Z</time>
      </trkpt>
      <trkpt lat="44.47343" lon="0.93776">
        <ele>75.12</ele>
        <time>2015-06-13T15:56:36Z</time>
      </trkpt>
      <trkpt lat="44.47323" lon="0.93739">
        <ele>76.08</ele>
        <time>2015-06-13T15:56:47Z</time>
      </trkpt>
      <trkpt lat="44.47301" lon="0.9369">
        <ele>76.56</ele>
        <time>2015-06-13T15:57:00Z</time>
      </trkpt>
      <trkpt lat="44.47285" lon="0.93657">
        <ele>77.04</ele>
        <time>2015-06-13T15:57:07Z</time>
      </trkpt>
      <trkpt lat="44.47282" lon="0.93652">
        <ele>77.04</ele>
        <time>2015-06-13T15:57:08Z</time>
      </trkpt>
      <trkpt lat="44.47278" lon="0.93648">
        <ele>77.04</ele>
        <time>2015-06-13T15:57:09Z</time>
      </trkpt>
      <trkpt lat="44.47258" lon="0.93627">
        <ele>77.52</ele>
        <time>2015-06-13T15:57:14Z</time>
      </trkpt>
      <trkpt lat="44.47254" lon="0.93623">
        <ele>77.52</ele>
        <time>2015-06-13T15:57:15Z</time>
      </trkpt>
      <trkpt lat="44.47251" lon="0.93617">
        <ele>77.52</ele>
        <time>2015-06-13T15:57:16Z</time>
      </trkpt>
      <trkpt lat="44.47249" lon="0.93612">
        <ele>77.04</ele>
        <time>2015-06-13T15:57:17Z</time>
      </trkpt>
      <trkpt lat="44.47247" lon="0.93607">
        <ele>77.04</ele>
        <time>2015-06-13T15:57:18Z</time>
      </trkpt>
      <trkpt lat="44.47245" lon="0.93602">
        <ele>77.04</ele>
        <time>2015-06-13T15:57:19Z</time>
      </trkpt>
      <trkpt lat="44.47228" lon="0.93559">
        <ele>76.08</ele>
        <time>2015-06-13T15:57:29Z</time>
      </trkpt>
      <trkpt lat="44.47228" lon="0.93556">
        <ele>76.08</ele>
        <time>2015-06-13T15:57:30Z</time>
      </trkpt>
      <trkpt lat="44.47228" lon="0.93548">
        <ele>76.08</ele>
        <time>2015-06-13T15:57:41Z</time>
      </trkpt>
      <trkpt lat="44.47228" lon="0.93543">
        <ele>76.56</ele>
        <time>2015-06-13T15:57:50Z</time>
      </trkpt>
      <trkpt lat="44.47228" lon="0.93541">
        <ele>76.56</ele>
        <time>2015-06-13T15:57:51Z</time>
      </trkpt>
      <trkpt lat="44.47228" lon="0.93539">
        <ele>77.04</ele>
        <time>2015-06-13T15:57:52Z</time>
      </trkpt>
      <trkpt lat="44.47228" lon="0.93536">
        <ele>77.04</ele>
        <time>2015-06-13T15:57:53Z</time>
      </trkpt>
      <trkpt lat="44.47228" lon="0.93533">
        <ele>77.04</ele>
        <time>2015-06-13T15:57:54Z</time>
      </trkpt>
      <trkpt lat="44.47228" lon="0.93531">
        <ele>77.04</ele>
        <time>2015-06-13T15:57:55Z</time>
      </trkpt>
      <trkpt lat="44.47228" lon="0.93528">
        <ele>77.04</ele>
        <time>2015-06-13T15:57:56Z</time>
      </trkpt>
      <trkpt lat="44.47228" lon="0.93525">
        <ele>77.52</ele>
        <time>2015-06-13T15:57:57Z</time>
      </trkpt>
      <trkpt lat="44.47228" lon="0.93522">
        <ele>77.04</ele>
        <time>2015-06-13T15:57:58Z</time>
      </trkpt>
      <trkpt lat="44.47228" lon="0.93519">
        <ele>77.52</ele>
        <time>2015-06-13T15:57:59Z</time>
      </trkpt>
      <trkpt lat="44.47227" lon="0.93515">
        <ele>77.52</ele>
        <time>2015-06-13T15:58:00Z</time>
      </trkpt>
      <trkpt lat="44.47227" lon="0.93511">
        <ele>77.04</ele>
        <time>2015-06-13T15:58:01Z</time>
      </trkpt>
      <trkpt lat="44.47227" lon="0.93507">
        <ele>77.04</ele>
        <time>2015-06-13T15:58:02Z</time>
      </trkpt>
      <trkpt lat="44.47222" lon="0.93456">
        <ele>76.56</ele>
        <time>2015-06-13T15:58:14Z</time>
      </trkpt>
      <trkpt lat="44.47214" lon="0.93434">
        <ele>77.04</ele>
        <time>2015-06-13T15:58:21Z</time>
      </trkpt>
      <trkpt lat="44.47213" lon="0.93427">
        <ele>75.12</ele>
        <time>2015-06-13T15:58:31Z</time>
      </trkpt>
      <trkpt lat="44.47212" lon="0.93425">
        <ele>74.16</ele>
        <time>2015-06-13T15:58:47Z</time>
      </trkpt>
      <trkpt lat="44.47213" lon="0.93424">
        <ele>73.68</ele>
        <time>2015-06-13T15:59:15Z</time>
      </trkpt>
    </trkseg>
  </trk>
</gpx>